[[{"header":{"parameterUnit":"m.s-1","parameterCategory":1,"la1":31.0,"la2":29.5877,"lo1":-88.7671,"lo2":-86.6584,"dy":0.0162,"dx":0.0185,"nx":115,"ny":88,"refTime":"2024-08-21T06:00:00:Z","depth":0,"parameterNumber":2,"parameterNumberName":"U-component_of_WINDS"},"data":[0.0,0.0,0.0,0.0,0.0,0.0,0.0,0.0,0.0,0.0,0.0,0.0,0.0,0.0,0.0,0.0,0.0,0.0,0.0,0.0,0.0,0.0,0.0,0.0,0.0,0.0,0.0,0.0,0.0,0.0,0.0,0.0,0.0,0.0,0.0,0.0,0.0,0.0,0.0,0.0,0.0,0.0,0.0,0.0,0.0,0.0,0.0,0.0,0.0,0.0,0.0,0.0,0.0,0.0,0.0,0.0,0.0,0.0,0.0,0.0,0.0,0.0,0.0,0.0,0.0,0.0,0.0,0.0,0.0,0.0,0.0,0.0,0.0,0.0,0.0,0.0,0.0,0.0,0.0,0.0,0.0,0.0,0.0,0.0,0.0,0.0,0.0,0.0,0.0,0.0,0.0,0.0,0.0,0.0,0.0,0.0,0.0,0.0,0.0,0.0,0.0,0.0,0.0,0.0,0.0,0.0,0.0,0.0,0.0,0.0,0.0,0.0,0.0,0.0,0.0,0.0,0.0,0.0,0.0,0.0,0.0,0.0,0.0,0.0,0.0,0.0,0.0,0.0,0.0,0.0,0.0,0.0,0.0,0.0,0.0,0.0,0.0,0.0,0.0,0.0,0.0,0.0,0.0,0.0,0.0,0.0,0.0,0.0,0.0,0.0,0.0,0.0,0.0,0.0,0.0,0.0,0.0,0.0,0.0,0.0,0.0,0.0,0.0,0.0,0.0,0.0,0.0,0.0,0.0,0.0,0.0,0.0,0.0,0.0,0.0,0.0,0.0,0.0,0.0,0.0,0.0,0.0,0.0,0.0,0.0,0.0,0.0,0.0,0.0,0.0,0.0,0.0,0.0,0.0,0.0,0.0,0.0,0.0,0.0,0.0,0.0,0.0,0.0,0.0,0.0,0.0,0.0,0.0,0.0,0.0,0.0,0.0,0.0,0.0,0.0,0.0,0.0,0.0,0.0,0.0,0.0,0.0,0.0,0.0,0.0,0.0,0.0,0.0,0.0,0.0,0.0,0.0,0.0,0.0,0.0,0.0,0.0,0.0,0.0,0.0,0.0,0.0,0.0,0.0,0.0,0.0,0.0,0.0,0.0,0.0,0.0,0.0,0.0,0.0,0.0,0.0,0.0,0.0,0.0,0.0,0.0,0.0,0.0,0.0,0.0,0.0,0.0,0.0,0.0,0.0,0.0,0.0,0.0,0.0,0.0,0.0,0.0,0.0,0.0,0.0,0.0,0.0,0.0,0.0,0.0,0.0,0.0,0.0,0.0,0.0,0.0,0.0,0.0,0.0,0.0,0.0,0.0,0.0,0.0,0.0,0.0,0.0,0.0,0.0,0.0,0.0,0.0,0.0,0.0,0.0,0.0,0.0,0.0,0.0,0.0,0.0,0.0,0.0,0.0,0.0,0.0,0.0,0.0,0.0,0.0,0.0,0.0,0.0,0.0,0.0,0.0,0.0,0.0,0.0,0.0,0.0,0.0,0.0,0.0,0.0,0.0,0.0,0.0,0.0,0.0,0.0,0.0,0.0,0.0,0.0,0.0,0.0,0.0,0.0,0.0,0.0,0.0,0.0,0.0,0.0,0.0,0.0,0.0,0.0,0.0,0.0,0.0,0.0,0.0,0.0,0.0,0.0,0.0,0.0,0.0,0.0,0.0,0.0,0.0,0.0,0.0,0.0,0.0,0.0,0.0,0.0,0.0,0.0,0.0,0.0,0.0,0.0,0.0,0.0,0.0,0.0,0.0,0.0,0.0,0.0,0.0,0.0,0.0,0.0,0.0,0.0,0.0,0.0,0.0,0.0,0.0,0.0,0.0,0.0,0.0,0.0,0.0,0.0,0.0,0.0,0.0,0.0,0.0,0.0,0.0,0.0,0.0,0.0,0.0,0.0,0.0,0.0,0.0,0.0,0.0,0.0,0.0,0.0,0.0,0.0,0.0,0.0,0.0,0.0,0.0,0.0,0.0,0.0,0.0,0.0,0.0,0.0,0.0,0.0,0.0,0.0,0.0,0.0,0.0,0.0,0.0,0.0,0.0,0.0,0.0,0.0,0.0,0.0,0.0,0.0,0.0,0.0,0.0,0.0,0.0,0.0,0.0,0.0,0.0,0.0,0.0,0.0,0.0,0.0,0.0,0.0,0.0,0.0,0.0,0.0,0.0,0.0,0.0,0.0,0.0,0.0,0.0,0.0,0.0,0.0,0.0,0.0,0.0,0.0,0.0,0.0,0.0,0.0,0.0,0.0,0.0,0.0,0.0,0.0,0.0,0.0,0.0,0.0,0.0,0.0,0.0,0.0,0.0,0.0,0.0,0.0,0.0,0.0,0.0,0.0,0.0,0.0,0.0,0.0,0.0,0.0,0.0,0.0,0.0,0.0,0.0,0.0,0.0,0.0,0.0,0.0,0.0,0.0,0.0,0.0,0.0,0.0,0.0,0.0,0.0,0.0,0.0,0.0,0.0,0.0,0.0,0.0,0.0,0.0,0.0,0.0,0.0,0.0,0.0,0.0,0.0,0.0,0.0,0.0,0.0,0.0,0.0,0.0,0.0,0.0,0.0,0.0,0.0,0.0,0.0,0.0,0.0,0.0,0.0,0.0,0.0,0.0,0.0,0.0,0.0,0.0,0.0,0.0,0.0,0.0,0.0,0.0,0.0,0.0,0.0,0.0,0.0,0.0,0.0,0.0,0.0,0.0,0.0,0.0,0.0,0.0,0.0,0.0,0.0,0.0,0.0,0.0,0.0,0.0,0.0,0.0,0.0,0.0,0.0,0.0,0.0,0.0,0.0,0.0,0.0,0.0,0.0,0.0,0.0,0.0,0.0,0.0,0.0,0.0,0.0,0.0,0.0,0.0,0.0,0.0,0.0,0.0,0.0,0.0,0.0,0.0,0.0,0.0,0.0,0.0,0.0,0.0,0.0,0.0,0.0,0.0,0.0,0.0,0.0,0.0,0.0,0.0,0.0,0.0,0.0,0.0,0.0,0.0,0.0,0.0,0.0,0.0,0.0,0.0,0.0,0.0,0.0,0.0,0.0,0.0,0.0,0.0,0.0,0.0,0.0,0.0,0.0,0.0,0.0,0.0,0.0,0.0,0.0,0.0,0.0,0.0,0.0,0.0,0.0,0.0,0.0,0.0,0.0,0.0,0.0,0.0,0.0,0.0,0.0,0.0,0.0,0.0,0.0,0.0,0.0,0.0,0.0,0.0,0.0,0.0,0.0,0.0,0.0,0.0,0.0,0.0,0.0,0.0,0.0,0.0,0.0,0.0,0.0,0.0,0.0,0.0,0.0,0.0,0.0,0.0,0.0,0.0,0.0,0.0,0.0,0.0,0.0,0.0,0.0,0.0,0.0,0.0,0.0,0.0,0.0,0.0,0.0,0.0,0.0,0.0,0.0,0.0,0.0,0.0,0.0,0.0,0.0,0.0,0.0,0.0,0.0,0.0,0.0,0.0,0.0,0.0,0.0,0.0,0.0,0.0,0.0,0.0,0.0,0.0,0.0,0.0,0.0,0.0,0.0,0.0,0.0,0.0,0.0,0.0,0.0,0.0,0.0,0.0,0.0,0.0,0.0,0.0,0.0,0.0,0.0,0.0,0.0,0.0,0.0,0.0,0.0,0.0,0.0,0.0,0.0,0.0,0.0,0.0,0.0,0.0,0.0,0.0,0.0,0.0,0.0,0.0,0.0,0.0,0.0,0.0,0.0,0.0,0.0,0.0,0.0,0.0,0.0,0.0,0.0,0.0,0.0,0.0,0.0,0.0,0.0,0.0,0.0,0.0,0.0,0.0,0.0,0.0,0.0,0.0,0.0,0.0,0.0,0.0,0.0,0.0,0.0,0.0,0.0,0.0,0.0,0.0,0.0,0.0,0.0,0.0,0.0,0.0,0.0,0.0,0.0,0.0,0.0,0.0,0.0,0.0,0.0,0.0,0.0,0.0,0.0,0.0,0.0,0.0,0.0,0.0,0.0,0.0,0.0,0.0,0.0,0.0,0.0,0.0,0.0,0.0,0.0,0.0,0.0,0.0,0.0,0.0,0.0,0.0,0.0,0.0,0.0,0.0,0.0,0.0,0.0,0.0,0.0,0.0,0.0,0.0,0.0,0.0,0.0,0.0,0.0,0.0,0.0,0.0,0.0,0.0,0.0,0.0,0.0,0.0,0.0,0.0,0.0,0.0,0.0,0.0,0.0,0.0,0.0,0.0,0.0,0.0,0.0,0.0,0.0,0.0,0.0,0.0,0.0,0.0,0.0,0.0,1.5195,0.0,0.0,0.0,0.0,0.0,0.0,0.0,0.0,0.0,0.0,0.0,0.0,0.0,0.0,0.0,0.0,0.0,0.0,0.0,0.0,0.0,0.0,0.0,0.0,0.0,0.0,0.0,0.0,0.0,0.0,0.0,0.0,0.0,0.0,0.0,0.0,0.0,0.0,0.0,0.0,0.0,0.0,0.0,0.0,0.0,0.0,0.0,0.0,0.0,0.0,0.0,0.0,0.0,0.0,0.0,0.0,0.0,0.0,0.0,0.0,0.0,0.0,0.0,0.0,0.0,0.0,0.0,0.0,0.0,0.0,0.0,0.0,0.0,0.0,0.0,0.0,0.0,0.0,0.0,0.0,0.0,0.0,0.0,0.0,0.0,0.0,0.0,0.0,0.0,0.0,0.0,0.0,0.0,0.0,0.0,0.0,0.0,0.0,0.0,0.0,0.0,0.0,0.0,0.0,0.0,0.0,0.0,0.0,0.0,0.0,1.5056,1.5189,1.5195,1.5195,1.5195,0.0,0.0,0.0,0.0,0.0,0.0,0.0,0.0,0.0,0.0,0.0,0.0,0.0,0.0,0.0,0.0,0.0,0.0,0.0,0.0,0.0,0.0,0.0,0.0,0.0,0.0,0.0,0.0,0.0,0.0,0.0,0.0,0.0,0.0,0.0,0.0,0.0,0.0,0.0,0.0,0.0,0.0,0.0,0.0,0.0,0.0,0.0,0.0,0.0,0.0,0.0,0.0,0.0,0.0,0.0,0.0,0.0,0.0,0.0,0.0,0.0,0.0,0.0,0.0,0.0,0.0,0.0,0.0,0.0,0.0,0.0,0.0,0.0,0.0,0.0,0.0,0.0,0.0,0.0,0.0,0.0,0.0,0.0,0.0,0.0,0.0,0.0,0.0,0.0,0.0,0.0,0.0,0.0,0.0,0.0,0.0,0.0,0.0,0.0,0.0,0.0,0.0,0.0,0.0,0.0,0.0,0.0,0.0,0.0,0.0,0.0,0.0,1.5856,1.5778,1.5777,0.0,0.0,0.0,0.0,0.0,0.0,0.0,0.0,0.0,0.0,0.0,0.0,0.0,0.0,0.0,0.0,0.0,0.0,0.0,0.0,0.0,0.0,0.0,0.0,0.0,0.0,0.0,0.0,0.0,0.0,0.0,0.0,0.0,0.0,0.0,0.0,0.0,0.0,0.0,0.0,0.0,0.0,0.0,0.0,0.0,0.0,0.0,0.0,0.0,0.0,0.0,0.0,0.0,0.0,0.0,0.0,0.0,0.0,0.0,0.0,0.0,0.0,0.0,0.0,0.0,0.0,0.0,0.0,0.0,0.0,0.0,0.0,0.0,0.0,0.0,0.0,0.0,0.0,0.0,0.0,0.0,0.0,0.0,0.0,0.0,0.0,0.0,0.0,0.0,0.0,0.0,0.0,0.0,0.0,0.0,0.0,0.0,0.0,0.0,0.0,0.0,0.0,0.0,0.0,0.0,0.0,0.0,0.0,0.0,0.0,1.6017,1.8286,1.7794,0.0,1.7559,0.0,0.0,0.0,0.0,0.0,0.0,0.0,0.0,0.0,0.0,0.0,0.0,0.0,0.0,0.0,0.0,0.0,0.0,0.0,0.0,0.0,0.0,0.0,0.0,0.0,0.0,0.0,0.0,0.0,0.0,0.0,0.0,0.0,0.0,0.0,0.0,0.0,0.0,0.0,0.0,0.0,0.0,0.0,0.0,0.0,0.0,0.0,0.0,0.0,0.0,0.0,0.0,0.0,0.0,0.0,0.0,0.0,0.0,0.0,0.0,0.0,0.0,0.0,0.0,0.0,0.0,0.0,0.0,0.0,0.0,0.0,0.0,0.0,0.0,0.0,0.0,0.0,0.0,0.0,0.0,0.0,0.0,0.0,0.0,0.0,0.0,0.0,0.0,0.0,0.0,0.0,0.0,0.0,0.0,0.0,0.0,0.0,0.0,0.0,0.0,0.0,0.0,0.0,0.0,0.0,0.0,0.0,0.0,0.0,0.0,0.0,1.8042,1.7814,1.7493,0.0,0.0,0.0,0.0,0.0,0.0,0.0,0.0,0.0,0.0,0.0,0.0,0.0,0.0,0.0,0.0,0.0,0.0,0.0,0.0,0.0,0.0,0.0,0.0,0.0,0.0,0.0,0.0,0.0,0.0,0.0,0.0,0.0,0.0,0.0,0.0,0.0,0.0,0.0,0.0,0.0,0.0,0.0,0.0,0.0,0.0,0.0,0.0,0.0,0.0,0.0,0.0,0.0,0.0,0.0,0.0,0.0,0.0,0.0,0.0,0.0,0.0,0.0,0.0,0.0,0.0,0.0,0.0,0.0,0.0,0.0,0.0,0.0,0.0,0.0,0.0,0.0,0.0,0.0,0.0,0.0,0.0,0.0,0.0,0.0,0.0,0.0,0.0,0.0,0.0,0.0,0.0,0.0,0.0,0.0,0.0,0.0,0.0,0.0,0.0,0.0,0.0,0.0,0.0,0.0,0.0,0.0,0.0,0.0,0.0,1.7748,0.0,1.8346,1.839,1.7807,1.6529,0.0,0.0,0.0,0.0,0.0,0.0,0.0,0.0,0.0,0.0,0.0,0.0,0.0,0.0,0.0,0.0,0.0,0.0,0.0,0.0,0.0,0.0,0.0,0.0,0.0,0.0,0.0,0.0,0.0,0.0,0.0,0.0,0.0,0.0,0.0,0.0,0.0,0.0,0.0,0.0,0.0,0.0,0.0,0.0,0.0,0.0,0.0,0.0,0.0,0.0,0.0,0.0,0.0,0.0,0.0,0.0,0.0,0.0,0.0,0.0,0.0,0.0,0.0,0.0,0.0,0.0,0.0,0.0,0.0,0.0,0.0,0.0,0.0,0.0,0.0,0.0,0.0,0.0,0.0,0.0,0.0,0.0,0.0,0.0,0.0,0.0,0.0,0.0,0.0,0.0,0.0,0.0,0.0,0.0,0.0,0.0,0.0,0.0,0.0,0.0,0.0,0.0,0.0,0.0,0.0,0.0,0.0,0.0,0.0,1.8715,1.8345,2.0123,2.0188,1.9016,0.0,0.0,0.0,0.0,0.0,0.0,0.0,0.0,0.0,0.0,0.0,0.0,0.0,0.0,0.0,0.0,0.0,0.0,0.0,0.0,0.0,0.0,0.0,0.0,0.0,0.0,0.0,0.0,0.0,0.0,0.0,0.0,0.0,0.0,0.0,0.0,0.0,0.0,0.0,0.0,0.0,0.0,0.0,0.0,0.0,0.0,0.0,0.0,0.0,0.0,0.0,0.0,0.0,0.0,0.0,0.0,0.0,0.0,0.0,0.0,0.0,0.0,0.0,0.0,0.0,0.0,0.0,0.0,0.0,0.0,0.0,0.0,0.0,0.0,0.0,0.0,0.0,0.0,0.0,0.0,0.0,0.0,0.0,0.0,0.0,0.0,0.0,0.0,0.0,0.0,0.0,0.0,0.0,0.0,0.0,0.0,0.0,0.0,0.0,0.0,0.0,0.0,0.0,0.0,0.0,0.0,0.0,0.0,0.0,1.6927,1.7259,1.9116,0.0,1.9591,1.7691,0.0,0.0,0.0,0.0,0.0,0.0,0.0,0.0,0.0,0.0,0.0,0.0,0.0,0.0,0.0,0.0,0.0,0.0,0.0,0.0,0.0,0.0,0.0,0.0,0.0,0.0,0.0,0.0,0.0,0.0,0.0,0.0,0.0,0.0,0.0,0.0,0.0,0.0,0.0,0.0,0.0,0.0,0.0,0.0,0.0,0.0,0.0,0.0,0.0,0.0,0.0,0.0,0.0,0.0,0.0,0.0,0.0,0.0,0.0,0.0,0.0,0.0,0.0,0.0,0.0,0.0,0.0,0.0,0.0,0.0,0.0,0.0,0.0,0.0,0.0,0.0,0.0,0.0,0.0,0.0,0.0,0.0,0.0,0.0,0.0,0.0,0.0,0.0,0.0,0.0,0.0,0.0,0.0,0.0,0.0,0.0,0.0,0.0,0.0,0.0,0.0,0.0,0.0,0.0,0.0,0.0,0.0,0.0,0.0,1.6239,0.0,2.0519,0.0,1.9281,1.6988,0.0,0.0,0.0,0.0,0.0,0.0,0.0,0.0,0.0,0.0,0.0,0.0,0.0,0.0,0.0,0.0,0.0,0.0,0.0,0.0,0.0,0.0,0.0,0.0,0.0,0.0,0.0,0.0,0.0,0.0,0.0,0.0,0.0,0.0,0.0,0.0,0.0,0.0,0.0,0.0,0.0,0.0,0.0,0.0,0.0,0.0,0.0,0.0,0.0,0.0,0.0,0.0,0.0,0.0,0.0,0.0,0.0,0.0,0.0,0.0,0.0,0.0,0.0,0.0,0.0,0.0,0.0,0.0,0.0,0.0,0.0,0.0,0.0,0.0,0.0,0.0,0.0,0.0,0.0,0.0,0.0,0.0,0.0,0.0,0.0,0.0,0.0,0.0,0.0,0.0,0.0,0.0,0.0,0.0,0.0,0.0,0.0,0.0,0.0,0.0,0.0,0.0,0.0,0.0,0.0,0.0,0.0,0.0,1.6073,1.9687,2.2046,2.2305,2.0457,1.9496,1.7105,0.0,0.0,0.0,0.0,0.0,0.0,0.0,0.0,0.0,0.0,0.0,0.0,0.0,0.0,0.0,0.0,0.0,0.0,0.0,0.0,0.0,0.0,0.0,0.0,0.0,0.0,0.0,0.0,0.0,0.0,0.0,0.0,0.0,0.0,0.0,0.0,0.0,0.0,0.0,0.0,0.0,0.0,0.0,0.0,0.0,0.0,0.0,0.0,0.0,0.0,0.0,0.0,0.0,0.0,0.0,0.0,0.0,0.0,0.0,0.0,0.0,0.0,0.0,0.0,0.0,0.0,0.0,0.0,0.0,0.0,0.0,0.0,0.0,0.0,0.0,0.0,0.0,0.0,0.0,0.0,0.0,0.0,0.0,0.0,0.0,0.0,0.0,0.0,0.0,0.0,0.0,0.0,0.0,0.0,0.0,0.0,0.0,0.0,0.0,0.0,0.0,0.0,0.0,0.0,0.0,0.0,0.0,0.0,0.0,1.8192,2.0177,2.1797,2.281,1.9342,1.7619,0.0,0.0,0.0,0.0,0.0,0.0,0.0,0.0,0.0,0.0,0.0,0.0,0.0,0.0,0.0,0.0,0.0,0.0,0.0,0.0,0.0,0.0,0.0,0.0,0.0,0.0,0.0,0.0,0.0,0.0,0.0,0.0,0.0,0.0,0.0,0.0,0.0,0.0,0.0,0.0,0.0,0.0,0.0,0.0,0.0,0.0,0.0,0.0,0.0,0.0,0.0,0.0,0.0,0.0,0.0,0.0,0.0,0.0,0.0,0.0,0.0,0.0,0.0,0.0,0.0,0.0,0.0,0.0,0.0,0.0,0.0,0.0,0.0,0.0,0.0,0.0,0.0,0.0,0.0,0.0,0.0,0.0,0.0,0.0,0.0,0.0,0.0,0.0,0.0,0.0,0.0,0.0,0.0,0.0,0.0,0.0,0.0,0.0,0.0,0.0,0.0,0.0,0.0,0.0,0.0,0.0,0.0,0.0,0.0,2.0393,2.1784,2.3091,2.4205,2.0563,1.8716,1.8962,0.0,0.0,0.0,0.0,0.0,0.0,0.0,0.0,0.0,0.0,0.0,0.0,0.0,0.0,0.0,0.0,0.0,0.0,0.0,0.0,0.0,0.0,0.0,0.0,0.0,0.0,0.0,0.0,0.0,0.0,0.0,0.0,0.0,0.0,0.0,0.0,0.0,0.0,0.0,0.0,0.0,0.0,0.0,0.0,0.0,0.0,0.0,0.0,0.0,0.0,0.0,0.0,0.0,0.0,0.0,0.0,0.0,0.0,0.0,0.0,0.0,0.0,0.0,0.0,0.0,0.0,0.0,0.0,0.0,0.0,0.0,0.0,0.0,0.0,0.0,0.0,0.0,0.0,0.0,0.0,0.0,0.0,0.0,0.0,0.0,0.0,0.0,0.0,0.0,0.0,0.0,0.0,0.0,0.0,0.0,0.0,0.0,0.0,0.0,0.0,0.0,0.0,0.0,0.0,0.0,0.0,0.0,0.0,2.5418,2.6346,2.6143,2.4774,2.303,2.0508,0.0,0.0,0.0,0.0,0.0,0.0,0.0,0.0,0.0,0.0,0.0,0.0,0.0,0.0,0.0,0.0,0.0,0.0,0.0,0.0,0.0,0.0,0.0,0.0,0.0,0.0,0.0,0.0,0.0,0.0,0.0,0.0,0.0,0.0,0.0,0.0,0.0,0.0,0.0,0.0,0.0,0.0,0.0,0.0,0.0,0.0,0.0,0.0,0.0,0.0,0.0,0.0,0.0,0.0,0.0,0.0,0.0,0.0,0.0,0.0,0.0,0.0,0.0,0.0,0.0,0.0,0.0,0.0,0.0,0.0,0.0,0.0,0.0,0.0,0.0,0.0,0.0,0.0,0.0,0.0,0.0,0.0,0.0,0.0,0.0,0.0,0.0,0.0,0.0,0.0,0.0,0.0,0.0,0.0,0.0,0.0,0.0,0.0,0.0,0.0,0.0,0.0,0.0,0.0,0.0,0.0,0.0,0.0,0.0,2.7309,2.9505,3.013,2.9081,2.6259,2.3672,0.0,0.0,0.0,0.0,0.0,0.0,0.0,0.0,0.0,0.0,0.0,0.0,0.0,0.0,0.0,0.0,0.0,0.0,0.0,0.0,0.0,0.0,0.0,0.0,0.0,0.0,0.0,0.0,0.0,0.0,0.0,0.0,0.0,0.0,0.0,0.0,0.0,0.0,0.0,0.0,0.0,0.0,0.0,0.0,0.0,0.0,0.0,0.0,0.0,0.0,0.0,0.0,0.0,0.0,0.0,0.0,0.0,0.0,0.0,0.0,0.0,0.0,0.0,0.0,0.0,0.0,0.0,0.0,0.0,0.0,0.0,0.0,0.0,0.0,0.0,0.0,0.0,0.0,0.0,0.0,0.0,0.0,0.0,0.0,0.0,0.0,0.0,0.0,0.0,0.0,0.0,0.0,0.0,0.0,0.0,0.0,0.0,0.0,0.0,0.0,0.0,0.0,0.0,0.0,0.0,0.0,0.0,0.0,2.6505,3.0205,3.22,3.3128,3.2984,2.9674,2.6543,0.0,0.0,0.0,0.0,0.0,0.0,0.0,0.0,0.0,0.0,0.0,0.0,0.0,0.0,0.0,0.0,0.0,0.0,0.0,0.0,0.0,0.0,0.0,0.0,0.0,0.0,0.0,0.0,0.0,0.0,0.0,0.0,0.0,0.0,0.0,0.0,0.0,0.0,0.0,0.0,0.0,0.0,0.0,0.0,0.0,0.0,0.0,0.0,0.0,0.0,0.0,0.0,0.0,0.0,0.0,0.0,0.0,0.0,0.0,0.0,0.0,0.0,0.0,0.0,0.0,0.0,0.0,0.0,0.0,0.0,0.0,0.0,0.0,0.0,0.0,0.0,0.0,0.0,0.0,0.0,0.0,0.0,0.0,0.0,0.0,0.0,0.0,0.0,0.0,0.0,0.0,0.0,0.0,0.0,0.0,0.0,0.0,0.0,0.0,0.0,0.0,0.0,0.0,0.0,0.0,0.0,0.0,0.0,2.8368,3.3171,3.4313,3.524,3.5993,3.2812,2.9004,0.0,0.0,0.0,0.0,0.0,0.0,0.0,0.0,0.0,0.0,0.0,0.0,0.0,0.0,0.0,0.0,0.0,0.0,0.0,0.0,0.0,0.0,0.0,0.0,0.0,0.0,0.0,0.0,0.0,0.0,0.0,0.0,0.0,0.0,0.0,0.0,0.0,0.0,0.0,0.0,0.0,0.0,0.0,0.0,0.0,0.0,0.0,0.0,0.0,0.0,0.0,0.0,0.0,0.0,0.0,0.0,0.0,0.0,0.0,0.0,0.0,0.0,0.0,0.0,0.0,0.0,0.0,0.0,0.0,0.0,0.0,0.0,0.0,0.0,0.0,0.0,0.0,0.0,0.0,0.0,0.0,0.0,0.0,0.0,0.0,0.0,0.0,0.0,0.0,0.0,0.0,0.0,0.0,0.0,0.0,0.0,0.0,0.0,0.0,0.0,0.0,0.0,0.0,0.0,0.0,0.0,0.0,0.0,3.0128,3.3229,3.4891,3.612,3.6908,3.3688,2.9844,0.0,0.0,0.0,0.0,0.0,0.0,0.0,0.0,0.0,0.0,0.0,0.0,0.0,0.0,0.0,0.0,0.0,0.0,0.0,0.0,0.0,0.0,0.0,0.0,0.0,0.0,0.0,0.0,0.0,0.0,0.0,0.0,0.0,0.0,0.0,0.0,0.0,0.0,0.0,0.0,0.0,0.0,0.0,0.0,0.0,0.0,0.0,0.0,2.2201,0.0,0.0,0.0,0.0,0.0,0.0,0.0,0.0,0.0,0.0,0.0,0.0,0.0,0.0,0.0,0.0,0.0,0.0,0.0,0.0,0.0,0.0,0.0,0.0,0.0,0.0,0.0,0.0,0.0,0.0,0.0,0.0,0.0,0.0,0.0,0.0,0.0,0.0,0.0,0.0,0.0,0.0,0.0,0.0,0.0,0.0,0.0,0.0,0.0,0.0,0.0,0.0,0.0,0.0,0.0,0.0,0.0,0.0,0.0,3.107,3.4457,3.5472,3.6356,3.7038,3.4263,3.0813,0.0,0.0,0.0,0.0,0.0,0.0,0.0,0.0,0.0,0.0,0.0,0.0,0.0,0.0,0.0,0.0,0.0,0.0,0.0,0.0,0.0,0.0,0.0,0.0,0.0,0.0,0.0,0.0,0.0,0.0,0.0,0.0,0.0,0.0,0.0,0.0,0.0,0.0,0.0,0.0,0.0,0.0,0.0,0.0,0.0,0.0,0.0,0.0,0.0,0.0,0.0,0.0,0.0,0.0,0.0,0.0,0.0,0.0,0.0,0.0,0.0,0.0,0.0,0.0,0.0,0.0,0.0,0.0,0.0,0.0,0.0,0.0,0.0,0.0,0.0,0.0,0.0,0.0,0.0,0.0,0.0,0.0,0.0,0.0,0.0,0.0,0.0,0.0,0.0,0.0,0.0,0.0,0.0,0.0,0.0,0.0,0.0,0.0,0.0,0.0,0.0,0.0,0.0,0.0,0.0,0.0,0.0,2.7815,3.1541,3.5747,3.5931,3.6309,3.7088,3.4576,3.1516,2.8064,0.0,0.0,0.0,0.0,0.0,0.0,0.0,0.0,0.0,0.0,0.0,0.0,0.0,0.0,0.0,0.0,0.0,0.0,0.0,0.0,0.0,0.0,0.0,0.0,0.0,0.0,0.0,0.0,0.0,0.0,0.0,0.0,0.0,0.0,0.0,0.0,0.0,0.0,2.0049,2.2538,0.0,0.0,0.0,0.0,0.0,0.0,0.0,0.0,2.3841,0.0,0.0,0.0,0.0,0.0,0.0,0.0,0.0,0.0,0.0,0.0,0.0,0.0,0.0,0.0,0.0,0.0,0.0,0.0,0.0,0.0,0.0,0.0,0.0,0.0,0.0,0.0,0.0,0.0,0.0,0.0,0.0,0.0,0.0,0.0,0.0,0.0,0.0,0.0,0.0,0.0,0.0,0.0,0.0,0.0,0.0,0.0,0.0,0.0,0.0,0.0,0.0,0.0,0.0,0.0,0.0,2.6381,2.8463,3.1565,3.5789,3.5901,3.6232,3.6856,3.4447,3.1399,2.7775,0.0,0.0,0.0,0.0,0.0,0.0,0.0,0.0,0.0,0.0,0.0,0.0,0.0,0.0,0.0,0.0,0.0,0.0,0.0,0.0,0.0,0.0,0.0,0.0,0.0,0.0,0.0,0.0,0.0,0.0,0.0,0.0,0.0,0.0,0.0,0.0,0.0,0.0,0.0,2.4549,2.5998,0.0,0.0,0.0,0.0,0.0,0.0,0.0,0.0,2.4192,0.0,0.0,0.0,0.0,0.0,0.0,0.0,0.0,0.0,0.0,0.0,0.0,0.0,0.0,0.0,0.0,0.0,0.0,0.0,0.0,0.0,0.0,0.0,0.0,0.0,0.0,0.0,0.0,0.0,0.0,0.0,0.0,0.0,0.0,0.0,0.0,0.0,0.0,0.0,0.0,0.0,0.0,0.0,0.0,0.0,0.0,0.0,0.0,0.0,0.0,0.0,0.0,0.0,0.0,0.0,2.5984,2.8753,3.196,3.572,3.5795,3.5905,3.6155,3.3215,3.024,0.0,0.0,0.0,0.0,0.0,0.0,0.0,0.0,0.0,0.0,0.0,0.0,0.0,0.0,0.0,0.0,0.0,0.0,0.0,0.0,0.0,0.0,0.0,0.0,0.0,0.0,0.0,0.0,0.0,0.0,0.0,0.0,0.0,0.0,0.0,0.0,0.0,0.0,0.0,0.0,2.5604,2.7043,2.7934,0.0,0.0,0.0,0.0,0.0,0.0,2.6063,2.543,0.0,0.0,0.0,0.0,0.0,0.0,0.0,0.0,0.0,0.0,0.0,0.0,0.0,0.0,0.0,0.0,0.0,0.0,0.0,0.0,0.0,0.0,0.0,0.0,0.0,0.0,0.0,0.0,0.0,0.0,0.0,0.0,0.0,0.0,0.0,0.0,0.0,0.0,0.0,0.0,0.0,0.0,0.0,0.0,0.0,0.0,0.0,0.0,0.0,0.0,0.0,0.0,0.0,0.0,0.0,2.5756,2.8994,3.2322,3.5669,3.568,3.5584,3.5526,3.2248,2.9306,0.0,0.0,0.0,0.0,0.0,0.0,0.0,0.0,0.0,0.0,0.0,0.0,0.0,0.0,0.0,0.0,0.0,0.0,0.0,0.0,0.0,0.0,0.0,0.0,0.0,0.0,0.0,0.0,0.0,0.0,0.0,0.0,0.0,0.0,0.0,0.0,0.0,0.0,0.0,0.0,0.0,2.8563,2.911,2.8909,0.0,0.0,0.0,0.0,2.8155,2.8164,0.0,0.0,0.0,0.0,0.0,0.0,0.0,0.0,0.0,0.0,0.0,0.0,0.0,0.0,0.0,0.0,0.0,0.0,0.0,0.0,0.0,0.0,0.0,0.0,0.0,0.0,0.0,0.0,0.0,0.0,0.0,0.0,0.0,0.0,0.0,0.0,0.0,0.0,0.0,0.0,0.0,0.0,0.0,0.0,0.0,0.0,0.0,0.0,0.0,0.0,0.0,0.0,0.0,0.0,0.0,0.0,2.6578,2.935,3.2346,3.5507,3.5641,3.5584,3.5488,3.276,2.9693,0.0,0.0,0.0,0.0,0.0,0.0,0.0,0.0,0.0,0.0,0.0,0.0,0.0,0.0,0.0,0.0,0.0,0.0,0.0,0.0,0.0,0.0,0.0,0.0,0.0,0.0,0.0,0.0,0.0,0.0,0.0,0.0,0.0,0.0,0.0,0.0,0.0,0.0,0.0,0.0,0.0,3.1314,2.9483,3.0426,3.106,0.0,0.0,3.0906,3.2319,3.2561,0.0,0.0,0.0,0.0,0.0,0.0,0.0,0.0,0.0,0.0,0.0,0.0,0.0,0.0,0.0,0.0,0.0,0.0,0.0,0.0,0.0,0.0,0.0,0.0,0.0,0.0,0.0,0.0,0.0,0.0,0.0,0.0,0.0,0.0,0.0,0.0,0.0,0.0,0.0,0.0,0.0,0.0,0.0,0.0,0.0,0.0,0.0,0.0,0.0,0.0,0.0,0.0,0.0,0.0,0.0,2.1438,2.6782,2.9853,3.2786,3.5565,3.5603,3.5215,3.4538,3.1488,2.8302,0.0,0.0,0.0,0.0,0.0,0.0,0.0,0.0,0.0,0.0,0.0,0.0,0.0,0.0,0.0,0.0,0.0,0.0,0.0,0.0,0.0,0.0,0.0,0.0,0.0,0.0,0.0,0.0,0.0,0.0,0.0,0.0,0.0,0.0,0.0,0.0,0.0,0.0,0.0,0.0,0.0,0.0,3.2114,3.2781,0.0,0.0,0.0,3.3197,3.397,0.0,0.0,0.0,0.0,0.0,0.0,0.0,0.0,0.0,0.0,0.0,0.0,0.0,0.0,0.0,0.0,0.0,0.0,0.0,0.0,0.0,0.0,0.0,0.0,0.0,0.0,0.0,0.0,0.0,0.0,0.0,0.0,0.0,0.0,0.0,0.0,0.0,0.0,0.0,0.0,0.0,0.0,0.0,0.0,0.0,0.0,0.0,0.0,0.0,0.0,0.0,0.0,0.0,0.0,0.0,0.0,0.0,2.7165,3.0529,3.3343,3.5578,3.5565,3.4942,3.3799,3.0598,0.0,0.0,0.0,0.0,0.0,0.0,0.0,0.0,0.0,0.0,0.0,0.0,0.0,0.0,0.0,0.0,0.0,0.0,0.0,0.0,0.0,0.0,0.0,0.0,0.0,0.0,0.0,1.1043,0.0,0.0,0.0,0.0,0.0,0.0,0.0,0.0,0.0,0.0,0.0,0.0,0.0,0.0,3.2766,3.447,3.5032,3.5494,0.0,0.0,3.5679,3.5954,3.5612,3.4345,0.0,0.0,0.0,0.0,0.0,0.0,0.0,0.0,0.0,0.0,0.0,0.0,0.0,0.0,0.0,0.0,0.0,0.0,0.0,0.0,0.0,0.0,0.0,0.0,0.0,0.0,0.0,0.0,0.0,0.0,0.0,0.0,0.0,0.0,0.0,0.0,0.0,0.0,0.0,0.0,0.0,0.0,0.0,0.0,0.0,0.0,0.0,0.0,0.0,0.0,0.0,0.0,0.0,0.0,0.0,2.8018,3.1407,3.3925,3.554,3.5545,3.4961,3.3799,3.1142,2.8107,0.0,0.0,0.0,0.0,0.0,0.0,0.0,0.0,0.0,0.0,0.0,0.0,0.0,0.0,0.0,0.0,0.0,0.0,0.0,0.0,0.0,0.0,0.0,0.0,0.0,0.0,0.0,0.0,0.0,0.0,0.0,0.0,0.0,0.0,0.0,0.0,0.0,0.0,0.0,0.0,0.0,3.4513,3.5415,3.6968,3.8631,0.0,0.0,3.8529,3.9411,4.0155,3.871,3.2951,0.0,0.0,0.0,0.0,0.0,0.0,0.0,0.0,0.0,0.0,0.0,0.0,0.0,0.0,0.0,0.0,0.0,0.0,0.0,0.0,0.0,0.0,0.0,0.0,0.0,0.0,0.0,0.0,0.0,0.0,0.0,0.0,0.0,0.0,0.0,0.0,0.0,0.0,0.0,0.0,0.0,0.0,0.0,0.0,0.0,0.0,0.0,0.0,0.0,0.0,0.0,0.0,0.0,2.3091,2.8139,3.1499,3.3978,3.5507,3.5526,3.4894,3.3593,3.1596,2.882,0.0,0.0,0.0,0.0,0.0,0.0,0.0,0.0,0.0,0.0,0.0,0.0,0.0,0.0,0.0,0.0,0.0,0.0,0.0,0.0,0.0,0.0,0.0,0.0,0.0,0.0,0.0,0.0,1.6152,1.69,1.6914,0.0,0.0,0.0,0.0,0.0,0.0,0.0,0.0,0.0,0.0,3.6671,3.865,3.9521,0.0,0.0,4.0797,4.013,4.0422,3.9373,3.7428,3.4164,3.2113,0.0,0.0,0.0,0.0,0.0,0.0,0.0,0.0,0.0,0.0,0.0,0.0,0.0,0.0,0.0,0.0,0.0,0.0,0.0,0.0,0.0,0.0,0.0,0.0,0.0,0.0,0.0,0.0,0.0,0.0,0.0,0.0,0.0,0.0,0.0,0.0,0.0,0.0,0.0,0.0,0.0,0.0,0.0,0.0,0.0,0.0,0.0,0.0,0.0,0.0,0.0,0.0,2.3097,2.8103,3.1469,3.3972,3.5526,3.5526,3.4829,3.3411,3.1842,2.9364,0.0,0.0,0.0,0.0,0.0,0.0,0.0,0.0,0.0,0.0,0.0,0.0,0.0,0.0,0.0,0.0,0.0,0.0,0.0,0.0,0.0,0.0,0.0,0.0,0.0,0.0,0.0,0.0,1.7142,1.7533,1.7547,0.0,0.0,0.0,0.0,0.0,0.0,0.0,0.0,0.0,0.0,3.793,4.0582,4.0994,4.1505,4.2908,4.1898,4.1056,4.1228,3.9711,3.7706,3.5286,0.0,0.0,0.0,0.0,0.0,0.0,0.0,0.0,0.0,0.0,0.0,0.0,0.0,0.0,0.0,0.0,0.0,0.0,0.0,0.0,0.0,0.0,0.0,0.0,0.0,0.0,0.0,0.0,0.0,0.0,1.0291,0.0,0.0,0.0,0.0,0.0,0.0,0.0,0.0,0.0,0.0,0.0,0.0,0.0,0.0,0.0,0.0,0.0,0.0,0.0,0.0,0.0,0.0,2.3079,2.7944,3.1457,3.3934,3.5449,3.5507,3.4852,3.3469,3.1844,2.9588,2.6604,0.0,0.0,0.0,0.0,0.0,0.0,0.0,0.0,0.0,0.0,0.0,0.0,0.0,0.0,0.0,0.0,0.0,0.0,0.0,0.0,0.0,0.0,0.0,0.0,0.0,0.0,1.6471,1.6663,1.6805,0.0,0.0,0.0,0.0,0.0,0.0,0.0,0.0,0.0,0.0,3.589,3.7987,4.0663,4.1016,4.1992,4.4512,4.2721,4.1335,4.2149,4.2152,4.0688,0.0,0.0,0.0,0.0,0.0,0.0,0.0,0.0,0.0,0.0,0.0,0.0,0.0,0.0,0.0,0.0,0.0,0.0,0.0,0.0,0.0,0.0,0.0,0.0,0.0,0.0,0.0,1.6328,1.5039,0.0,0.0,0.0,0.0,0.0,0.0,0.0,0.0,0.0,0.0,0.0,2.4861,2.6524,0.0,0.0,0.0,0.0,0.0,0.0,0.0,0.0,0.0,0.0,0.0,0.0,2.3801,2.8664,3.1609,3.3851,3.543,3.5507,3.5189,3.4528,3.2768,2.9757,2.539,0.0,0.0,0.0,0.0,0.0,0.0,0.0,0.0,0.0,0.0,0.0,0.0,0.0,0.0,0.0,0.0,0.0,0.0,0.0,0.0,0.0,0.0,0.0,0.0,0.0,1.7221,0.0,0.0,0.0,0.0,0.0,0.0,0.0,0.0,0.0,0.0,0.0,3.3832,3.5859,3.8665,4.1066,4.2595,4.2793,4.3266,0.0,0.0,0.0,0.0,0.0,0.0,0.0,0.0,0.0,0.0,0.0,0.0,0.0,0.0,4.0429,3.47,3.2726,3.1851,3.1531,0.0,0.0,0.0,0.0,0.0,0.0,0.0,0.0,0.0,0.0,0.0,0.0,0.0,0.0,1.9727,0.0,1.8301,0.0,0.0,0.0,0.0,0.0,0.0,0.0,0.0,2.5736,2.7613,2.8725,3.0079,2.9976,0.0,2.8655,2.6052,0.0,0.0,0.0,0.0,0.0,0.0,0.0,0.0,2.5076,2.911,3.2,3.4115,3.5416,3.5417,3.5277,3.5073,3.2938,2.9994,2.6165,2.4598,2.2997,0.0,0.0,0.0,0.0,0.0,0.0,0.0,0.0,0.0,0.0,0.0,0.0,0.0,0.0,0.0,0.0,0.0,0.0,0.0,0.0,0.0,0.0,0.0,1.8439,0.0,0.0,0.0,0.0,0.0,0.0,0.0,0.0,0.0,3.0247,3.392,3.7145,3.8657,4.1099,4.2992,4.3609,0.0,0.0,0.0,0.0,0.0,0.0,0.0,4.1316,4.1358,4.0251,3.9456,3.9823,4.2035,4.3457,4.2578,0.0,0.0,3.9037,3.7153,3.6265,3.594,3.6554,3.7031,3.6661,3.7467,3.8159,0.0,0.0,0.0,0.0,0.0,0.0,0.0,0.0,2.2324,2.2695,0.0,2.1602,0.0,0.0,0.0,0.0,0.0,2.3301,0.0,0.0,3.0404,3.2018,3.21,3.2856,3.2799,3.2108,3.3567,3.2577,2.9071,2.3701,0.0,0.0,0.0,0.0,0.0,0.0,2.6809,2.936,3.2582,3.4658,3.5427,3.5242,3.5069,3.4958,3.2459,3.0361,2.8835,2.7224,2.5303,2.3016,2.1317,0.0,0.0,0.0,0.0,0.0,0.0,0.0,0.0,0.0,0.0,0.0,0.0,0.0,0.0,0.0,0.0,0.0,0.0,0.0,0.0,1.8645,0.0,0.0,0.0,0.0,0.0,0.0,0.0,0.0,0.0,0.0,3.4847,3.6942,3.9432,4.1975,0.0,0.0,0.0,0.0,4.3965,4.4902,4.4161,4.3556,4.3676,4.4084,4.3924,4.2488,0.0,0.0,4.2819,4.4557,4.5449,4.3027,4.4004,4.5019,4.4824,4.3071,4.1712,4.0994,4.0241,4.0116,4.0757,4.0977,4.1306,2.8001,0.0,0.0,0.0,0.0,2.5996,2.7305,2.9238,2.9258,2.832,2.6777,2.6309,0.0,0.0,0.0,0.0,0.0,0.0,2.802,2.9728,3.1873,3.313,3.3651,3.4505,3.4466,3.3646,3.4115,3.3253,3.1164,2.9494,2.6534,2.2441,0.0,0.0,0.0,0.0,2.8651,3.1455,3.3146,3.4266,3.4907,3.487,3.4412,3.3625,3.2597,3.1225,2.9451,2.8681,2.7451,2.5581,2.3899,0.0,0.0,0.0,0.0,0.0,0.0,0.0,0.0,0.0,0.0,0.0,0.0,0.0,0.0,0.0,0.0,0.0,0.0,0.0,1.9295,1.9927,2.1078,0.0,0.0,0.0,0.0,0.0,0.0,0.0,0.0,0.0,3.9964,4.1223,4.2381,0.0,0.0,4.4602,4.4628,4.4531,4.4726,4.5527,0.0,0.0,0.0,4.4347,4.4008,4.4816,4.5629,4.5919,4.5275,4.5809,4.6055,4.5273,4.5586,4.5937,4.5801,4.4457,4.3223,4.2888,4.3052,4.3337,4.3577,4.4053,4.4543,3.2116,3.09,2.8571,2.8215,2.9233,2.9584,3.0621,3.2085,3.2085,3.1577,3.0699,3.0033,2.8564,2.6554,2.5907,0.0,0.0,0.0,3.0571,3.2248,3.3542,3.4577,3.5345,3.6166,3.62,3.5592,3.5686,3.5038,3.3655,3.3422,3.1394,2.7729,0.0,0.0,2.7419,2.9034,3.0737,3.2457,3.3696,3.4431,3.4694,3.4694,3.4153,3.3026,3.2674,3.179,3.0316,2.9845,2.8998,2.7647,2.6,2.3938,0.0,0.0,0.0,0.0,0.0,0.0,0.0,0.0,0.0,0.0,0.0,1.5254,0.0,0.0,0.0,0.0,1.6389,1.9052,2.2636,2.3947,0.0,0.0,0.0,0.0,0.0,0.0,0.0,3.7763,4.0234,4.2226,4.3238,4.4132,4.4673,4.4685,4.516,4.5527,4.5508,0.0,4.5541,4.591,4.5925,4.5892,4.5834,4.4984,4.4666,4.5827,4.6177,4.6289,4.6289,4.6289,4.6289,4.6289,4.6289,4.6289,4.6289,4.541,4.4726,4.4687,4.5039,4.5351,4.5352,4.5724,4.6079,3.4532,3.4397,3.2125,3.1084,3.0994,3.1836,3.2205,3.2213,3.229,3.3133,3.4345,3.2815,3.2116,3.2006,3.0502,0.0,3.2295,3.2382,3.3273,3.4793,3.5504,3.6214,3.6964,3.7632,3.7792,3.7471,3.7775,3.7392,3.6384,3.5875,3.485,3.3306,3.1827,3.0979,3.0797,3.2272,3.2989,3.2901,3.4387,3.4964,3.4651,3.4632,3.4108,3.2971,3.2611,3.2051,3.1175,3.059,2.9886,2.901,2.7462,2.5504,2.3081,0.0,0.0,0.0,0.0,0.0,0.0,0.0,0.0,0.0,0.0,0.0,0.0,0.0,0.0,0.0,2.1999,0.0,2.709,2.9556,0.0,0.0,0.0,3.5037,3.538,3.8089,4.0329,4.1386,0.0,0.0,4.5099,0.0,4.6289,4.6289,4.6289,4.6289,4.6289,4.6269,4.6269,4.6244,4.6103,4.6026,4.6238,4.6005,4.5959,4.6231,4.6331,4.6601,4.6621,4.6601,4.6543,4.6465,4.6406,4.6387,4.6308,4.623,4.6289,4.6211,4.623,4.6269,4.623,4.625,4.6269,3.7103,3.7084,3.6498,3.5219,3.3665,3.4462,3.4783,3.4858,3.5507,3.5314,3.448,3.4063,3.3866,3.3801,3.4082,3.4759,3.5797,3.6367,3.6844,3.7224,3.7377,3.7417,3.7368,3.754,3.7452,3.7211,3.7274,3.728,3.7222,3.7085,3.6952,3.6785,3.6402,3.5245,3.3398,3.4092,3.4997,3.5984,3.5603,3.496,3.4049,3.4005,3.361,3.2716,3.2243,3.1339,3.0053,2.9464,2.8875,2.8206,2.7176,2.6013,2.4726,2.1522,0.0,0.0,0.0,0.0,0.0,0.0,0.0,0.0,0.0,2.1738,1.6777,0.0,2.3383,0.0,2.6119,2.8805,3.0688,3.204,0.0,0.0,3.7546,3.8557,4.1182,4.2174,4.3022,4.3983,4.5204,4.5968,4.5977,4.6169,4.6289,4.6289,4.6308,4.6289,4.6289,4.623,4.6381,4.694,4.6913,4.6972,4.7567,4.7776,4.7789,4.7865,4.8072,4.8281,4.8281,4.8262,4.8086,4.7461,4.7285,4.7031,4.6465,4.6289,4.6328,4.6289,4.6289,4.6289,4.6289,4.6289,4.6289,3.82,3.8007,3.8007,3.7257,3.6094,3.6555,3.6728,3.6757,3.7233,3.6906,3.6059,3.6051,3.6056,3.6027,3.6488,3.6993,3.7459,3.7873,3.805,3.807,3.8246,3.8244,3.808,3.8326,3.8288,3.8008,3.8127,3.803,3.7697,3.7806,3.7792,3.7599,3.7593,3.7076,3.6083,3.6069,3.6381,3.6906,3.5845,3.495,3.4339,3.3972,3.3421,3.2651,3.2078,3.128,3.0216,2.9212,2.8549,2.8274,2.7135,2.6436,2.6274,2.3609,2.1847,0.0,0.0,0.0,0.0,0.0,0.0,0.0,0.0,0.0,0.0,0.0,2.7565,0.0,3.0849,3.3255,3.5377,3.7022,3.8926,4.123,4.1738,4.2539,4.4062,4.4582,4.5006,4.5527,4.5996,4.6445,4.6816,4.6875,4.7031,4.7402,4.7461,4.7305,4.6953,4.6797,4.7057,4.7806,4.7859,4.7876,4.8355,4.8507,4.8588,4.8593,4.8761,4.8887,4.8887,4.8887,4.875,4.8281,4.8183,4.8027,4.7558,4.7461,4.7461,4.7422,4.7148,4.6758,4.6367,4.6289,4.6289,3.8719,3.8285,3.83,3.8285,3.8201,3.8251,3.817,3.8007,3.8123,3.808,3.7926,3.7894,3.7955,3.8097,3.8066,3.812,3.8272,3.8235,3.8204,3.8227,3.8688,3.8879,3.8858,3.9328,3.9364,3.9063,3.9333,3.8996,3.8085,3.8271,3.8054,3.7444,3.7421,3.7756,3.8362,3.7933,3.7399,3.6779,3.5818,3.5192,3.499,3.4321,3.3476,3.2504,3.2015,3.1372,3.0436,2.9319,2.8683,2.8655,2.7381,2.6998,2.7695,2.5718,2.4466,0.0,2.3043,0.0,0.0,0.0,0.0,0.0,0.0,0.0,0.0,3.0684,3.2559,3.3965,3.5791,3.7859,4.0175,4.248,4.3926,4.4062,4.5391,4.5996,4.5293,4.584,4.6348,4.6445,4.6465,4.6797,4.7617,4.7773,4.8066,4.8652,4.875,4.8574,4.8086,4.7851,4.8027,4.8769,4.8964,4.9077,4.9015,4.9022,4.9101,4.907,4.9247,4.9219,4.9316,4.9297,4.9219,4.9101,4.9062,4.9004,4.8945,4.8848,4.8848,4.875,4.8223,4.75,4.6738,4.6387,4.6289,4.0008,3.9736,3.9945,3.9752,3.9304,3.9585,3.9059,3.8046,3.8738,3.8492,3.7581,3.736,3.778,3.8594,3.8362,3.8785,3.9669,3.9413,3.9302,3.9321,3.941,3.9307,3.9064,3.9156,3.9054,3.8773,3.8833,3.8877,3.8875,3.891,3.9008,3.911,3.9131,3.9057,3.8939,0.0,0.0,0.0,3.7121,3.6358,3.5045,3.4844,3.377,3.1733,3.1746,0.0,2.8109,2.9087,2.9219,2.8153,2.8377,0.0,0.0,0.0,0.0,0.0,0.0,0.0,0.0,0.0,0.0,0.0,3.2461,3.209,3.0703,3.5156,3.8027,3.7734,4.0408,4.2439,4.293,4.4043,4.5039,4.5742,4.6113,4.623,4.6074,4.6211,4.6562,4.7266,4.7344,4.7695,4.8496,4.8652,4.8711,4.8945,4.8906,4.9121,4.9629,4.9082,4.9004,4.9746,5.0293,5.0644,5.0625,5.0612,5.0563,5.0754,5.0828,5.0879,5.082,5.0859,5.0605,5.0098,4.9961,4.9726,4.9082,4.8887,4.9004,4.8906,4.8769,4.8398,4.7519,4.6797,4.6289,4.0339,0.0,4.0232,4.0043,0.0,3.9775,3.9467,3.8823,3.9242,3.909,3.8536,3.8404,3.8657,3.9195,3.9188,3.9504,4.0081,3.9922,3.9844,3.9832,3.9514,3.9264,3.908,3.8961,3.8844,3.8689,3.8707,3.8743,3.8894,3.8913,3.9008,3.9154,3.9154,3.9082,3.8903,3.8921,3.8615,3.8102,3.7679,3.7092,3.6248,3.544,3.4202,3.2669,0.0,0.0,0.0,0.0,0.0,0.0,0.0,0.0,0.0,0.0,0.0,2.9268,2.9712,3.0039,3.0215,3.2187,3.3965,3.5234,3.6934,3.7187,3.5469,3.8906,4.1308,4.1758,4.3359,4.4531,4.4961,4.5391,4.582,4.625,4.6289,4.6289,4.6348,4.6699,4.7109,4.7539,4.7988,4.8574,4.9433,4.9551,4.9707,5.0058,5.0137,5.0273,5.0605,5.0078,4.9863,5.0644,5.1035,5.1269,5.1249,5.1277,5.1289,5.1306,5.1367,5.1387,5.1387,5.1387,5.125,5.0859,5.0801,5.0625,5.0273,5.0137,5.0117,5.0098,4.9824,4.9453,4.8906,4.7851,4.6953,4.0339,4.0101,4.0177,3.9903,3.9529,3.9576,3.9529,3.9451,0.0,0.0,0.0,3.9446,3.9447,3.9532,3.9743,3.9895,3.993,3.9863,3.9838,3.9817,3.9276,3.9036,3.9027,3.8803,3.8707,3.8707,3.8707,3.8707,3.8707,3.8707,3.8707,3.8707,3.8707,3.8707,3.8707,3.8707,3.8707,3.867,3.8046,3.7643,3.7459,3.6156,3.5009,3.4134,3.3578,3.297,3.2293,3.1821,3.1592,3.164,3.1115,3.1221,3.2063,3.2199,3.2651,3.3585,3.4508,3.5059,3.5176,3.6777,3.7891,3.8184,4.0469,4.1582,4.0859,4.207,4.3516,4.5098,4.5234,4.5527,4.623,4.6289,4.6289,4.6289,4.6289,4.6348,4.6543,4.7129,4.7695,4.8047,4.873,4.9453,5.0273,5.041,5.0625,5.1211,5.125,5.1387,5.1308,5.0801,5.0625,5.1191,5.1348,5.1387,5.1387,5.1387,5.1387,5.1387,5.1387,5.1387,5.1387,5.1387,5.1387,5.1348,5.1387,5.1348,5.1367,5.1269,5.1387,5.1387,5.0879,5.041,5.0273,4.916,4.8027,4.0356,4.012,4.0356,3.9945,3.9205,3.9462,3.932,3.8862,3.9063,3.9167,3.9167,3.8931,3.8952,3.9156,3.899,3.9008,3.9231,3.9003,3.8904,0.0,3.8805,3.8762,3.8762,3.8719,3.8707,3.8707,3.8707,3.8707,3.8707,3.8707,3.8707,3.8707,3.8707,3.8707,3.8707,3.8707,3.8707,3.8707,3.8579,3.8193,3.7526,3.7287,3.6546,3.5324,3.4689,3.3785,3.2609,3.335,3.3429,3.2741,3.3292,3.403,3.4831,3.425,3.432,3.5309,3.6179,3.6727,3.6953,3.8555,4.0156,4.1601,4.3398,4.4414,4.4297,4.4492,4.5058,4.6016,4.6074,4.6152,4.6289,4.6289,4.6289,4.6308,4.6308,4.6582,4.7285,4.7578,4.8223,4.9531,4.9922,5.0312,5.0976,5.1172,5.1191,5.1367,5.1387,5.1387,5.1367,5.1308,5.1269,5.1367,5.1387,5.1387,5.1387,5.1387,5.1387,5.1387,5.1387,5.1387,5.1387,5.1387,5.1387,5.1387,5.1387,5.1387,5.1387,5.1387,5.1387,5.1387,5.1211,5.1152,5.1113,5.0332,4.9297,4.0356,4.012,4.0232,3.9944,3.9364,3.9339,3.9082,3.8719,3.8815,3.8884,3.8884,3.875,3.8773,3.8868,3.8887,3.8976,3.9086,3.8971,3.8897,3.8903,3.8744,3.8707,3.8707,3.8707,3.8707,3.8707,3.8707,3.8707,3.8707,3.8707,3.8707,3.8707,3.8707,3.8707,3.8707,3.8707,3.8707,3.8707,3.8707,3.8524,3.8138,3.7876,3.7421,3.6814,3.644,3.5964,3.536,3.5929,3.6084,3.5681,3.6031,3.6444,3.6815,3.6483,3.6516,3.7088,3.7945,3.8509,3.869,4.0293,4.1992,4.3672,4.4531,4.5215,4.5683,4.5723,4.5859,4.625,4.6289,4.6289,4.6289,4.6289,4.6289,4.6289,4.6699,4.7148,4.7617,4.8516,4.9336,5.0098,5.0586,5.0976,5.1367,5.1387,5.1387,5.1387,5.1387,5.1387,5.1387,5.1387,5.1387,5.1387,5.1387,5.1387,5.1387,5.1387,5.1387,5.1387,5.1387,5.1387,5.1387,5.1387,5.1387,5.1387,5.1387,5.1387,5.1387,5.1387,5.1387,5.1387,5.1387,5.1387,5.1308,5.0762,4.9629,4.0372,4.0195,4.0177,4.0022,3.9668,3.9264,3.8971,3.8773,3.8719,3.8707,3.8707,3.8707,3.8707,3.8701,3.8915,3.9017,3.9013,3.9008,3.9017,3.8989,3.8799,3.8707,3.8707,3.8707,3.8707,3.8707,3.8707,3.8707,3.8707,3.8707,3.8707,3.8707,3.8707,3.8707,3.8707,3.8707,3.8707,3.8707,3.8707,3.8719,3.8785,3.8377,3.824,3.8364,3.8045,3.7923,3.7982,3.8009,3.7998,3.7993,3.7983,3.8094,3.8277,3.8277,3.8464,3.8883,3.9669,4.0342,4.0801,4.2129,4.3574,4.4883,4.5176,4.5586,4.6191,4.6289,4.6289,4.6289,4.6289,4.6289,4.6289,4.6289,4.6367,4.6601,4.7168,4.7773,4.8242,4.9414,5.0312,5.0488,5.1035,5.1367,5.1387,5.1387,5.1387,5.1387,5.1387,5.1387,5.1387,5.1387,5.1387,5.1387,5.1387,5.1387,5.1387,5.1387,5.1387,5.1387,5.1387,5.1387,5.1387,5.1387,5.1387,5.1387,5.1387,5.1387,5.1387,5.1387,5.1387,5.1387,5.1387,5.1387,5.1367,5.0957,5.0058,4.0489,4.0473,4.0457,4.0302,3.9963,3.9364,3.9099,3.9008,3.8803,3.8707,3.8707,3.8707,3.8707,3.8689,3.8732,3.8768,3.8744,3.875,3.875,3.8726,3.8707,3.8707,3.8707,3.8707,3.8707,3.8707,3.8707,3.8707,3.8707,3.8707,3.8707,3.8707,3.8707,3.8707,3.8707,3.8707,3.8707,3.8707,3.8707,3.8815,3.9044,3.901,3.9274,3.9869,3.9107,3.8836,3.91,3.8424,3.8001,3.7993,3.8055,3.8401,3.9065,3.9191,3.9576,4.0496,4.1351,4.2283,4.3262,4.4238,4.4785,4.5039,4.5723,4.6172,4.6289,4.6289,4.6289,4.6289,4.6289,4.6289,4.6289,4.6289,4.6601,4.7285,4.7558,4.8183,4.9551,5.0098,5.0469,5.123,5.1328,5.1387,5.1387,5.1387,5.1387,5.1387,5.1387,5.1387,5.1387,5.1387,5.1387,5.1387,5.1387,5.1387,5.1387,5.1387,5.1387,5.1387,5.1387,5.1387,5.1387,5.1387,5.1387,5.1387,5.1387,5.1387,5.1387,5.1387,5.1387,5.1387,5.1387,5.1387,5.1387,5.1269,5.0742,4.0489,4.0489,4.0489,4.0356,4.0062,3.9797,3.9462,3.9099,3.8971,3.8873,3.8707,3.8707,3.8707,3.8707,3.8707,3.8707,3.8707,3.8707,3.8707,3.8707,3.8707,3.8707,3.8707,3.8707,3.8707,3.8707,3.8707,3.8707,3.8707,3.8707,3.8707,3.8707,3.8707,3.8707,3.8707,3.8707,3.8792,3.8933,3.8934,3.9149,3.9588,3.9483,3.9623,4.0024,3.9891,3.9867,3.9973,3.9646,3.9492,3.9469,3.9473,3.9646,3.9988,4.0004,4.0481,4.1508,4.2499,4.3476,4.4394,4.4824,4.5215,4.5723,4.6094,4.6289,4.6289,4.6289,4.6289,4.6289,4.6289,4.6289,4.6289,4.6289,4.6641,4.748,4.8047,4.8867,5.0039,5.0625,5.1074,5.1367,5.1387,5.1387,5.1387,5.1387,5.1387,5.1387,5.1387,5.1387,5.1387,5.1387,5.1387,5.1387,5.1387,5.1387,5.1387,5.1387,5.1387,5.1387,5.1387,5.1387,5.1387,5.1387,5.1387,5.1387,5.1387,5.1387,5.1387,5.1387,5.1387,5.1387,5.1387,5.1387,5.1387,5.1328,5.0967,4.0489,4.0489,4.0489,4.0408,4.0214,4.012,3.9819,3.9364,3.9205,3.8999,3.8833,3.875,3.8707,3.8707,3.8707,3.8707,3.8707,3.8707,3.8707,3.8707,3.8707,3.8707,3.8707,3.8707,3.8707,3.8707,3.8707,3.8707,3.8707,3.8707,3.8707,3.8707,3.8707,3.8707,3.8701,3.8778,3.8887,3.9099,3.9177,3.9532,3.9986,3.9859,3.989,4.0193,4.0389,4.0489,4.0489,4.0489,4.0489,4.0489,4.0489,4.0604,4.0854,4.0873,4.1422,4.269,4.3587,4.4453,4.5293,4.5351,4.5625,4.6211,4.6289,4.6289,4.6289,4.6289,4.6289,4.6289,4.6289,4.6289,4.6308,4.6523,4.7031,4.7871,4.873,4.959,5.0449,5.1094,5.1367,5.1387,5.1387,5.1387,5.1387,5.1387,5.1387,5.1387,5.1387,5.1387,5.1387,5.1387,5.1387,5.1387,5.1387,5.1387,5.1387,5.1387,5.1387,5.1387,5.1387,5.1387,5.1387,5.1387,5.1387,5.1387,5.1387,5.1387,5.1387,5.1387,5.1387,5.1387,5.1387,5.1387,5.1387,5.1172,5.0668,4.0489,4.0489,4.0489,4.0508,4.0457,4.0213,4.0081,3.9962,3.9389,3.908,3.9036,3.8833,3.8689,3.8707,3.8707,3.8707,3.8707,3.8707,3.8707,3.8707,3.8707,3.8707,3.8707,3.8707,3.8707,3.8707,3.8707,3.8707,3.8707,3.8707,3.8707,3.8707,3.8707,3.8689,3.8766,3.8962,3.9102,3.9182,3.9471,3.9753,4.0063,4.0087,4.0204,4.0511,4.0508,4.0489,4.0489,4.0489,4.0489,4.0489,4.0546,4.0893,4.1604,4.1761,4.2652,4.4262,4.4785,4.5312,4.6055,4.6172,4.6211,4.6289,4.6289,4.6289,4.6289,4.6289,4.6289,4.6289,4.6289,4.6289,4.6367,4.6953,4.7773,4.8652,4.957,5.041,5.1211,5.1308,5.1387,5.1387,5.1387,5.1387,5.1387,5.1387,5.1387,5.1387,5.1387,5.1387,5.1387,5.1387,5.1387,5.1387,5.1387,5.1387,5.1387,5.1387,5.1387,5.1387,5.1387,5.1387,5.1387,5.1387,5.1387,5.1387,5.1387,5.1387,5.1387,5.1387,5.1387,5.1387,5.1387,5.1387,5.1348,5.0605,5.0024,4.0489,4.0489,4.0489,4.0489,4.0489,4.0389,4.0269,4.0081,3.984,3.9486,3.9125,3.8999,3.8855,3.8707,3.8707,3.8707,3.8707,3.8707,3.8707,3.8707,3.8707,3.8707,3.8707,3.8707,3.8707,3.8707,3.8707,3.8707,3.8707,3.8707,3.8707,3.8707,3.8707,3.877,3.8936,3.9062,3.9297,3.9716,3.9886,4.0063,4.0358,4.0361,4.0662,4.1258,4.0777,4.0489,4.0489,4.0489,4.0489,4.0489,4.1011,4.1473,4.1873,4.2986,4.3939,4.4668,4.541,4.5976,4.625,4.6289,4.6289,4.6289,4.6289,4.6289,4.6289,4.6289,4.6289,4.6289,4.6289,4.6289,4.6465,4.709,4.7949,4.8808,4.9687,5.0547,5.1172,5.1387,5.1387,5.1387,5.1387,5.1387,5.1387,5.1387,5.1387,5.1387,5.1387,5.1387,5.1387,5.1387,5.1387,5.1387,5.1387,5.1387,5.1387,5.1387,5.1387,5.1387,5.1387,5.1387,5.1387,5.1387,5.1387,5.1387,5.1387,5.1387,5.1387,5.1387,5.1387,5.1387,5.1387,5.1308,5.1269,5.0332,4.9567,4.0489,4.0489,4.0489,4.0489,4.0489,4.0489,4.0408,4.0213,4.0158,3.9859,3.9457,3.9314,3.909,3.8862,3.8823,3.8762,3.8707,3.8707,3.8707,3.8707,3.8707,3.8707,3.8707,3.8707,3.8707,3.8707,3.8707,3.8707,3.8707,3.8707,3.8744,3.8817,3.8817,3.898,3.926,3.9624,4.0058,4.0444,4.0845,4.1165,4.1319,4.1354,4.1604,4.2047,4.1643,4.1351,4.1347,4.1347,4.1331,4.1412,4.1918,4.236,4.2761,4.4198,4.5098,4.5235,4.5859,4.6289,4.6289,4.6289,4.6289,4.6289,4.6289,4.6289,4.6289,4.6289,4.6289,4.6289,4.6253,4.6216,4.6465,4.7266,4.8203,4.8926,4.9902,5.0781,5.1308,5.1387,5.1387,5.1387,5.1387,5.1387,5.1387,5.1387,5.1387,5.1387,5.1387,5.1387,5.1387,5.1387,5.1387,5.1387,5.1387,5.1387,5.1387,5.1387,5.1387,5.1387,5.1387,5.1387,5.1387,5.1387,5.1387,5.1387,5.1387,5.1387,5.1387,5.1387,5.1387,5.1387,5.1289,5.1191,5.0683,4.9922,4.9071,4.0489,4.0489,4.0489,4.0489,4.0489,4.0489,4.0489,4.0422,4.0213,4.0101,3.9941,3.9731,3.9389,3.9109,3.9036,3.8958,3.8726,3.8707,3.8707,3.8707,3.8707,3.8707,3.8707,3.8707,3.8707,3.8707,3.8707,3.8707,3.8707,3.8707,3.8817,3.9032,3.9068,3.9295,3.9664,4.0578,4.1224,4.1514,4.2312,4.2896,4.3066,4.2893,4.2931,4.3085,4.3028,4.3025,4.3073,4.3015,4.2848,4.2951,4.3052,4.3553,4.4357,4.531,4.5924,4.5984,4.6216,4.6289,4.6289,4.6289,4.6289,4.6289,4.6289,4.6289,4.6289,4.6289,4.6289,4.625,4.6173,4.6087,4.6339,4.7519,4.8574,4.9023,5.0254,5.125,5.1367,5.1387,5.1387,5.1387,5.1387,5.1387,5.1387,5.1387,5.1387,5.1387,5.1387,5.1387,5.1387,5.1387,5.1387,5.1387,5.1387,5.1387,5.1387,5.1387,5.1387,5.1387,5.1387,5.1387,5.1387,5.1387,5.1387,5.1387,5.1348,5.1348,5.1328,5.1328,5.1308,5.1289,5.1172,5.0859,5.0195,4.9396,4.8319,4.0489,4.0489,4.0489,4.0489,4.0489,4.0489,4.0489,4.0489,4.0389,4.027,4.0099,3.9981,3.9649,3.9186,3.9076,3.8958,3.8726,3.8707,3.8707,3.8707,3.8707,3.8707,3.8707,3.8707,3.8707,3.8707,3.8707,3.8707,3.8689,3.8689,3.8817,3.9068,3.91,3.9712,4.0712,4.1142,4.1637,4.2501,4.2879,4.3085,4.3085,4.3104,4.3374,4.3855,4.3948,4.4218,4.485,4.3778,4.3129,4.3169,4.363,4.4359,4.5252,4.5711,4.5957,4.6082,4.6235,4.6289,4.6289,4.6289,4.6289,4.6289,4.6289,4.6289,4.6289,4.6289,4.6257,4.6183,4.6117,4.6074,4.621,4.7047,4.8035,4.8711,5.0312,5.1367,5.1387,5.1387,5.1387,5.1387,5.1387,5.1387,5.1387,5.1387,5.1387,5.1387,5.1387,5.1387,5.1387,5.1387,5.1387,5.1387,5.1387,5.1387,5.1387,5.1387,5.1387,5.1387,5.1387,5.1387,5.1387,5.1367,5.1367,5.1348,5.1308,5.1268,5.1259,5.1256,5.1238,5.0941,5.0644,5.0215,4.9707,4.8793,4.7673,4.0489,4.0489,4.0489,4.0489,4.0489,4.0489,4.0489,4.0489,4.0489,4.0392,4.0252,4.0252,3.9967,3.9535,3.9349,3.9121,3.8848,3.8744,3.8707,3.8707,3.8707,3.8707,3.8707,3.8707,3.8762,3.8844,3.8826,3.8913,3.9055,3.9027,3.9201,3.9427,3.9757,4.0435,4.1502,4.2132,4.2859,4.3489,4.3874,4.4028,4.4028,4.4028,4.4278,4.4701,4.4795,4.5141,4.568,4.4684,4.4109,4.4186,4.4607,4.5182,4.5774,4.5916,4.6026,4.6153,4.625,4.6289,4.6289,4.6289,4.6289,4.6289,4.6289,4.6269,4.625,4.623,4.6183,4.6061,4.6012,4.595,4.6025,4.6754,4.7551,4.8066,4.9805,5.0996,5.1289,5.1387,5.1387,5.1387,5.1387,5.1387,5.1387,5.1387,5.1387,5.1387,5.1387,5.1387,5.1387,5.1387,5.1387,5.1387,5.1387,5.1387,5.1387,5.1387,5.1387,5.1387,5.1387,5.1387,5.1387,5.1308,5.1289,5.125,5.1211,5.1192,5.1186,5.1146,5.1102,5.0636,5.0012,4.9446,4.8833,4.8009,4.7024,4.0489,4.0489,4.0489,4.0489,4.0489,4.0489,4.0489,4.0489,4.0489,4.0508,4.0492,4.0457,4.0323,4.0053,3.9743,3.9452,3.9123,3.8854,3.8768,3.8756,3.8768,3.8762,3.8762,3.8833,3.8952,3.9117,3.9125,3.9282,3.95,3.95,3.9764,4.0047,4.0616,4.1468,4.2044,4.3455,4.4068,4.4412,4.5086,4.5413,4.5413,4.547,4.547,4.5509,4.5526,4.5622,4.5738,4.5616,4.5635,4.5738,4.5661,4.5731,4.5899,4.602,4.6138,4.6269,4.6289,4.6289,4.6289,4.6289,4.6289,4.6289,4.6269,4.6226,4.6143,4.6128,4.6085,4.5949,4.5877,4.5853,4.5988,4.6544,4.7105,4.7461,4.9023,5.0332,5.1172,5.1269,5.125,5.1348,5.1387,5.1387,5.1387,5.1387,5.1387,5.1387,5.1387,5.1387,5.1387,5.1387,5.1387,5.1387,5.1387,5.1387,5.1387,5.1387,5.1367,5.125,5.1191,5.1074,5.1218,5.1194,5.096,5.0959,5.0856,5.0923,5.0739,5.0438,5.0205,4.9702,4.9119,4.8564,4.7912,4.716,4.6583,4.0489,4.0489,4.0489,4.0489,4.0489,4.0489,4.0489,4.0489,4.0489,4.0489,4.0489,4.0489,4.0354,4.0114,4.0024,3.9795,3.9443,3.9137,3.8995,3.8983,3.8979,3.9017,3.9054,3.9249,3.9383,3.9481,3.9462,3.9529,3.9599,3.9645,3.9797,4.0084,4.041,4.1295,4.2619,4.3188,4.409,4.5086,4.5413,4.5566,4.5586,4.5586,4.5586,4.5586,4.5699,4.5776,4.5868,4.5874,4.586,4.5813,4.5815,4.5835,4.5908,4.6041,4.6166,4.6269,4.6289,4.6289,4.6289,4.6289,4.6289,4.6289,4.6208,4.6148,4.6116,4.6103,4.6037,4.5943,4.5982,4.5969,4.595,4.6179,4.6651,4.7383,4.8418,4.9492,5.0273,5.0527,5.0703,5.1269,5.1308,5.1269,5.1308,5.125,5.1269,5.1308,5.125,5.1211,5.1055,5.1094,5.0976,5.1269,5.1348,5.1387,5.1387,5.1387,5.1308,5.1113,5.0879,5.0527,5.0728,5.0947,5.0621,5.0342,4.9997,4.9944,4.9351,4.885,4.8663,4.8759,4.8143,4.7567,4.7124,4.6508,4.6123,4.0489,4.0489,4.0489,4.0489,4.0489,4.0489,4.0489,4.0489,4.0489,4.0489,4.0489,4.0489,4.0412,4.0265,4.0138,3.9996,3.9787,3.9452,3.9298,3.933,3.9483,3.9457,3.9389,3.9552,3.9668,3.9816,3.9819,3.9882,3.9984,3.9984,4.0099,4.0347,4.0634,4.1437,4.2362,4.2994,4.3705,4.4797,4.5066,4.5182,4.5547,4.5586,4.5624,4.568,4.5757,4.5834,4.5962,4.5987,4.5953,4.5857,4.5849,4.5854,4.5913,4.6072,4.6215,4.6289,4.6289,4.6289,4.6289,4.6289,4.6289,4.6269,4.618,4.6073,4.6026,4.6007,4.5969,4.589,4.5969,4.595,4.5907,4.5924,4.6222,4.668,4.7303,4.8167,4.9412,4.9629,4.9844,5.0195,5.0351,5.0547,5.0781,5.0605,5.0605,5.0664,5.0391,5.0312,5.0234,5.0371,5.0469,5.0566,5.0547,5.0371,5.0312,5.0312,5.0177,5.0091,4.9909,4.9622,4.97,5.0029,4.974,4.9296,4.9086,4.8798,4.8279,4.7895,4.7971,4.7836,4.7201,4.674,4.6374,4.6182,4.5778,4.0489,4.0489,4.0489,4.0489,4.0508,4.0527,4.0546,4.0527,4.0527,4.0527,4.0527,4.0508,4.0489,4.0508,4.0285,4.0154,4.012,3.9785,3.9671,3.9728,3.988,3.9901,3.9778,3.9778,3.9924,4.0101,4.012,4.025,4.0336,4.0441,4.0473,4.0575,4.1184,4.162,4.2002,4.2582,4.3393,4.4239,4.4451,4.4874,4.5432,4.5586,4.5661,4.5776,4.5834,4.595,4.6082,4.6096,4.6026,4.5928,4.5911,4.5931,4.5949,4.6171,4.6289,4.6289,4.6289,4.6289,4.6289,4.6289,4.6289,4.6269,4.6173,4.6075,4.5982,4.5969,4.595,4.5873,4.5892,4.593,4.5888,4.5848,4.5881,4.6072,4.6046,4.679,4.7933,4.8586,4.8746,4.8867,4.8887,4.9277,4.9551,4.9512,4.918,4.9922,4.9707,4.959,4.9512,4.9551,4.9492,4.9375,4.9277,4.9082,4.9062,4.9062,4.8902,4.8736,4.8521,4.8295,4.8123,4.8278,4.8278,4.8125,4.8086,4.7894,4.7528,4.7375,4.7299,4.7049,4.6528,4.6164,4.5876,4.5855,4.5586,4.0489,4.0489,4.0489,4.0546,4.0658,4.0658,4.0639,4.0673,4.062,4.0519,4.062,4.0527,4.0489,4.0489,4.0422,4.0399,4.0342,4.0101,4.0002,4.0002,4.0061,4.0213,4.0248,4.0266,4.0319,4.0389,4.0425,4.0441,4.0489,4.0489,4.0489,4.0566,4.0754,4.1135,4.1732,4.1944,4.2852,4.3989,4.4259,4.4586,4.5278,4.549,4.5622,4.5796,4.5962,4.61,4.619,4.6142,4.6091,4.6081,4.6063,4.6056,4.6079,4.622,4.6289,4.6289,4.6289,4.6289,4.6289,4.6289,4.6289,4.6289,4.6191,4.6076,4.6078,4.6063,4.6046,4.6065,4.6142,4.6123,4.6005,4.5921,4.5844,4.5827,4.5877,4.6018,4.6477,4.7126,4.7786,4.8302,4.8493,4.8689,4.8962,4.8808,4.875,4.9082,4.8984,4.8867,4.875,4.8633,4.8516,4.8301,4.834,4.824,4.8171,4.8097,4.7842,4.7642,4.7366,4.718,4.7008,4.7104,4.7317,4.7298,4.7182,4.6951,4.6721,4.6413,4.6278,4.6067,4.5972,4.5836,4.5701,4.5605,4.5513,3.9396,3.9458,3.9477,3.9496,3.9561,3.958,3.9603,3.9623,3.9584,3.9824,4.01,4.0031,4.02,4.0546,4.0508,4.0489,4.0473,4.0372,4.0304,4.0304,4.0304,4.0392,4.0457,4.0489,4.0489,4.0489,4.0489,4.0489,4.0489,4.0489,4.0489,4.0489,4.0489,4.0716,4.1101,4.1212,4.1851,4.2797,4.3162,4.3547,4.4297,4.4874,4.5468,4.5851,4.6106,4.6231,4.6275,4.6238,4.6199,4.6191,4.6172,4.6159,4.6136,4.623,4.6289,4.6289,4.6289,4.6289,4.6289,4.6289,4.6289,4.6289,4.6191,4.6133,4.6115,4.6118,4.6046,4.6065,4.6103,4.6123,4.5969,4.5834,4.5757,4.5738,4.5738,4.5738,4.5815,4.6256,4.6715,4.7174,4.7198,4.752,4.7708,4.78,4.7832,4.793,4.7422,4.7305,4.7324,4.7226,4.7363,4.7324,4.7461,4.7455,4.7366,4.7179,4.6862,4.6656,4.6446,4.6277,4.6142,4.6355,4.6663,4.6567,4.6451,4.6201,4.597,4.5624,4.5586,4.5701,4.574,4.5624,4.555,4.5458,4.5341,3.8161,3.819,3.8267,3.8296,3.8296,3.838,3.8438,3.8416,3.8338,3.8866,3.9284,3.9301,3.9673,4.0331,4.0354,4.0392,4.0546,4.0546,4.0534,4.0534,4.0534,4.0569,4.0566,4.0566,4.0546,4.0527,4.0508,4.0489,4.0489,4.0489,4.0489,4.0489,4.0489,4.0546,4.0527,4.0546,4.1085,4.197,4.2104,4.2489,4.322,4.397,4.4718,4.5314,4.5818,4.5937,4.6016,4.6133,4.6289,4.6289,4.6299,4.6234,4.6177,4.623,4.6289,4.6289,4.6289,4.6289,4.6289,4.6289,4.6289,4.6289,4.6172,4.6133,4.614,4.6133,4.6053,4.6007,4.6007,4.5969,4.5815,4.5699,4.5624,4.5605,4.5586,4.5586,4.5624,4.5757,4.5962,4.5982,4.6268,4.6564,4.6646,4.6686,4.6727,4.6689,4.6212,4.5927,4.603,4.6152,4.6445,4.6543,4.6699,4.6745,4.6667,4.6641,4.6294,4.6103,4.5815,4.5738,4.5605,4.5855,4.6105,4.5893,4.574,4.5624,4.5624,4.5605,4.5586,4.5586,4.5586,4.5549,4.5438,4.5277,4.5156,3.8015,3.7676,3.8112,3.8326,3.8358,3.8363,3.8343,3.8524,3.8301,3.8457,3.8564,3.8551,3.8969,3.9581,3.9762,4.0085,4.0414,4.0496,4.0617,4.0646,4.0684,4.0723,4.0718,4.0714,4.0703,4.0658,4.0566,4.0527,4.0489,4.0489,4.0489,4.0489,4.0489,4.0489,4.0489,4.0527,4.0873,4.1527,4.17,4.2124,4.2758,4.3258,4.3689,4.4287,4.4899,4.5176,4.541,4.5898,4.6289,4.6289,4.6289,4.6269,4.625,4.6269,4.6289,4.6289,4.6289,4.6289,4.6289,4.6289,4.6289,4.6269,4.6162,4.6166,4.6189,4.6153,4.6053,4.6007,4.5911,4.5834,4.5815,4.568,4.5605,4.5586,4.5586,4.5586,4.5605,4.5661,4.5699,4.5699,4.5719,4.5757,4.5957,4.6066,4.6164,4.6238,4.6021,4.5852,4.5929,4.5971,4.6055,4.6074,4.6035,4.6018,4.595,4.6007,4.5911,4.5853,4.5663,4.5663,4.5586,4.5586,4.5586,4.5586,4.5586,4.5605,4.5605,4.5586,4.5586,4.5586,4.5549,4.5513,4.5321,4.5113,4.4915,3.6923,3.6754,3.7012,3.7133,3.7155,3.7168,3.7181,3.7246,3.7187,3.7422,3.7695,3.777,3.8157,3.8791,3.8938,3.917,3.9514,4.003,4.015,4.0225,4.0579,4.0812,4.0792,4.0792,4.0792,4.0745,4.0679,4.06,4.0489,4.0489,4.0489,4.0489,4.0489,4.0489,4.0489,4.0508,4.0758,4.12,4.1293,4.1466,4.2005,4.239,4.2965,4.3627,4.4004,4.4297,4.4492,4.5176,4.5605,4.5703,4.6055,4.625,4.623,4.6211,4.6211,4.625,4.6269,4.6289,4.6269,4.626,4.6191,4.6172,4.608,4.6034,4.6053,4.6018,4.6005,4.593,4.5815,4.5699,4.5699,4.5624,4.5586,4.5586,4.5586,4.5586,4.5586,4.5586,4.5586,4.5586,4.5624,4.568,4.568,4.5755,4.5738,4.5738,4.5738,4.5796,4.5834,4.5844,4.5852,4.5861,4.5853,4.5815,4.5776,4.5738,4.5738,4.5661,4.5586,4.5586,4.5586,4.5586,4.5586,4.5586,4.5586,4.5586,4.5586,4.5586,4.5586,4.5586,4.555,4.5438,4.5201,4.4943,4.4688,3.5894,3.5951,3.5932,3.5955,3.5976,3.5976,3.6016,3.6016,3.6074,3.6426,3.6953,3.6973,3.7365,3.8043,3.8332,3.8429,3.8422,3.917,3.9367,3.9569,4.0208,4.0604,4.0617,4.0809,4.0874,4.084,4.0835,4.0735,4.06,4.0546,4.0527,4.0508,4.0489,4.0527,4.0546,4.0546,4.062,4.0673,4.0709,4.0747,4.1054,4.1624,4.2382,4.3164,4.334,4.3437,4.3535,4.4277,4.4687,4.4902,4.5273,4.5703,4.5742,4.5801,4.5879,4.598,4.6108,4.6189,4.6195,4.6122,4.6059,4.6059,4.5958,4.5891,4.5885,4.5918,4.5873,4.5796,4.5699,4.5605,4.5605,4.5586,4.5586,4.5586,4.5586,4.5586,4.5586,4.5586,4.5586,4.5586,4.5586,4.5605,4.5624,4.5624,4.5661,4.5661,4.568,4.568,4.5738,4.5738,4.5746,4.5777,4.5776,4.5757,4.5719,4.568,4.5661,4.5605,4.5586,4.5586,4.5586,4.5586,4.5586,4.5586,4.5586,4.5586,4.5586,4.5586,4.5586,4.5586,4.555,4.5362,4.4982,4.4632,4.4327,3.5788,3.5735,3.5735,3.5798,3.5898,3.5918,3.5957,3.5976,3.5996,3.6035,3.6269,3.6211,3.668,3.7383,3.8164,3.8437,3.8514,3.8574,3.8649,3.875,3.951,3.9937,4.0088,4.0844,4.0786,4.0765,4.0846,4.0862,4.0727,4.0669,4.062,4.0546,4.0527,4.0546,4.0658,4.0658,4.0716,4.0776,4.0776,4.0837,4.0968,4.1171,4.141,4.1719,4.2187,4.2558,4.2676,4.3359,4.3828,4.3867,4.3984,4.4026,4.4024,4.4621,4.4844,4.5112,4.5457,4.5952,4.5951,4.5954,4.593,4.593,4.5838,4.5847,4.5832,4.5815,4.5796,4.5815,4.5699,4.5605,4.5586,4.5586,4.5586,4.5586,4.5586,4.5586,4.5586,4.5586,4.5586,4.5586,4.5586,4.5586,4.5605,4.5586,4.5586,4.5586,4.5586,4.5605,4.5624,4.5661,4.5661,4.5699,4.5719,4.568,4.568,4.5624,4.5605,4.5586,4.5586,4.5586,4.5586,4.5586,4.5586,4.5586,4.5586,4.5586,4.5586,4.5586,4.5586,4.5531,4.5438,4.5128,4.4699,4.4365,4.4039,3.5657,3.5695,3.5706,3.5747,3.5806,3.5882,3.5918,3.5937,3.5976,3.6016,3.6016,3.6016,3.623,3.668,3.7031,3.709,3.7187,3.7586,3.7743,3.7891,3.8546,3.9005,3.9101,3.9459,3.9735,4.0329,4.044,4.063,4.0673,4.0775,4.0735,4.0677,4.0677,4.0696,4.0752,4.075,4.0812,4.0893,4.0991,4.1072,4.1097,4.1113,4.1133,4.1211,4.1562,4.1699,4.1933,4.25,4.293,4.3047,4.3309,4.3626,4.362,4.3812,4.3877,4.3929,4.457,4.5228,4.5767,4.5815,4.5853,4.5815,4.5757,4.5699,4.5738,4.5719,4.5699,4.5699,4.5624,4.5586,4.5586,4.5586,4.5586,4.5586,4.5586,4.5586,4.5586,4.5586,4.5586,4.5586,4.5586,4.5586,4.5586,4.5586,4.5586,4.5586,4.5586,4.5586,4.5605,4.5605,4.5605,4.5605,4.5605,4.5605,4.5605,4.5586,4.5605,4.5586,4.5586,4.5586,4.5586,4.5586,4.5586,4.5586,4.5586,4.5586,4.5586,4.5586,4.5586,4.5457,4.5322,4.4941,4.4578,4.425,4.3955,3.4782,3.5045,3.5449,3.5661,3.5682,3.5781,3.582,3.5859,3.5898,3.5918,3.5929,3.5937,3.5937,3.5976,3.6055,3.6152,3.6035,3.659,3.6736,3.6986,3.7482,3.7968,3.8181,3.8313,3.886,3.9524,3.9862,4.0135,4.0513,4.08,4.0897,4.0823,4.0773,4.0803,4.0839,4.0856,4.0927,4.1053,4.1133,4.1172,4.1191,4.1191,4.1191,4.1191,4.1211,4.1191,4.125,4.166,4.2031,4.209,4.2401,4.2628,4.2641,4.2806,4.2879,4.3028,4.3597,4.4295,4.4947,4.5334,4.5661,4.5719,4.568,4.5624,4.5605,4.5586,4.5586,4.5605,4.5586,4.5586,4.5586,4.5586,4.5586,4.5586,4.5586,4.5586,4.5586,4.5586,4.5586,4.5586,4.5586,4.5586,4.5586,4.5586,4.5586,4.5586,4.5586,4.5586,4.5586,4.5586,4.5586,4.5586,4.5586,4.5586,4.5586,4.5586,4.5586,4.5586,4.5586,4.5586,4.5586,4.5586,4.5586,4.5586,4.5586,4.5586,4.5586,4.5586,4.5566,4.5342,4.5091,4.4786,4.4473,4.4119,4.3862,3.2628,3.3218,3.4834,3.5468,3.5526,3.5605,3.564,3.5619,3.5704,3.5743,3.5762,3.5729,3.5806,3.5859,3.5879,3.5898,3.5898,3.5976,3.5991,3.6194,3.6633,3.7011,3.7249,3.7677,3.8195,3.8544,3.8963,3.9427,3.994,4.0394,4.0657,4.0833,4.0759,4.0855,4.0957,4.0996,4.1035,4.1133,4.117,4.1172,4.1191,4.1191,4.1172,4.1191,4.1191,4.1133,4.1035,4.1191,4.1232,4.1156,4.1301,4.1366,4.152,4.1758,4.1899,4.2082,4.2597,4.3136,4.3558,4.4685,4.549,4.5586,4.5605,4.5586,4.5586,4.5586,4.5586,4.5586,4.5586,4.5586,4.5586,4.5586,4.5586,4.5586,4.5586,4.5586,4.5586,4.5586,4.5586,4.5586,4.5586,4.5586,4.5586,4.5586,4.5586,4.5586,4.5586,4.5586,4.5586,4.5586,4.5586,4.5586,4.5586,4.5586,4.5586,4.5586,4.5586,4.5586,4.5586,4.5586,4.5586,4.5586,4.5586,4.5586,4.5586,4.5586,4.5568,4.5513,4.5381,4.5132,4.4876,4.4597,4.4242,4.385,4.3689,3.2417,3.2968,3.3641,3.393,3.3987,3.4557,3.4809,3.4955,3.5441,3.5693,3.5665,3.5704,3.5718,3.576,3.5781,3.5762,3.5723,3.5703,3.5644,3.5661,3.5925,3.6078,3.6312,3.6574,3.6886,3.7441,3.7927,3.8403,3.8896,3.9418,3.9372,3.958,4.0351,4.0968,4.1113,4.1074,4.1152,4.1133,4.1125,4.111,4.1172,4.1113,4.1113,4.1191,4.1191,4.1133,4.1035,4.0996,4.0931,4.0824,4.077,4.07,4.063,4.0875,4.095,4.1042,4.1571,4.1812,4.2335,4.3675,4.4932,4.5528,4.5586,4.5586,4.5566,4.5586,4.5586,4.5586,4.5586,4.5586,4.5586,4.5586,4.5586,4.5586,4.5589,4.5553,4.555,4.5513,4.5586,4.5586,4.5586,4.5586,4.5586,4.5586,4.5586,4.5586,4.5586,4.5586,4.5586,4.5586,4.5586,4.5586,4.5586,4.5586,4.5586,4.5586,4.5586,4.5586,4.5586,4.5549,4.5531,4.5586,4.5586,4.5586,4.5586,4.5568,4.5513,4.5381,4.5207,4.5032,4.4741,4.4405,4.4015,4.3615,4.3542,3.1744,3.2141,3.2179,3.2449,3.2949,3.3596,3.3884,3.3999,3.4526,3.5045,3.5257,3.5488,3.5661,3.5659,3.5664,3.5664,3.5625,3.5618,3.5579,3.5565,3.5565,3.5526,3.5565,3.5699,3.6015,3.6445,3.6829,3.727,3.7588,3.802,3.8324,3.8809,3.9551,4.0176,4.082,4.1094,4.1172,4.1123,4.1091,4.1001,4.1055,4.0996,4.0996,4.1094,4.1094,4.1016,4.0937,4.0893,4.0814,4.0731,4.0642,4.0572,4.0452,4.0307,4.0195,4.0272,4.0409,4.0615,4.124,4.2562,4.4112,4.4767,4.5107,4.526,4.549,4.5566,4.5586,4.5586,4.5586,4.5586,4.5566,4.5586,4.5475,4.5438,4.538,4.5357,4.5373,4.5361,4.5476,4.5568,4.5586,4.5586,4.5586,4.5586,4.5586,4.5586,4.5586,4.5586,4.5586,4.5586,4.5586,4.5586,4.5586,4.5586,4.5586,4.5457,4.5361,4.5476,4.5476,4.5438,4.5438,4.5495,4.5457,4.54,4.5419,4.5495,4.54,4.5223,4.5082,4.496,4.4525,4.4034,4.3881,4.3526,4.3511,3.0278,3.0436,3.0533,3.1429,3.2679,3.2891,3.2929,3.2955,3.316,3.3583,3.4295,3.4968,3.5411,3.5443,3.5388,3.545,3.5604,3.5592,3.5565,3.5526,3.5446,3.546,3.5446,3.5456,3.5372,3.5408,3.5848,3.6228,3.6224,3.7057,3.7544,3.7796,3.8281,3.9062,3.9922,4.0762,4.1055,4.0951,4.083,4.0738,4.0662,4.064,4.0762,4.0886,4.0862,4.0782,4.0815,4.0789,4.0716,4.06,4.0508,4.0389,4.0196,4.0057,3.9891,3.975,3.9681,3.9671,3.9814,4.157,4.2793,4.3809,4.4172,4.4511,4.522,4.5432,4.5374,4.5201,4.5374,4.5509,4.5547,4.5547,4.5362,4.5268,4.5197,4.5125,4.509,4.5207,4.5342,4.5472,4.5547,4.5586,4.5586,4.5586,4.5586,4.5586,4.5586,4.5586,4.5586,4.5586,4.5586,4.5458,4.5438,4.5361,4.53,4.5173,4.5129,4.5281,4.5303,4.5204,4.5165,4.5185,4.5161,4.5151,4.5173,4.5201,4.5161,4.5055,4.4773,4.444,4.4028,4.3627,4.3513,4.3479,4.3479,3.0061,3.015,3.0323,3.0717,3.1314,3.1872,3.2102,3.2199,3.2641,3.3064,3.3314,3.3699,3.4166,3.4499,3.4749,3.4941,3.5449,3.5545,3.5507,3.5493,3.5335,3.5239,3.5187,3.5105,3.4944,3.4946,3.5248,3.5362,3.5192,3.6001,3.6099,3.6251,3.7194,3.8047,3.875,3.9316,3.9394,3.9347,3.9495,3.97,3.9718,3.9946,4.0206,4.047,4.0441,4.0486,4.0616,4.0569,4.062,4.0489,4.0396,4.0206,3.9986,3.9834,3.9515,3.9406,3.9333,3.9008,3.9105,4.0056,4.116,4.2281,4.3139,4.3401,4.3893,4.3951,4.4201,4.457,4.4648,4.4897,4.5432,4.5297,4.5151,4.5106,4.4995,4.4814,4.4802,4.5031,4.5186,4.5299,4.5393,4.5509,4.5547,4.5568,4.5587,4.5531,4.5513,4.5532,4.5533,4.555,4.555,4.5317,4.5189,4.508,4.4967,4.4852,4.484,4.4938,4.49,4.4794,4.4813,4.4853,4.482,4.4781,4.483,4.4896,4.4787,4.4607,4.4261,4.3887,4.3627,4.3497,4.3479,4.3479,4.3479,2.9611,3.0003,3.0182,3.0311,3.0475,3.1006,3.1275,3.141,3.2102,3.2487,3.2545,3.2776,3.3218,3.3653,3.3819,3.4126,3.4883,3.5012,3.5282,3.5292,3.5184,3.5119,3.5016,3.4813,3.4675,3.4572,3.4508,3.4545,3.445,3.4848,3.5215,3.5666,3.6169,3.681,3.7519,3.8027,3.8658,3.8646,3.874,3.8696,3.8667,3.8776,3.8977,3.9222,3.9458,3.9764,4.0073,4.0307,4.0469,4.0342,4.0226,4.0005,3.9787,3.9504,3.9175,3.9122,3.8998,3.8738,3.883,3.8915,4.0029,4.1024,4.1644,4.2297,4.2717,4.2948,4.3197,4.3465,4.3599,4.4059,4.4556,4.448,4.4517,4.4436,4.4524,4.4325,4.4373,4.4573,4.4805,4.4949,4.5093,4.5266,4.5436,4.5513,4.5533,4.5476,4.54,4.5419,4.5419,4.54,4.5322,4.5071,4.4915,4.481,4.467,4.4493,4.4513,4.4599,4.4457,4.435,4.4515,4.4579,4.4477,4.4433,4.4587,4.4606,4.4425,4.4168,4.3953,4.3749,4.3579,4.3479,4.3479,4.3479,4.3479,2.878,2.9836,2.9946,3.0087,3.0328,3.0417,3.0467,3.0506,3.1295,3.166,3.1698,3.2359,3.2622,3.2769,3.2826,3.3204,3.3772,3.4054,3.451,3.4846,3.4863,3.4931,3.4925,3.4754,3.4464,3.4265,3.4195,3.4136,3.3947,3.4394,3.4926,3.5383,3.5661,3.5979,3.6543,3.7226,3.7864,3.7769,3.7718,3.7651,3.7565,3.7442,3.7598,3.7834,3.8152,3.8537,3.8937,3.9327,3.9756,3.9904,3.9981,3.9747,3.9519,3.9232,3.8958,3.8781,3.8738,3.8707,3.8707,3.8762,3.8877,3.9746,4.0303,4.1291,4.1865,4.1901,4.2055,4.2252,4.2425,4.2784,4.3147,4.3289,4.342,4.3566,4.3794,4.3799,4.3806,4.4007,4.428,4.4474,4.4656,4.4829,4.5072,4.5208,4.5282,4.517,4.5069,4.4967,4.4981,4.5076,4.4953,4.4662,4.4551,4.4512,4.437,4.4132,4.4095,4.4177,4.3947,4.3855,4.4081,4.4229,4.4109,4.4084,4.4365,4.4327,4.4069,4.3942,4.385,4.3638,4.3513,4.3479,4.3479,4.3479,4.3479,2.7531,2.8067,2.8825,2.9277,2.9552,3.014,3.0398,3.0436,3.0686,3.0775,3.0782,3.0803,3.1312,3.1709,3.177,3.225,3.2741,3.3257,3.3823,3.4098,3.4216,3.4485,3.4547,3.4454,3.4176,3.4037,3.3928,3.3928,3.3921,3.4237,3.4813,3.5383,3.5402,3.5488,3.5795,3.6241,3.649,3.6627,3.6658,3.6553,3.648,3.6398,3.6482,3.6702,3.6911,3.7307,3.7692,3.7963,3.8263,3.825,3.8471,3.8433,3.8396,3.8608,3.8755,3.8713,3.8707,3.8707,3.8707,3.8707,3.8732,3.8815,3.9276,3.9612,4.0188,4.0571,4.0736,4.1033,4.1249,4.1537,4.197,4.2191,4.2319,4.2511,4.2738,4.2875,4.2963,4.3272,4.3553,4.3899,4.4083,4.4429,4.4653,4.4851,4.4896,4.4789,4.4684,4.4587,4.4562,4.4645,4.4568,4.428,4.4173,4.4156,4.397,4.3726,4.3726,4.3712,4.36,4.3516,4.3676,4.3784,4.366,4.3756,4.3955,4.3886,4.3675,4.3623,4.367,4.3609,4.3479,4.3479,4.3479,4.3479,4.3479,2.6674,2.7262,2.7869,2.8505,2.9129,2.9679,3.0063,3.034,3.0398,3.0398,3.0379,3.0273,3.0395,3.0738,3.0835,3.1148,3.1775,3.2124,3.2666,3.313,3.3268,3.3637,3.384,3.3836,3.3709,3.3695,3.3788,3.3834,3.3865,3.4237,3.4812,3.5427,3.5339,3.5422,3.5624,3.5759,3.5663,3.5643,3.5546,3.5438,3.5396,3.5324,3.5343,3.5449,3.5618,3.5969,3.6269,3.6438,3.6852,3.7062,3.7451,3.7396,3.7511,3.7923,3.8212,3.8236,3.8566,3.8652,3.8707,3.8707,3.8707,3.8707,3.8707,3.8929,3.9138,3.9469,3.9724,4.0021,4.0089,4.0258,4.071,4.1111,4.1241,4.1419,4.163,4.1827,4.2139,4.247,4.2831,4.3244,4.3608,4.3941,4.4214,4.4382,4.4519,4.4398,4.4285,4.4158,4.4135,4.4202,4.4116,4.3899,4.3814,4.3784,4.3552,4.3479,4.3529,4.3597,4.3548,4.3497,4.3479,4.3497,4.3534,4.3534,4.3548,4.3495,4.3511,4.3495,4.3529,4.3479,4.3479,4.3479,4.3479,4.3479,4.3479,2.595,2.6956,2.7125,2.788,2.8898,2.9006,2.9429,3.0198,3.0179,3.0352,3.0359,3.0355,3.0202,3.0179,3.0137,3.0243,3.0674,3.1016,3.1558,3.2109,3.2248,3.2655,3.3009,3.2901,3.3035,3.343,3.3556,3.3264,3.3691,3.4088,3.4639,3.5341,3.5348,3.5369,3.5551,3.5507,3.5388,3.5181,3.4945,3.4741,3.4377,3.4009,3.3597,3.3553,3.3933,3.4403,3.4779,3.5383,3.6177,3.6491,3.6739,3.6523,3.6887,3.7119,3.7331,3.7644,3.8047,3.8315,3.8475,3.8548,3.8689,3.8707,3.8707,3.875,3.8833,3.8873,3.9194,3.9287,3.9398,3.9472,3.9844,4.0002,4.0145,4.0425,4.0738,4.0891,4.1148,4.1515,4.1967,4.2312,4.25,4.2872,4.3088,4.3215,4.339,4.3591,4.3703,4.3553,4.3743,4.3802,4.3658,4.3523,4.3603,4.3624,4.3534,4.3479,4.3479,4.3513,4.3479,4.3479,4.3479,4.3479,4.3479,4.3479,4.3479,4.3479,4.3513,4.3479,4.3479,4.3479,4.3479,4.3479,4.3461,4.3369,4.3479,2.4832,2.5454,2.6362,2.7308,2.8121,2.8179,2.8294,2.8563,2.9179,2.9775,3.0271,3.0177,2.999,2.9832,2.9795,2.9848,2.979,3.0152,3.0584,3.1105,3.1396,3.1839,3.2411,3.2429,3.2456,3.2277,3.2275,3.245,3.2706,3.3394,3.4054,3.423,3.4499,3.4849,3.5331,3.5242,3.4983,3.4849,3.4567,3.4353,3.4165,3.3662,3.3262,3.3099,3.3328,3.3117,3.3364,3.3632,3.3963,3.416,3.5069,3.5643,3.6362,3.6507,3.6593,3.6717,3.732,3.7662,3.7882,3.8132,3.8365,3.8542,3.8579,3.867,3.8707,3.8707,3.8719,3.8762,3.8817,3.8903,3.8964,3.905,3.9142,3.9522,3.9847,4.0037,4.0175,4.0607,4.1043,4.1295,4.1455,4.1684,4.1922,4.2106,4.2243,4.2408,4.2607,4.2772,4.3188,4.3369,4.3206,4.3149,4.3477,4.3497,4.3479,4.3479,4.3479,4.3463,4.3428,4.3463,4.3426,4.3267,4.3105,4.3391,4.3479,4.332,4.3266,4.3408,4.3426,4.3228,4.2878,4.2624,4.2949,4.2968,4.3277,2.4441,2.4896,2.568,2.6524,2.7236,2.7332,2.7525,2.7948,2.8371,2.8841,2.9413,2.9826,2.9999,2.9718,2.9701,2.951,2.9324,2.949,2.992,3.0336,3.0682,3.1097,3.1512,3.1834,3.1919,3.171,3.1663,3.176,3.1782,3.2333,3.2929,3.3101,3.3543,3.4004,3.4568,3.4524,3.4504,3.4655,3.4319,3.4171,3.4025,3.3522,3.3073,3.289,3.2506,3.2274,3.2266,3.2494,3.2823,3.3203,3.4118,3.4522,3.511,3.5478,3.5689,3.5926,3.6395,3.6945,3.7106,3.7387,3.7747,3.7778,3.7686,3.7484,3.8046,3.8065,3.8395,3.8474,3.8683,3.8817,3.8817,3.8854,3.8854,3.9087,3.9197,3.9326,3.9368,3.9564,4.0073,4.0506,4.0698,4.0914,4.1204,4.1525,4.1613,4.164,4.1776,4.1852,4.2326,4.2763,4.2674,4.2679,4.2862,4.3298,4.3479,4.3479,4.3479,4.3428,4.3068,4.2867,4.2587,4.2641,4.2716,4.2666,4.2704,4.2868,4.2868,4.2687,4.2559,4.2286,4.194,4.1553,4.1988,4.2298,4.2292,2.4426,2.4832,2.5157,2.5716,2.637,2.6428,2.6832,2.7448,2.7678,2.7734,2.7988,2.9367,2.9755,2.9703,2.9672,2.9377,2.923,2.9283,2.95,2.9682,2.9808,3.0381,3.0769,3.1018,3.111,3.115,3.1075,3.1025,3.0983,3.1533,3.1904,3.197,3.2275,3.2664,3.3303,3.3578,3.371,3.4156,3.4147,3.4,3.3725,3.3361,3.2921,3.2459,3.2053,3.1757,3.1709,3.1905,3.2335,3.2822,3.3421,3.3762,3.41,3.4513,3.477,3.5055,3.5644,3.603,3.6203,3.6431,3.6479,3.6428,3.6282,3.6549,3.7195,3.7617,3.7918,3.8212,3.842,3.867,3.867,3.8583,3.8583,3.8578,3.8614,3.864,3.867,3.8744,3.9239,3.9772,3.9937,4.0171,4.0368,4.0738,4.0854,4.0868,4.0965,4.1042,4.1192,4.1625,4.1842,4.1857,4.1975,4.25,4.2844,4.283,4.2595,4.2177,4.1735,4.1761,4.17,4.1489,4.1403,4.1439,4.1578,4.1662,4.1564,4.1335,4.1261,4.1205,4.0996,4.0679,4.0669,4.0925,4.0896,2.4445,2.4818,2.4993,2.5267,2.5553,2.5553,2.5659,2.5909,2.6582,2.6851,2.7121,2.7822,2.8507,2.8989,2.9526,2.9437,2.9048,2.9053,2.9219,2.9437,2.9639,2.9962,3.0224,3.0468,3.0326,3.0246,3.006,2.9664,2.9868,3.0531,3.0833,3.0561,3.152,3.2062,3.2667,3.2902,3.3086,3.3548,3.3836,3.3739,3.3616,3.3196,3.2713,3.2213,3.1752,3.1487,3.1404,3.1647,3.1863,3.2246,3.2866,3.3252,3.3543,3.3835,3.4109,3.4357,3.4952,3.5155,3.5376,3.5663,3.5747,3.5889,3.5899,3.6029,3.6581,3.7037,3.7338,3.7674,3.7986,3.8487,3.8535,3.8223,3.814,3.8099,3.8096,3.8123,3.8156,3.8425,3.8854,3.9038,3.9129,3.9221,3.9258,3.954,3.9737,3.984,4.011,4.0226,4.0584,4.0813,4.0919,4.0891,4.0906,4.0869,4.0886,4.1159,4.1009,4.0617,4.0384,4.0382,4.0264,4.0068,4.001,4.0102,4.0077,4.0116,4.0035,4.0055,3.99,3.9873,3.9912,3.9808,3.9634,3.9518,3.9479]},{"header":{"parameterUnit":"m.s-1","parameterCategory":1,"la1":31.0,"la2":29.5877,"lo1":-88.7671,"lo2":-86.6584,"dy":0.0162,"dx":0.0185,"nx":115,"ny":88,"refTime":"2024-08-21T06:00:00:Z","depth":0,"parameterNumber":3,"parameterNumberName":"V-component_of_WINDS"},"data":[0.0,0.0,0.0,0.0,0.0,0.0,0.0,0.0,0.0,0.0,0.0,0.0,0.0,0.0,0.0,0.0,0.0,0.0,0.0,0.0,0.0,0.0,0.0,0.0,0.0,0.0,0.0,0.0,0.0,0.0,0.0,0.0,0.0,0.0,0.0,0.0,0.0,0.0,0.0,0.0,0.0,0.0,0.0,0.0,0.0,0.0,0.0,0.0,0.0,0.0,0.0,0.0,0.0,0.0,0.0,0.0,0.0,0.0,0.0,0.0,0.0,0.0,0.0,0.0,0.0,0.0,0.0,0.0,0.0,0.0,0.0,0.0,0.0,0.0,0.0,0.0,0.0,0.0,0.0,0.0,0.0,0.0,0.0,0.0,0.0,0.0,0.0,0.0,0.0,0.0,0.0,0.0,0.0,0.0,0.0,0.0,0.0,0.0,0.0,0.0,0.0,0.0,0.0,0.0,0.0,0.0,0.0,0.0,0.0,0.0,0.0,0.0,0.0,0.0,0.0,0.0,0.0,0.0,0.0,0.0,0.0,0.0,0.0,0.0,0.0,0.0,0.0,0.0,0.0,0.0,0.0,0.0,0.0,0.0,0.0,0.0,0.0,0.0,0.0,0.0,0.0,0.0,0.0,0.0,0.0,0.0,0.0,0.0,0.0,0.0,0.0,0.0,0.0,0.0,0.0,0.0,0.0,0.0,0.0,0.0,0.0,0.0,0.0,0.0,0.0,0.0,0.0,0.0,0.0,0.0,0.0,0.0,0.0,0.0,0.0,0.0,0.0,0.0,0.0,0.0,0.0,0.0,0.0,0.0,0.0,0.0,0.0,0.0,0.0,0.0,0.0,0.0,0.0,0.0,0.0,0.0,0.0,0.0,0.0,0.0,0.0,0.0,0.0,0.0,0.0,0.0,0.0,0.0,0.0,0.0,0.0,0.0,0.0,0.0,0.0,0.0,0.0,0.0,0.0,0.0,0.0,0.0,0.0,0.0,0.0,0.0,0.0,0.0,0.0,0.0,0.0,0.0,0.0,0.0,0.0,0.0,0.0,0.0,0.0,0.0,0.0,0.0,0.0,0.0,0.0,0.0,0.0,0.0,0.0,0.0,0.0,0.0,0.0,0.0,0.0,0.0,0.0,0.0,0.0,0.0,0.0,0.0,0.0,0.0,0.0,0.0,0.0,0.0,0.0,0.0,0.0,0.0,0.0,0.0,0.0,0.0,0.0,0.0,0.0,0.0,0.0,0.0,0.0,0.0,0.0,0.0,0.0,0.0,0.0,0.0,0.0,0.0,0.0,0.0,0.0,0.0,0.0,0.0,0.0,0.0,0.0,0.0,0.0,0.0,0.0,0.0,0.0,0.0,0.0,0.0,0.0,0.0,0.0,0.0,0.0,0.0,0.0,0.0,0.0,0.0,0.0,0.0,0.0,0.0,0.0,0.0,0.0,0.0,0.0,0.0,0.0,0.0,0.0,0.0,0.0,0.0,0.0,0.0,0.0,0.0,0.0,0.0,0.0,0.0,0.0,0.0,0.0,0.0,0.0,0.0,0.0,0.0,0.0,0.0,0.0,0.0,0.0,0.0,0.0,0.0,0.0,0.0,0.0,0.0,0.0,0.0,0.0,0.0,0.0,0.0,0.0,0.0,0.0,0.0,0.0,0.0,0.0,0.0,0.0,0.0,0.0,0.0,0.0,0.0,0.0,0.0,0.0,0.0,0.0,0.0,0.0,0.0,0.0,0.0,0.0,0.0,0.0,0.0,0.0,0.0,0.0,0.0,0.0,0.0,0.0,0.0,0.0,0.0,0.0,0.0,0.0,0.0,0.0,0.0,0.0,0.0,0.0,0.0,0.0,0.0,0.0,0.0,0.0,0.0,0.0,0.0,0.0,0.0,0.0,0.0,0.0,0.0,0.0,0.0,0.0,0.0,0.0,0.0,0.0,0.0,0.0,0.0,0.0,0.0,0.0,0.0,0.0,0.0,0.0,0.0,0.0,0.0,0.0,0.0,0.0,0.0,0.0,0.0,0.0,0.0,0.0,0.0,0.0,0.0,0.0,0.0,0.0,0.0,0.0,0.0,0.0,0.0,0.0,0.0,0.0,0.0,0.0,0.0,0.0,0.0,0.0,0.0,0.0,0.0,0.0,0.0,0.0,0.0,0.0,0.0,0.0,0.0,0.0,0.0,0.0,0.0,0.0,0.0,0.0,0.0,0.0,0.0,0.0,0.0,0.0,0.0,0.0,0.0,0.0,0.0,0.0,0.0,0.0,0.0,0.0,0.0,0.0,0.0,0.0,0.0,0.0,0.0,0.0,0.0,0.0,0.0,0.0,0.0,0.0,0.0,0.0,0.0,0.0,0.0,0.0,0.0,0.0,0.0,0.0,0.0,0.0,0.0,0.0,0.0,0.0,0.0,0.0,0.0,0.0,0.0,0.0,0.0,0.0,0.0,0.0,0.0,0.0,0.0,0.0,0.0,0.0,0.0,0.0,0.0,0.0,0.0,0.0,0.0,0.0,0.0,0.0,0.0,0.0,0.0,0.0,0.0,0.0,0.0,0.0,0.0,0.0,0.0,0.0,0.0,0.0,0.0,0.0,0.0,0.0,0.0,0.0,0.0,0.0,0.0,0.0,0.0,0.0,0.0,0.0,0.0,0.0,0.0,0.0,0.0,0.0,0.0,0.0,0.0,0.0,0.0,0.0,0.0,0.0,0.0,0.0,0.0,0.0,0.0,0.0,0.0,0.0,0.0,0.0,0.0,0.0,0.0,0.0,0.0,0.0,0.0,0.0,0.0,0.0,0.0,0.0,0.0,0.0,0.0,0.0,0.0,0.0,0.0,0.0,0.0,0.0,0.0,0.0,0.0,0.0,0.0,0.0,0.0,0.0,0.0,0.0,0.0,0.0,0.0,0.0,0.0,0.0,0.0,0.0,0.0,0.0,0.0,0.0,0.0,0.0,0.0,0.0,0.0,0.0,0.0,0.0,0.0,0.0,0.0,0.0,0.0,0.0,0.0,0.0,0.0,0.0,0.0,0.0,0.0,0.0,0.0,0.0,0.0,0.0,0.0,0.0,0.0,0.0,0.0,0.0,0.0,0.0,0.0,0.0,0.0,0.0,0.0,0.0,0.0,0.0,0.0,0.0,0.0,0.0,0.0,0.0,0.0,0.0,0.0,0.0,0.0,0.0,0.0,0.0,0.0,0.0,0.0,0.0,0.0,0.0,0.0,0.0,0.0,0.0,0.0,0.0,0.0,0.0,0.0,0.0,0.0,0.0,0.0,0.0,0.0,0.0,0.0,0.0,0.0,0.0,0.0,0.0,0.0,0.0,0.0,0.0,0.0,0.0,0.0,0.0,0.0,0.0,0.0,0.0,0.0,0.0,0.0,0.0,0.0,0.0,0.0,0.0,0.0,0.0,0.0,0.0,0.0,0.0,0.0,0.0,0.0,0.0,0.0,0.0,0.0,0.0,0.0,0.0,0.0,0.0,0.0,0.0,0.0,0.0,0.0,0.0,0.0,0.0,0.0,0.0,0.0,0.0,0.0,0.0,0.0,0.0,0.0,0.0,0.0,0.0,0.0,0.0,0.0,0.0,0.0,0.0,0.0,0.0,0.0,0.0,0.0,0.0,0.0,0.0,0.0,0.0,0.0,0.0,0.0,0.0,0.0,0.0,0.0,0.0,0.0,0.0,0.0,0.0,0.0,0.0,0.0,0.0,0.0,0.0,0.0,0.0,0.0,0.0,0.0,0.0,0.0,0.0,0.0,0.0,0.0,0.0,0.0,0.0,0.0,0.0,0.0,0.0,0.0,0.0,0.0,0.0,0.0,0.0,0.0,0.0,0.0,0.0,0.0,0.0,0.0,0.0,0.0,0.0,0.0,0.0,0.0,0.0,0.0,0.0,0.0,0.0,0.0,0.0,0.0,0.0,0.0,0.0,0.0,0.0,0.0,0.0,0.0,0.0,0.0,0.0,0.0,0.0,0.0,0.0,0.0,0.0,0.0,0.0,0.0,0.0,0.0,0.0,0.0,0.0,0.0,0.0,0.0,0.0,0.0,0.0,0.0,0.0,0.0,0.0,0.0,0.0,0.0,0.0,0.0,0.0,0.0,0.0,0.0,0.0,0.0,0.0,0.0,0.0,0.0,0.0,0.0,0.0,0.0,0.0,0.0,0.0,0.0,0.0,0.0,0.0,0.0,0.0,0.0,0.0,0.0,0.0,0.0,0.0,0.0,0.0,0.0,0.0,0.0,0.0,0.0,0.0,0.0,-0.2679,0.0,0.0,0.0,0.0,0.0,0.0,0.0,0.0,0.0,0.0,0.0,0.0,0.0,0.0,0.0,0.0,0.0,0.0,0.0,0.0,0.0,0.0,0.0,0.0,0.0,0.0,0.0,0.0,0.0,0.0,0.0,0.0,0.0,0.0,0.0,0.0,0.0,0.0,0.0,0.0,0.0,0.0,0.0,0.0,0.0,0.0,0.0,0.0,0.0,0.0,0.0,0.0,0.0,0.0,0.0,0.0,0.0,0.0,0.0,0.0,0.0,0.0,0.0,0.0,0.0,0.0,0.0,0.0,0.0,0.0,0.0,0.0,0.0,0.0,0.0,0.0,0.0,0.0,0.0,0.0,0.0,0.0,0.0,0.0,0.0,0.0,0.0,0.0,0.0,0.0,0.0,0.0,0.0,0.0,0.0,0.0,0.0,0.0,0.0,0.0,0.0,0.0,0.0,0.0,0.0,0.0,0.0,0.0,0.0,0.0,-0.3097,-0.2712,-0.2679,-0.2679,-0.2679,0.0,0.0,0.0,0.0,0.0,0.0,0.0,0.0,0.0,0.0,0.0,0.0,0.0,0.0,0.0,0.0,0.0,0.0,0.0,0.0,0.0,0.0,0.0,0.0,0.0,0.0,0.0,0.0,0.0,0.0,0.0,0.0,0.0,0.0,0.0,0.0,0.0,0.0,0.0,0.0,0.0,0.0,0.0,0.0,0.0,0.0,0.0,0.0,0.0,0.0,0.0,0.0,0.0,0.0,0.0,0.0,0.0,0.0,0.0,0.0,0.0,0.0,0.0,0.0,0.0,0.0,0.0,0.0,0.0,0.0,0.0,0.0,0.0,0.0,0.0,0.0,0.0,0.0,0.0,0.0,0.0,0.0,0.0,0.0,0.0,0.0,0.0,0.0,0.0,0.0,0.0,0.0,0.0,0.0,0.0,0.0,0.0,0.0,0.0,0.0,0.0,0.0,0.0,0.0,0.0,0.0,0.0,0.0,0.0,0.0,0.0,0.0,-0.2975,-0.2747,-0.264,0.0,0.0,0.0,0.0,0.0,0.0,0.0,0.0,0.0,0.0,0.0,0.0,0.0,0.0,0.0,0.0,0.0,0.0,0.0,0.0,0.0,0.0,0.0,0.0,0.0,0.0,0.0,0.0,0.0,0.0,0.0,0.0,0.0,0.0,0.0,0.0,0.0,0.0,0.0,0.0,0.0,0.0,0.0,0.0,0.0,0.0,0.0,0.0,0.0,0.0,0.0,0.0,0.0,0.0,0.0,0.0,0.0,0.0,0.0,0.0,0.0,0.0,0.0,0.0,0.0,0.0,0.0,0.0,0.0,0.0,0.0,0.0,0.0,0.0,0.0,0.0,0.0,0.0,0.0,0.0,0.0,0.0,0.0,0.0,0.0,0.0,0.0,0.0,0.0,0.0,0.0,0.0,0.0,0.0,0.0,0.0,0.0,0.0,0.0,0.0,0.0,0.0,0.0,0.0,0.0,0.0,0.0,0.0,0.0,0.0,-0.4292,-0.5028,-0.3742,0.0,-0.2624,0.0,0.0,0.0,0.0,0.0,0.0,0.0,0.0,0.0,0.0,0.0,0.0,0.0,0.0,0.0,0.0,0.0,0.0,0.0,0.0,0.0,0.0,0.0,0.0,0.0,0.0,0.0,0.0,0.0,0.0,0.0,0.0,0.0,0.0,0.0,0.0,0.0,0.0,0.0,0.0,0.0,0.0,0.0,0.0,0.0,0.0,0.0,0.0,0.0,0.0,0.0,0.0,0.0,0.0,0.0,0.0,0.0,0.0,0.0,0.0,0.0,0.0,0.0,0.0,0.0,0.0,0.0,0.0,0.0,0.0,0.0,0.0,0.0,0.0,0.0,0.0,0.0,0.0,0.0,0.0,0.0,0.0,0.0,0.0,0.0,0.0,0.0,0.0,0.0,0.0,0.0,0.0,0.0,0.0,0.0,0.0,0.0,0.0,0.0,0.0,0.0,0.0,0.0,0.0,0.0,0.0,0.0,0.0,0.0,0.0,0.0,-0.4415,-0.3746,-0.3361,0.0,0.0,0.0,0.0,0.0,0.0,0.0,0.0,0.0,0.0,0.0,0.0,0.0,0.0,0.0,0.0,0.0,0.0,0.0,0.0,0.0,0.0,0.0,0.0,0.0,0.0,0.0,0.0,0.0,0.0,0.0,0.0,0.0,0.0,0.0,0.0,0.0,0.0,0.0,0.0,0.0,0.0,0.0,0.0,0.0,0.0,0.0,0.0,0.0,0.0,0.0,0.0,0.0,0.0,0.0,0.0,0.0,0.0,0.0,0.0,0.0,0.0,0.0,0.0,0.0,0.0,0.0,0.0,0.0,0.0,0.0,0.0,0.0,0.0,0.0,0.0,0.0,0.0,0.0,0.0,0.0,0.0,0.0,0.0,0.0,0.0,0.0,0.0,0.0,0.0,0.0,0.0,0.0,0.0,0.0,0.0,0.0,0.0,0.0,0.0,0.0,0.0,0.0,0.0,0.0,0.0,0.0,0.0,0.0,0.0,-0.4922,0.0,-0.3774,-0.3658,-0.3582,-0.3589,0.0,0.0,0.0,0.0,0.0,0.0,0.0,0.0,0.0,0.0,0.0,0.0,0.0,0.0,0.0,0.0,0.0,0.0,0.0,0.0,0.0,0.0,0.0,0.0,0.0,0.0,0.0,0.0,0.0,0.0,0.0,0.0,0.0,0.0,0.0,0.0,0.0,0.0,0.0,0.0,0.0,0.0,0.0,0.0,0.0,0.0,0.0,0.0,0.0,0.0,0.0,0.0,0.0,0.0,0.0,0.0,0.0,0.0,0.0,0.0,0.0,0.0,0.0,0.0,0.0,0.0,0.0,0.0,0.0,0.0,0.0,0.0,0.0,0.0,0.0,0.0,0.0,0.0,0.0,0.0,0.0,0.0,0.0,0.0,0.0,0.0,0.0,0.0,0.0,0.0,0.0,0.0,0.0,0.0,0.0,0.0,0.0,0.0,0.0,0.0,0.0,0.0,0.0,0.0,0.0,0.0,0.0,0.0,0.0,-0.5722,-0.4151,-0.3639,-0.3605,-0.361,0.0,0.0,0.0,0.0,0.0,0.0,0.0,0.0,0.0,0.0,0.0,0.0,0.0,0.0,0.0,0.0,0.0,0.0,0.0,0.0,0.0,0.0,0.0,0.0,0.0,0.0,0.0,0.0,0.0,0.0,0.0,0.0,0.0,0.0,0.0,0.0,0.0,0.0,0.0,0.0,0.0,0.0,0.0,0.0,0.0,0.0,0.0,0.0,0.0,0.0,0.0,0.0,0.0,0.0,0.0,0.0,0.0,0.0,0.0,0.0,0.0,0.0,0.0,0.0,0.0,0.0,0.0,0.0,0.0,0.0,0.0,0.0,0.0,0.0,0.0,0.0,0.0,0.0,0.0,0.0,0.0,0.0,0.0,0.0,0.0,0.0,0.0,0.0,0.0,0.0,0.0,0.0,0.0,0.0,0.0,0.0,0.0,0.0,0.0,0.0,0.0,0.0,0.0,0.0,0.0,0.0,0.0,0.0,0.0,-0.6371,-0.5071,-0.4282,0.0,-0.372,-0.376,0.0,0.0,0.0,0.0,0.0,0.0,0.0,0.0,0.0,0.0,0.0,0.0,0.0,0.0,0.0,0.0,0.0,0.0,0.0,0.0,0.0,0.0,0.0,0.0,0.0,0.0,0.0,0.0,0.0,0.0,0.0,0.0,0.0,0.0,0.0,0.0,0.0,0.0,0.0,0.0,0.0,0.0,0.0,0.0,0.0,0.0,0.0,0.0,0.0,0.0,0.0,0.0,0.0,0.0,0.0,0.0,0.0,0.0,0.0,0.0,0.0,0.0,0.0,0.0,0.0,0.0,0.0,0.0,0.0,0.0,0.0,0.0,0.0,0.0,0.0,0.0,0.0,0.0,0.0,0.0,0.0,0.0,0.0,0.0,0.0,0.0,0.0,0.0,0.0,0.0,0.0,0.0,0.0,0.0,0.0,0.0,0.0,0.0,0.0,0.0,0.0,0.0,0.0,0.0,0.0,0.0,0.0,0.0,0.0,-0.5198,0.0,-0.4974,0.0,-0.3574,-0.3495,0.0,0.0,0.0,0.0,0.0,0.0,0.0,0.0,0.0,0.0,0.0,0.0,0.0,0.0,0.0,0.0,0.0,0.0,0.0,0.0,0.0,0.0,0.0,0.0,0.0,0.0,0.0,0.0,0.0,0.0,0.0,0.0,0.0,0.0,0.0,0.0,0.0,0.0,0.0,0.0,0.0,0.0,0.0,0.0,0.0,0.0,0.0,0.0,0.0,0.0,0.0,0.0,0.0,0.0,0.0,0.0,0.0,0.0,0.0,0.0,0.0,0.0,0.0,0.0,0.0,0.0,0.0,0.0,0.0,0.0,0.0,0.0,0.0,0.0,0.0,0.0,0.0,0.0,0.0,0.0,0.0,0.0,0.0,0.0,0.0,0.0,0.0,0.0,0.0,0.0,0.0,0.0,0.0,0.0,0.0,0.0,0.0,0.0,0.0,0.0,0.0,0.0,0.0,0.0,0.0,0.0,0.0,0.0,-0.5574,-0.5,-0.6374,-0.6029,-0.3976,-0.3132,-0.2747,0.0,0.0,0.0,0.0,0.0,0.0,0.0,0.0,0.0,0.0,0.0,0.0,0.0,0.0,0.0,0.0,0.0,0.0,0.0,0.0,0.0,0.0,0.0,0.0,0.0,0.0,0.0,0.0,0.0,0.0,0.0,0.0,0.0,0.0,0.0,0.0,0.0,0.0,0.0,0.0,0.0,0.0,0.0,0.0,0.0,0.0,0.0,0.0,0.0,0.0,0.0,0.0,0.0,0.0,0.0,0.0,0.0,0.0,0.0,0.0,0.0,0.0,0.0,0.0,0.0,0.0,0.0,0.0,0.0,0.0,0.0,0.0,0.0,0.0,0.0,0.0,0.0,0.0,0.0,0.0,0.0,0.0,0.0,0.0,0.0,0.0,0.0,0.0,0.0,0.0,0.0,0.0,0.0,0.0,0.0,0.0,0.0,0.0,0.0,0.0,0.0,0.0,0.0,0.0,0.0,0.0,0.0,0.0,0.0,-0.462,-0.4891,-0.4733,-0.392,-0.3107,-0.3107,0.0,0.0,0.0,0.0,0.0,0.0,0.0,0.0,0.0,0.0,0.0,0.0,0.0,0.0,0.0,0.0,0.0,0.0,0.0,0.0,0.0,0.0,0.0,0.0,0.0,0.0,0.0,0.0,0.0,0.0,0.0,0.0,0.0,0.0,0.0,0.0,0.0,0.0,0.0,0.0,0.0,0.0,0.0,0.0,0.0,0.0,0.0,0.0,0.0,0.0,0.0,0.0,0.0,0.0,0.0,0.0,0.0,0.0,0.0,0.0,0.0,0.0,0.0,0.0,0.0,0.0,0.0,0.0,0.0,0.0,0.0,0.0,0.0,0.0,0.0,0.0,0.0,0.0,0.0,0.0,0.0,0.0,0.0,0.0,0.0,0.0,0.0,0.0,0.0,0.0,0.0,0.0,0.0,0.0,0.0,0.0,0.0,0.0,0.0,0.0,0.0,0.0,0.0,0.0,0.0,0.0,0.0,0.0,0.0,-0.4568,-0.4879,-0.475,-0.4105,-0.257,-0.205,-0.2749,0.0,0.0,0.0,0.0,0.0,0.0,0.0,0.0,0.0,0.0,0.0,0.0,0.0,0.0,0.0,0.0,0.0,0.0,0.0,0.0,0.0,0.0,0.0,0.0,0.0,0.0,0.0,0.0,0.0,0.0,0.0,0.0,0.0,0.0,0.0,0.0,0.0,0.0,0.0,0.0,0.0,0.0,0.0,0.0,0.0,0.0,0.0,0.0,0.0,0.0,0.0,0.0,0.0,0.0,0.0,0.0,0.0,0.0,0.0,0.0,0.0,0.0,0.0,0.0,0.0,0.0,0.0,0.0,0.0,0.0,0.0,0.0,0.0,0.0,0.0,0.0,0.0,0.0,0.0,0.0,0.0,0.0,0.0,0.0,0.0,0.0,0.0,0.0,0.0,0.0,0.0,0.0,0.0,0.0,0.0,0.0,0.0,0.0,0.0,0.0,0.0,0.0,0.0,0.0,0.0,0.0,0.0,0.0,-0.4539,-0.578,-0.5796,-0.448,-0.161,0.0,0.0,0.0,0.0,0.0,0.0,0.0,0.0,0.0,0.0,0.0,0.0,0.0,0.0,0.0,0.0,0.0,0.0,0.0,0.0,0.0,0.0,0.0,0.0,0.0,0.0,0.0,0.0,0.0,0.0,0.0,0.0,0.0,0.0,0.0,0.0,0.0,0.0,0.0,0.0,0.0,0.0,0.0,0.0,0.0,0.0,0.0,0.0,0.0,0.0,0.0,0.0,0.0,0.0,0.0,0.0,0.0,0.0,0.0,0.0,0.0,0.0,0.0,0.0,0.0,0.0,0.0,0.0,0.0,0.0,0.0,0.0,0.0,0.0,0.0,0.0,0.0,0.0,0.0,0.0,0.0,0.0,0.0,0.0,0.0,0.0,0.0,0.0,0.0,0.0,0.0,0.0,0.0,0.0,0.0,0.0,0.0,0.0,0.0,0.0,0.0,0.0,0.0,0.0,0.0,0.0,0.0,0.0,0.0,0.0,-0.269,-0.4212,-0.4907,-0.4411,-0.1606,0.0,0.0,0.0,0.0,0.0,0.0,0.0,0.0,0.0,0.0,0.0,0.0,0.0,0.0,0.0,0.0,0.0,0.0,0.0,0.0,0.0,0.0,0.0,0.0,0.0,0.0,0.0,0.0,0.0,0.0,0.0,0.0,0.0,0.0,0.0,0.0,0.0,0.0,0.0,0.0,0.0,0.0,0.0,0.0,0.0,0.0,0.0,0.0,0.0,0.0,0.0,0.0,0.0,0.0,0.0,0.0,0.0,0.0,0.0,0.0,0.0,0.0,0.0,0.0,0.0,0.0,0.0,0.0,0.0,0.0,0.0,0.0,0.0,0.0,0.0,0.0,0.0,0.0,0.0,0.0,0.0,0.0,0.0,0.0,0.0,0.0,0.0,0.0,0.0,0.0,0.0,0.0,0.0,0.0,0.0,0.0,0.0,0.0,0.0,0.0,0.0,0.0,0.0,0.0,0.0,0.0,0.0,0.0,0.0,-0.3666,-0.2975,-0.3954,-0.3921,-0.2596,-0.0907,0.0,0.0,0.0,0.0,0.0,0.0,0.0,0.0,0.0,0.0,0.0,0.0,0.0,0.0,0.0,0.0,0.0,0.0,0.0,0.0,0.0,0.0,0.0,0.0,0.0,0.0,0.0,0.0,0.0,0.0,0.0,0.0,0.0,0.0,0.0,0.0,0.0,0.0,0.0,0.0,0.0,0.0,0.0,0.0,0.0,0.0,0.0,0.0,0.0,0.0,0.0,0.0,0.0,0.0,0.0,0.0,0.0,0.0,0.0,0.0,0.0,0.0,0.0,0.0,0.0,0.0,0.0,0.0,0.0,0.0,0.0,0.0,0.0,0.0,0.0,0.0,0.0,0.0,0.0,0.0,0.0,0.0,0.0,0.0,0.0,0.0,0.0,0.0,0.0,0.0,0.0,0.0,0.0,0.0,0.0,0.0,0.0,0.0,0.0,0.0,0.0,0.0,0.0,0.0,0.0,0.0,0.0,0.0,0.0,-0.3735,-0.4514,-0.4213,-0.2542,0.0471,0.0215,0.0,0.0,0.0,0.0,0.0,0.0,0.0,0.0,0.0,0.0,0.0,0.0,0.0,0.0,0.0,0.0,0.0,0.0,0.0,0.0,0.0,0.0,0.0,0.0,0.0,0.0,0.0,0.0,0.0,0.0,0.0,0.0,0.0,0.0,0.0,0.0,0.0,0.0,0.0,0.0,0.0,0.0,0.0,0.0,0.0,0.0,0.0,0.0,0.0,0.0,0.0,0.0,0.0,0.0,0.0,0.0,0.0,0.0,0.0,0.0,0.0,0.0,0.0,0.0,0.0,0.0,0.0,0.0,0.0,0.0,0.0,0.0,0.0,0.0,0.0,0.0,0.0,0.0,0.0,0.0,0.0,0.0,0.0,0.0,0.0,0.0,0.0,0.0,0.0,0.0,0.0,0.0,0.0,0.0,0.0,0.0,0.0,0.0,0.0,0.0,0.0,0.0,0.0,0.0,0.0,0.0,0.0,0.0,0.0,-0.2967,-0.4375,-0.221,0.0946,0.4859,0.1692,0.0,0.0,0.0,0.0,0.0,0.0,0.0,0.0,0.0,0.0,0.0,0.0,0.0,0.0,0.0,0.0,0.0,0.0,0.0,0.0,0.0,0.0,0.0,0.0,0.0,0.0,0.0,0.0,0.0,0.0,0.0,0.0,0.0,0.0,0.0,0.0,0.0,0.0,0.0,0.0,0.0,0.0,0.0,0.0,0.0,0.0,0.0,0.0,0.0,-0.4215,0.0,0.0,0.0,0.0,0.0,0.0,0.0,0.0,0.0,0.0,0.0,0.0,0.0,0.0,0.0,0.0,0.0,0.0,0.0,0.0,0.0,0.0,0.0,0.0,0.0,0.0,0.0,0.0,0.0,0.0,0.0,0.0,0.0,0.0,0.0,0.0,0.0,0.0,0.0,0.0,0.0,0.0,0.0,0.0,0.0,0.0,0.0,0.0,0.0,0.0,0.0,0.0,0.0,0.0,0.0,0.0,0.0,0.0,0.0,-0.1968,-0.2258,0.1084,0.4062,0.6115,0.4131,0.202,0.0,0.0,0.0,0.0,0.0,0.0,0.0,0.0,0.0,0.0,0.0,0.0,0.0,0.0,0.0,0.0,0.0,0.0,0.0,0.0,0.0,0.0,0.0,0.0,0.0,0.0,0.0,0.0,0.0,0.0,0.0,0.0,0.0,0.0,0.0,0.0,0.0,0.0,0.0,0.0,0.0,0.0,0.0,0.0,0.0,0.0,0.0,0.0,0.0,0.0,0.0,0.0,0.0,0.0,0.0,0.0,0.0,0.0,0.0,0.0,0.0,0.0,0.0,0.0,0.0,0.0,0.0,0.0,0.0,0.0,0.0,0.0,0.0,0.0,0.0,0.0,0.0,0.0,0.0,0.0,0.0,0.0,0.0,0.0,0.0,0.0,0.0,0.0,0.0,0.0,0.0,0.0,0.0,0.0,0.0,0.0,0.0,0.0,0.0,0.0,0.0,0.0,0.0,0.0,0.0,0.0,0.0,-0.2739,-0.117,0.1014,0.4491,0.6321,0.629,0.6252,0.464,0.1103,0.0,0.0,0.0,0.0,0.0,0.0,0.0,0.0,0.0,0.0,0.0,0.0,0.0,0.0,0.0,0.0,0.0,0.0,0.0,0.0,0.0,0.0,0.0,0.0,0.0,0.0,0.0,0.0,0.0,0.0,0.0,0.0,0.0,0.0,0.0,0.0,0.0,0.0,-0.71,-0.5515,0.0,0.0,0.0,0.0,0.0,0.0,0.0,0.0,-0.458,0.0,0.0,0.0,0.0,0.0,0.0,0.0,0.0,0.0,0.0,0.0,0.0,0.0,0.0,0.0,0.0,0.0,0.0,0.0,0.0,0.0,0.0,0.0,0.0,0.0,0.0,0.0,0.0,0.0,0.0,0.0,0.0,0.0,0.0,0.0,0.0,0.0,0.0,0.0,0.0,0.0,0.0,0.0,0.0,0.0,0.0,0.0,0.0,0.0,0.0,0.0,0.0,0.0,0.0,0.0,0.0,-0.4356,-0.419,-0.1033,0.511,0.5927,0.6307,0.625,0.6307,0.5819,0.4897,0.0,0.0,0.0,0.0,0.0,0.0,0.0,0.0,0.0,0.0,0.0,0.0,0.0,0.0,0.0,0.0,0.0,0.0,0.0,0.0,0.0,0.0,0.0,0.0,0.0,0.0,0.0,0.0,0.0,0.0,0.0,0.0,0.0,0.0,0.0,0.0,0.0,0.0,0.0,-0.6635,-0.5349,0.0,0.0,0.0,0.0,0.0,0.0,0.0,0.0,-0.3562,0.0,0.0,0.0,0.0,0.0,0.0,0.0,0.0,0.0,0.0,0.0,0.0,0.0,0.0,0.0,0.0,0.0,0.0,0.0,0.0,0.0,0.0,0.0,0.0,0.0,0.0,0.0,0.0,0.0,0.0,0.0,0.0,0.0,0.0,0.0,0.0,0.0,0.0,0.0,0.0,0.0,0.0,0.0,0.0,0.0,0.0,0.0,0.0,0.0,0.0,0.0,0.0,0.0,0.0,0.0,-0.2788,-0.2074,0.0907,0.6058,0.6312,0.625,0.6294,0.6306,0.6152,0.0,0.0,0.0,0.0,0.0,0.0,0.0,0.0,0.0,0.0,0.0,0.0,0.0,0.0,0.0,0.0,0.0,0.0,0.0,0.0,0.0,0.0,0.0,0.0,0.0,0.0,0.0,0.0,0.0,0.0,0.0,0.0,0.0,0.0,0.0,0.0,0.0,0.0,0.0,0.0,-0.7706,-0.6243,-0.5114,0.0,0.0,0.0,0.0,0.0,0.0,-0.4362,-0.3461,0.0,0.0,0.0,0.0,0.0,0.0,0.0,0.0,0.0,0.0,0.0,0.0,0.0,0.0,0.0,0.0,0.0,0.0,0.0,0.0,0.0,0.0,0.0,0.0,0.0,0.0,0.0,0.0,0.0,0.0,0.0,0.0,0.0,0.0,0.0,0.0,0.0,0.0,0.0,0.0,0.0,0.0,0.0,0.0,0.0,0.0,0.0,0.0,0.0,0.0,0.0,0.0,0.0,0.0,0.0,-0.1519,0.0759,0.3397,0.6129,0.6291,0.6274,0.6264,0.6268,0.6229,0.0,0.0,0.0,0.0,0.0,0.0,0.0,0.0,0.0,0.0,0.0,0.0,0.0,0.0,0.0,0.0,0.0,0.0,0.0,0.0,0.0,0.0,0.0,0.0,0.0,0.0,0.0,0.0,0.0,0.0,0.0,0.0,0.0,0.0,0.0,0.0,0.0,0.0,0.0,0.0,0.0,-0.6857,-0.5724,-0.5098,0.0,0.0,0.0,0.0,-0.4522,-0.4461,0.0,0.0,0.0,0.0,0.0,0.0,0.0,0.0,0.0,0.0,0.0,0.0,0.0,0.0,0.0,0.0,0.0,0.0,0.0,0.0,0.0,0.0,0.0,0.0,0.0,0.0,0.0,0.0,0.0,0.0,0.0,0.0,0.0,0.0,0.0,0.0,0.0,0.0,0.0,0.0,0.0,0.0,0.0,0.0,0.0,0.0,0.0,0.0,0.0,0.0,0.0,0.0,0.0,0.0,0.0,0.0,-0.2325,0.2891,0.5849,0.6261,0.6285,0.6274,0.6257,0.6294,0.6379,0.0,0.0,0.0,0.0,0.0,0.0,0.0,0.0,0.0,0.0,0.0,0.0,0.0,0.0,0.0,0.0,0.0,0.0,0.0,0.0,0.0,0.0,0.0,0.0,0.0,0.0,0.0,0.0,0.0,0.0,0.0,0.0,0.0,0.0,0.0,0.0,0.0,0.0,0.0,0.0,0.0,-0.7446,-0.6334,-0.5708,-0.5267,0.0,0.0,-0.4757,-0.4542,-0.4504,0.0,0.0,0.0,0.0,0.0,0.0,0.0,0.0,0.0,0.0,0.0,0.0,0.0,0.0,0.0,0.0,0.0,0.0,0.0,0.0,0.0,0.0,0.0,0.0,0.0,0.0,0.0,0.0,0.0,0.0,0.0,0.0,0.0,0.0,0.0,0.0,0.0,0.0,0.0,0.0,0.0,0.0,0.0,0.0,0.0,0.0,0.0,0.0,0.0,0.0,0.0,0.0,0.0,0.0,0.0,-0.1405,-0.2461,0.2022,0.512,0.6271,0.6278,0.6447,0.687,0.6765,0.686,0.0,0.0,0.0,0.0,0.0,0.0,0.0,0.0,0.0,0.0,0.0,0.0,0.0,0.0,0.0,0.0,0.0,0.0,0.0,0.0,0.0,0.0,0.0,0.0,0.0,0.0,0.0,0.0,0.0,0.0,0.0,0.0,0.0,0.0,0.0,0.0,0.0,0.0,0.0,0.0,0.0,0.0,-0.6826,-0.6076,0.0,0.0,0.0,-0.4003,-0.2227,0.0,0.0,0.0,0.0,0.0,0.0,0.0,0.0,0.0,0.0,0.0,0.0,0.0,0.0,0.0,0.0,0.0,0.0,0.0,0.0,0.0,0.0,0.0,0.0,0.0,0.0,0.0,0.0,0.0,0.0,0.0,0.0,0.0,0.0,0.0,0.0,0.0,0.0,0.0,0.0,0.0,0.0,0.0,0.0,0.0,0.0,0.0,0.0,0.0,0.0,0.0,0.0,0.0,0.0,0.0,0.0,0.0,-0.0415,0.1867,0.4094,0.6193,0.6271,0.6634,0.7261,0.7417,0.0,0.0,0.0,0.0,0.0,0.0,0.0,0.0,0.0,0.0,0.0,0.0,0.0,0.0,0.0,0.0,0.0,0.0,0.0,0.0,0.0,0.0,0.0,0.0,0.0,0.0,0.0,-0.2247,0.0,0.0,0.0,0.0,0.0,0.0,0.0,0.0,0.0,0.0,0.0,0.0,0.0,0.0,-0.6666,-0.7013,-0.5549,-0.4673,0.0,0.0,-0.3593,-0.0471,0.2256,0.3383,0.0,0.0,0.0,0.0,0.0,0.0,0.0,0.0,0.0,0.0,0.0,0.0,0.0,0.0,0.0,0.0,0.0,0.0,0.0,0.0,0.0,0.0,0.0,0.0,0.0,0.0,0.0,0.0,0.0,0.0,0.0,0.0,0.0,0.0,0.0,0.0,0.0,0.0,0.0,0.0,0.0,0.0,0.0,0.0,0.0,0.0,0.0,0.0,0.0,0.0,0.0,0.0,0.0,0.0,0.0,0.551,0.3995,0.4165,0.6187,0.6268,0.6638,0.7261,0.7981,0.8126,0.0,0.0,0.0,0.0,0.0,0.0,0.0,0.0,0.0,0.0,0.0,0.0,0.0,0.0,0.0,0.0,0.0,0.0,0.0,0.0,0.0,0.0,0.0,0.0,0.0,0.0,0.0,0.0,0.0,0.0,0.0,0.0,0.0,0.0,0.0,0.0,0.0,0.0,0.0,0.0,0.0,-0.6163,-0.6964,-0.3234,-0.1771,0.0,0.0,-0.4135,-0.0516,0.0263,0.1267,0.3754,0.0,0.0,0.0,0.0,0.0,0.0,0.0,0.0,0.0,0.0,0.0,0.0,0.0,0.0,0.0,0.0,0.0,0.0,0.0,0.0,0.0,0.0,0.0,0.0,0.0,0.0,0.0,0.0,0.0,0.0,0.0,0.0,0.0,0.0,0.0,0.0,0.0,0.0,0.0,0.0,0.0,0.0,0.0,0.0,0.0,0.0,0.0,0.0,0.0,0.0,0.0,0.0,0.0,0.2071,0.6174,0.5483,0.5458,0.6261,0.6264,0.6783,0.791,0.8098,0.84,0.0,0.0,0.0,0.0,0.0,0.0,0.0,0.0,0.0,0.0,0.0,0.0,0.0,0.0,0.0,0.0,0.0,0.0,0.0,0.0,0.0,0.0,0.0,0.0,0.0,0.0,0.0,0.0,-0.2522,-0.1071,0.2302,0.0,0.0,0.0,0.0,0.0,0.0,0.0,0.0,0.0,0.0,-0.5154,-0.3042,-0.3631,0.0,0.0,0.0534,0.3158,0.4249,0.4138,0.3357,0.194,0.2457,0.0,0.0,0.0,0.0,0.0,0.0,0.0,0.0,0.0,0.0,0.0,0.0,0.0,0.0,0.0,0.0,0.0,0.0,0.0,0.0,0.0,0.0,0.0,0.0,0.0,0.0,0.0,0.0,0.0,0.0,0.0,0.0,0.0,0.0,0.0,0.0,0.0,0.0,0.0,0.0,0.0,0.0,0.0,0.0,0.0,0.0,0.0,0.0,0.0,0.0,0.0,0.0,0.1767,0.5272,0.5975,0.6296,0.6264,0.6264,0.7007,0.8408,0.8161,0.8628,0.0,0.0,0.0,0.0,0.0,0.0,0.0,0.0,0.0,0.0,0.0,0.0,0.0,0.0,0.0,0.0,0.0,0.0,0.0,0.0,0.0,0.0,0.0,0.0,0.0,0.0,0.0,0.0,-0.2638,-0.1264,0.1574,0.0,0.0,0.0,0.0,0.0,0.0,0.0,0.0,0.0,0.0,-0.3652,-0.0531,-0.2867,-0.3814,-0.0468,0.4404,0.7517,0.6992,0.6824,0.5635,0.2158,0.0,0.0,0.0,0.0,0.0,0.0,0.0,0.0,0.0,0.0,0.0,0.0,0.0,0.0,0.0,0.0,0.0,0.0,0.0,0.0,0.0,0.0,0.0,0.0,0.0,0.0,0.0,0.0,0.0,0.0,-0.018,0.0,0.0,0.0,0.0,0.0,0.0,0.0,0.0,0.0,0.0,0.0,0.0,0.0,0.0,0.0,0.0,0.0,0.0,0.0,0.0,0.0,0.0,0.1109,0.3184,0.5264,0.6289,0.6251,0.6261,0.7091,0.8656,0.831,0.8835,1.048,0.0,0.0,0.0,0.0,0.0,0.0,0.0,0.0,0.0,0.0,0.0,0.0,0.0,0.0,0.0,0.0,0.0,0.0,0.0,0.0,0.0,0.0,0.0,0.0,0.0,0.0,-0.2978,-0.2788,-0.1915,0.0,0.0,0.0,0.0,0.0,0.0,0.0,0.0,0.0,0.0,-0.401,-0.1742,-0.0266,0.0,-0.0183,0.0097,0.402,0.6824,0.6299,0.7148,0.7358,0.0,0.0,0.0,0.0,0.0,0.0,0.0,0.0,0.0,0.0,0.0,0.0,0.0,0.0,0.0,0.0,0.0,0.0,0.0,0.0,0.0,0.0,0.0,0.0,0.0,0.0,0.0,0.0,0.0,0.0,0.0,0.0,0.0,0.0,0.0,0.0,0.0,0.0,0.0,0.0,0.444,0.4677,0.0,0.0,0.0,0.0,0.0,0.0,0.0,0.0,0.0,0.0,0.0,0.0,0.4036,0.4797,0.5645,0.6198,0.6247,0.6261,0.7,0.8449,0.8322,0.8814,0.9937,0.0,0.0,0.0,0.0,0.0,0.0,0.0,0.0,0.0,0.0,0.0,0.0,0.0,0.0,0.0,0.0,0.0,0.0,0.0,0.0,0.0,0.0,0.0,0.0,0.0,-0.3114,0.0,0.0,0.0,0.0,0.0,0.0,0.0,0.0,0.0,0.0,0.0,-0.6194,-0.6727,-0.5692,-0.3683,-0.0465,0.0,0.1133,0.0,0.0,0.0,0.0,0.0,0.0,0.0,0.0,0.0,0.0,0.0,0.0,0.0,0.0,-0.3093,-0.4261,-0.4454,-0.4902,-0.6272,0.0,0.0,0.0,0.0,0.0,0.0,0.0,0.0,0.0,0.0,0.0,0.0,0.0,0.0,0.0,0.0,0.0,0.0,0.0,0.0,0.0,0.0,0.0,0.0,0.0,0.1518,0.3635,0.6237,0.6256,0.4882,0.0,0.1439,0.1081,0.0,0.0,0.0,0.0,0.0,0.0,0.0,0.0,0.5732,0.5724,0.6003,0.6169,0.6325,0.6644,0.7257,0.8097,0.898,0.9313,0.9137,0.6133,0.4314,0.0,0.0,0.0,0.0,0.0,0.0,0.0,0.0,0.0,0.0,0.0,0.0,0.0,0.0,0.0,0.0,0.0,0.0,0.0,0.0,0.0,0.0,0.0,-0.3293,0.0,0.0,0.0,0.0,0.0,0.0,0.0,0.0,0.0,-0.6498,-0.6363,-0.6299,-0.6729,-0.6693,-0.4993,-0.0571,0.0,0.0,0.0,0.0,0.0,0.0,0.0,0.7285,0.6921,0.6555,0.6691,0.7831,0.3585,0.0,0.0,0.0,0.0,-0.2559,-0.448,-0.5501,-0.4732,-0.6281,-0.745,-0.6795,-0.6944,-0.7072,0.0,0.0,0.0,0.0,0.0,0.0,0.0,0.0,0.0,0.0,0.0,0.0,0.0,0.0,0.0,0.0,0.0,0.0,0.0,0.0,0.4273,0.6224,0.6312,0.6312,0.6301,0.6169,0.4196,0.3209,0.312,0.119,0.0,0.0,0.0,0.0,0.0,0.0,0.6128,0.5773,0.6186,0.6345,0.6486,0.733,0.7855,0.799,1.0001,1.0085,0.8064,0.5787,0.4519,0.4526,0.3951,0.0,0.0,0.0,0.0,0.0,0.0,0.0,0.0,0.0,0.0,0.0,0.0,0.0,0.0,0.0,0.0,0.0,0.0,0.0,0.0,-0.3246,0.0,0.0,0.0,0.0,0.0,0.0,0.0,0.0,0.0,0.0,-0.5831,-0.5851,-0.5981,-0.6273,0.0,0.0,0.0,0.0,0.0,0.0,0.4544,0.6121,0.1144,0.4536,0.7449,0.654,0.0,0.0,0.7646,0.3409,0.0,0.0,0.0,0.0,0.0,-0.4052,-0.5769,-0.1342,-0.3698,-0.6533,-0.6729,-0.6949,-0.7562,0.2635,0.0,0.0,0.0,0.0,0.0,0.0,0.0,0.0,0.0,0.0,0.0,0.0,0.0,0.0,0.0,0.0,0.0,0.4501,0.4443,0.4196,0.4804,0.6313,0.6317,0.631,0.6236,0.5709,0.5416,0.5355,0.4803,0.2965,0.0098,0.0,0.0,0.0,0.0,0.6025,0.6829,0.7045,0.7597,0.8461,0.8694,0.914,0.9642,0.8203,0.7568,0.796,0.6162,0.515,0.5146,0.4591,0.0,0.0,0.0,0.0,0.0,0.0,0.0,0.0,0.0,0.0,0.0,0.0,0.0,0.0,0.0,0.0,0.0,0.0,0.0,-0.3272,-0.3514,-0.3622,0.0,0.0,0.0,0.0,0.0,0.0,0.0,0.0,0.0,-0.5439,-0.5885,-0.6334,0.0,0.0,-0.1558,-0.0195,0.0,0.0,0.0,0.0,0.0,0.0,0.5347,0.5696,0.7198,0.4595,0.2306,0.2274,0.1,0.0,0.0,0.0,0.0,0.0,-0.1164,0.0,-0.0468,-0.1127,-0.2651,-0.41,-0.4825,-0.5667,0.4585,0.2432,0.156,0.1232,0.1212,0.1227,0.1203,0.1261,0.1261,0.1241,0.1206,0.1246,0.1684,0.2382,0.0735,0.0,0.0,0.0,0.6289,0.6268,0.5088,0.5168,0.6391,0.6458,0.6709,0.708,0.6695,0.6652,0.7,0.6572,0.5043,0.2609,0.0,0.0,0.5516,0.5709,0.6254,0.727,0.7547,0.8187,0.9296,0.9296,0.9713,1.0413,0.8298,0.7121,0.6999,0.5937,0.5375,0.5374,0.4936,0.4383,0.0,0.0,0.0,0.0,0.0,0.0,0.0,0.0,0.0,0.0,0.0,0.0,0.0,0.0,0.0,0.0,-0.2523,-0.2805,-0.3535,-0.2728,0.0,0.0,0.0,0.0,0.0,0.0,0.0,-0.4303,-0.5029,-0.5465,-0.5405,-0.4444,-0.3908,-0.4204,-0.1774,0.0,0.0,0.0,0.0696,0.2808,0.5944,0.7989,0.7979,0.6623,0.5781,0.6237,0.2925,0.0,0.0,0.0,0.0,0.0,0.0,0.0,0.0,0.0,0.0,0.0,0.0,0.0,-0.1881,-0.2296,-0.2919,0.6167,0.6143,0.4229,0.3404,0.3326,0.3346,0.3385,0.3315,0.3323,0.3336,0.3383,0.3377,0.4442,0.6077,0.2267,0.0,0.3466,0.5419,0.6317,0.637,0.65,0.663,0.6767,0.6805,0.7432,0.8479,0.7514,0.7438,0.8149,0.7055,0.6381,0.6248,0.5183,0.5045,0.5847,0.6346,0.6937,0.752,0.786,0.8556,0.9528,0.9523,0.9942,1.0713,0.997,0.8289,0.5848,0.5463,0.5404,0.5311,0.509,0.4612,0.407,0.0,0.0,0.0,0.0,0.0,0.0,0.0,0.0,0.0,0.0,0.0,0.0,0.0,0.0,0.0,-0.3435,0.0,-0.3567,-0.142,0.0,0.0,0.0,-0.6336,-0.5841,-0.3835,-0.1849,-0.0181,0.0,0.0,-0.5138,0.0,0.0,0.0,0.0,0.0,0.0,0.0,0.1919,0.6911,0.8026,0.8012,0.8049,0.7905,0.6971,0.4655,0.182,0.0,0.0,0.0,0.0,0.0,0.0,0.0,0.0,0.0,0.0,0.0,0.0,0.0,0.0,0.0,0.0,0.6542,0.6539,0.6026,0.5736,0.5558,0.5767,0.5743,0.5521,0.5544,0.5514,0.5538,0.5547,0.5895,0.657,0.5551,0.5272,0.559,0.6331,0.6662,0.6647,0.6675,0.7104,0.7943,0.7979,0.8647,0.971,0.9466,0.9036,0.8337,0.8052,0.735,0.6321,0.601,0.6056,0.6492,0.8342,0.9296,0.9306,1.0041,1.0772,1.1558,1.1626,1.1573,1.1585,1.1576,1.0486,0.8053,0.633,0.5287,0.5037,0.4914,0.4763,0.4415,0.433,0.0,0.0,0.0,0.0,0.0,0.0,0.0,0.0,0.0,0.0,0.0,0.0,-0.3286,0.0,-0.1941,-0.1573,-0.3429,-0.1399,0.0,0.0,-0.0983,-0.1683,-0.1528,-0.3783,-0.3953,-0.0384,-0.0986,-0.1605,-0.1304,-0.0504,0.0,0.0,0.0,0.0,0.0,0.0,0.2025,0.7015,0.8272,0.8388,0.8387,0.8209,0.7142,0.4398,0.1784,0.0,0.0,0.0,0.0,0.0,0.0,0.0,0.0,0.0,0.0,0.0,0.0,0.0,0.0,0.0,0.0,0.6736,0.6702,0.6702,0.6569,0.6527,0.661,0.6642,0.6481,0.6481,0.6425,0.6277,0.6438,0.652,0.6677,0.6763,0.6606,0.6437,0.6678,0.6795,0.6798,0.7348,0.7955,0.8529,0.9113,0.9991,1.1078,1.0663,1.0279,1.0013,0.9514,0.8292,0.6545,0.646,0.7123,0.8413,0.9749,1.0518,1.067,1.1474,1.212,1.2498,1.2365,1.2164,1.1884,1.1914,1.1308,0.9964,0.6744,0.5227,0.5624,0.5029,0.484,0.5167,0.475,0.4197,0.0,0.0,0.0,0.0,0.0,0.0,0.0,0.0,0.0,0.0,0.0,-0.1988,0.0,-0.1752,-0.1743,-0.1931,-0.0808,0.0,0.0,0.0,0.0,0.0,-0.2044,-0.2556,0.0,0.0,0.0,0.0,0.0,0.0,0.0,0.0,0.0,0.0,0.0,0.1129,0.4182,0.6939,0.8657,0.8526,0.8226,0.7478,0.5859,0.2555,0.0,0.0,0.0,0.0,0.0,0.0,0.0,0.0,0.0,0.0,0.0,0.0,0.0,0.0,0.0,0.0,0.6827,0.6923,0.684,0.6923,0.7166,0.7003,0.6902,0.6702,0.6722,0.6629,0.6602,0.7109,0.7206,0.6975,0.7141,0.7065,0.6662,0.7087,0.7253,0.7344,0.84,0.9065,0.9239,1.0262,1.1381,1.2504,1.1558,1.1459,1.21,1.1155,0.9488,0.7278,0.7189,0.8457,1.091,1.1056,1.1345,1.195,1.2596,1.2896,1.2822,1.2492,1.2184,1.183,1.1574,1.1341,1.1228,0.6971,0.5251,0.655,0.5509,0.5126,0.5824,0.5057,0.4314,0.0,0.288,0.0,0.0,0.0,0.0,0.0,0.0,0.0,0.0,0.0,0.0,0.0,-0.1876,-0.2316,-0.0175,0.0,0.0,0.0,0.0,0.0,0.0,0.0,0.0,0.0,0.0,0.0,0.0,0.0,0.0,0.0,0.0,0.0,0.0,0.0,0.0,0.0,0.4391,0.7116,0.7654,0.7984,0.8107,0.7553,0.3552,0.0,0.0,0.0,0.0,0.0,0.0,0.0,0.0,0.0,0.0,0.0,0.0,0.0,0.0,0.0,0.0,0.7596,0.8356,0.7403,0.8088,0.98,0.8867,0.7769,0.6709,0.6831,0.7308,0.816,0.9836,0.9771,0.8468,0.9298,0.8687,0.7173,0.9009,0.989,0.9895,1.01,1.0716,1.1571,1.1878,1.2595,1.373,1.3561,1.3008,1.2257,1.2082,1.1277,0.9933,0.9847,1.1107,1.3313,0.0,0.0,0.0,1.3419,1.3233,1.2842,1.2768,1.2291,1.155,1.1398,0.0,1.0649,0.7185,0.5878,0.7215,0.6878,0.0,0.0,0.0,0.0,0.0,0.0,0.0,0.0,0.0,0.0,0.0,0.0,0.0,0.0,0.0,0.0,0.0,-0.0441,-0.0463,0.0,0.0,0.0,0.0,0.0,0.0,0.0,0.0,0.0,0.0,0.0,0.0,0.0,0.0,0.0,0.0,0.0,0.0,0.0,0.0,0.0,0.0,0.0,0.0,0.4875,0.7,0.8121,0.8039,0.3889,0.0,0.0,0.0,0.0,0.0,0.0,0.0,0.0,0.0,0.0,0.0,0.0,0.0,0.0,0.0,0.0,0.7841,0.0,0.8277,0.8969,0.0,1.0009,0.9293,0.8607,0.87,0.8845,0.9074,1.0831,1.1085,1.0228,0.9862,0.9393,0.8886,0.9492,1.0676,1.2273,1.1705,1.1724,1.2322,1.2942,1.347,1.4082,1.4088,1.3815,1.3203,1.3209,1.2863,1.2345,1.2345,1.2887,1.4064,1.407,1.4055,1.3868,1.3714,1.35,1.3193,1.2899,1.2533,1.1891,0.0,0.0,0.0,0.0,0.0,0.0,0.0,0.0,0.0,0.0,0.0,0.3788,0.1427,0.0,0.0,0.0,0.0,0.0,0.0,0.0,0.0,0.0,0.0,0.0,0.0,0.0,0.0,0.0,0.0,0.0,0.0,0.0,0.0,0.0,0.0,0.0,0.0,0.0,0.0,0.0,0.0,0.0,0.0,0.0,0.0,0.0,0.0,0.0,0.0,0.0,0.2014,0.3361,0.0,0.4038,0.2018,0.0,0.0,0.0,0.0,0.0,0.0,0.0,0.0,0.0,0.0,0.0,0.0,0.0,0.0,0.0,0.0,0.7841,0.889,0.8632,0.9488,1.0869,1.0697,1.0869,1.1219,0.0,0.0,0.0,1.1591,1.206,1.171,1.0371,0.9854,0.9956,0.957,1.1142,1.4002,1.3047,1.2589,1.2681,1.3646,1.4088,1.4088,1.4088,1.4088,1.4088,1.4088,1.4088,1.4088,1.4088,1.4088,1.4088,1.4088,1.4088,1.4075,1.3848,1.3701,1.3634,1.316,1.2656,1.2087,1.1726,1.0395,0.8051,0.5898,0.5287,0.6222,0.626,0.6423,0.6596,0.5895,0.5464,0.5319,0.264,0.0,0.0,0.0,0.0,0.0,0.0,0.0,0.0,0.0,0.0,0.0,0.0,0.0,0.0,0.0,0.0,0.0,0.0,0.0,0.0,0.0,0.0,0.0,0.0,0.0,0.0,0.0,0.0,0.0,0.0,0.0,0.0,0.0,0.0,0.0,0.0,0.0,0.0,0.0,0.0,0.0,0.0,0.0,0.0,0.0,0.0,0.0,0.0,0.0,0.0,0.0,0.0,0.0,0.0,0.0,0.0,0.0,0.0,0.7753,0.8803,0.7753,0.9222,1.1986,1.1037,1.174,1.3476,1.2504,1.1975,1.1975,1.3215,1.3033,1.1878,1.2857,1.1277,0.7804,1.0269,1.236,0.0,1.3932,1.3822,1.3822,1.3997,1.4088,1.4088,1.4088,1.4088,1.4088,1.4088,1.4088,1.4088,1.4088,1.4088,1.4088,1.4088,1.4088,1.4088,1.4041,1.3901,1.3566,1.3479,1.2763,1.1307,1.186,1.0733,0.7829,0.6634,0.612,0.629,0.6321,0.6307,0.6377,0.5962,0.5666,0.5671,0.5004,0.3294,0.0,0.0,0.0,0.0,0.0,0.0,0.0,0.0,0.0,0.0,0.0,0.0,0.0,0.0,0.0,0.0,0.0,0.0,0.0,0.0,0.0,0.0,0.0,0.0,0.0,0.0,0.0,0.0,0.0,0.0,0.0,0.0,0.0,0.0,0.0,0.0,0.0,0.0,0.0,0.0,0.0,0.0,0.0,0.0,0.0,0.0,0.0,0.0,0.0,0.0,0.0,0.0,0.0,0.0,0.0,0.0,0.0,0.7753,0.8803,0.8277,0.9314,1.1381,1.1466,1.251,1.3997,1.3555,1.3294,1.3294,1.3913,1.373,1.3099,1.2917,1.2196,1.0931,1.1544,1.2638,1.4064,1.4102,1.4088,1.4088,1.4088,1.4088,1.4088,1.4088,1.4088,1.4088,1.4088,1.4088,1.4088,1.4088,1.4088,1.4088,1.4088,1.4088,1.4088,1.4088,1.4021,1.3881,1.3042,1.2249,1.1519,1.1141,1.0058,0.8245,0.6984,0.6363,0.6613,0.6434,0.6344,0.6491,0.6351,0.6275,0.629,0.601,0.4132,0.0253,0.0,0.0,0.0,0.0,0.0,0.0,0.0,0.0,0.0,0.0,0.0,0.0,0.0,0.0,0.0,0.0,0.0,0.0,0.0,0.0,0.0,0.0,0.0,0.0,0.0,0.0,0.0,0.0,0.0,0.0,0.0,0.0,0.0,0.0,0.0,0.0,0.0,0.0,0.0,0.0,0.0,0.0,0.0,0.0,0.0,0.0,0.0,0.0,0.0,0.0,0.0,0.0,0.0,0.0,0.0,0.0,0.7665,0.8452,0.854,0.9148,1.0351,1.1724,1.2851,1.373,1.3997,1.4088,1.4088,1.4088,1.4088,1.399,1.2832,1.296,1.3815,1.2863,1.296,1.3998,1.4122,1.4088,1.4088,1.4088,1.4088,1.4088,1.4088,1.4088,1.4088,1.4088,1.4088,1.4088,1.4088,1.4088,1.4088,1.4088,1.4088,1.4088,1.4088,1.3997,1.3639,1.2469,1.16,1.1182,1.0372,0.9367,0.8247,0.713,0.6529,0.6785,0.6612,0.6546,0.6749,0.6749,0.6696,0.6681,0.5575,0.3441,0.0,0.0,0.0,0.0,0.0,0.0,0.0,0.0,0.0,0.0,0.0,0.0,0.0,0.0,0.0,0.0,0.0,0.0,0.0,0.0,0.0,0.0,0.0,0.0,0.0,0.0,0.0,0.0,0.0,0.0,0.0,0.0,0.0,0.0,0.0,0.0,0.0,0.0,0.0,0.0,0.0,0.0,0.0,0.0,0.0,0.0,0.0,0.0,0.0,0.0,0.0,0.0,0.0,0.0,0.0,0.0,0.0,0.7139,0.7228,0.7316,0.7925,0.9318,1.1381,1.2328,1.2674,1.3646,1.4088,1.4088,1.4088,1.4088,1.4082,1.3906,1.3919,1.4102,1.3913,1.3913,1.4095,1.4088,1.4088,1.4088,1.4088,1.4088,1.4088,1.4088,1.4088,1.4088,1.4088,1.4088,1.4088,1.4088,1.4088,1.4088,1.4088,1.4088,1.4088,1.4088,1.3555,1.2498,1.202,1.0984,0.9205,1.0023,0.9413,0.7247,0.7035,0.6957,0.6785,0.6881,0.6944,0.6888,0.6734,0.68,0.6868,0.3073,0.0369,0.0,0.0,0.0,0.0,0.0,0.0,0.0,0.0,0.0,0.0,0.0,0.0,0.0,0.0,0.0,0.0,0.0,0.0,0.0,0.0,0.0,0.0,0.0,0.0,0.0,0.0,0.0,0.0,0.0,0.0,0.0,0.0,0.0,0.0,0.0,0.0,0.0,0.0,0.0,0.0,0.0,0.0,0.0,0.0,0.0,0.0,0.0,0.0,0.0,0.0,0.0,0.0,0.0,0.0,0.0,0.0,0.0,0.7139,0.7139,0.7139,0.7753,0.8973,0.9923,1.1037,1.2328,1.2851,1.3385,1.4088,1.4088,1.4088,1.4088,1.4088,1.4088,1.4088,1.4088,1.4088,1.4088,1.4088,1.4088,1.4088,1.4088,1.4088,1.4088,1.4088,1.4088,1.4088,1.4088,1.4088,1.4088,1.4088,1.4088,1.4088,1.4088,1.3737,1.3027,1.2838,1.1969,1.0423,0.9479,0.8966,0.8873,0.8661,0.8111,0.7138,0.708,0.7052,0.6959,0.7049,0.708,0.7051,0.6964,0.6956,0.6853,0.2599,0.0,0.0,0.0,0.0,0.0,0.0,0.0,0.0,0.0,0.0,0.0,0.0,0.0,0.0,0.0,0.0,0.0,0.0,0.0,0.0,0.0,0.0,0.0,0.0,0.0,0.0,0.0,0.0,0.0,0.0,0.0,0.0,0.0,0.0,0.0,0.0,0.0,0.0,0.0,0.0,0.0,0.0,0.0,0.0,0.0,0.0,0.0,0.0,0.0,0.0,0.0,0.0,0.0,0.0,0.0,0.0,0.0,-0.4571,0.7139,0.7139,0.7139,0.758,0.8456,0.8803,0.9836,1.1381,1.1986,1.2766,1.3561,1.3913,1.4088,1.4088,1.4088,1.4088,1.4088,1.4088,1.4088,1.4088,1.4088,1.4088,1.4088,1.4088,1.4088,1.4088,1.4088,1.4088,1.4088,1.4088,1.4088,1.4088,1.4088,1.4088,1.399,1.3542,1.2917,1.2328,1.1605,1.0408,0.8956,0.7748,0.7483,0.8269,0.7577,0.7139,0.7139,0.7139,0.7139,0.7139,0.7139,0.716,0.7204,0.7207,0.6653,0.5053,0.1998,0.0,0.0,0.0,0.0,0.0,0.0,0.0,0.0,0.0,0.0,0.0,0.0,0.0,0.0,0.0,0.0,0.0,0.0,0.0,0.0,0.0,0.0,0.0,0.0,0.0,0.0,0.0,0.0,0.0,0.0,0.0,0.0,0.0,0.0,0.0,0.0,0.0,0.0,0.0,0.0,0.0,0.0,0.0,0.0,0.0,0.0,0.0,0.0,0.0,0.0,0.0,0.0,0.0,0.0,0.0,0.0,0.0,-0.7572,0.7139,0.7139,0.7139,0.7143,0.7316,0.8364,0.8886,0.941,1.1295,1.2322,1.2589,1.3561,1.4082,1.4088,1.4088,1.4088,1.4088,1.4088,1.4088,1.4088,1.4088,1.4088,1.4088,1.4088,1.4088,1.4088,1.4088,1.4088,1.4088,1.4088,1.4088,1.4088,1.4088,1.4082,1.3633,1.1912,1.1305,1.1792,1.0484,0.936,0.879,0.7701,0.7179,0.7234,0.7143,0.7139,0.7139,0.7139,0.7139,0.7139,0.7149,0.721,0.7336,0.7458,0.5521,0.1159,0.0,0.0,0.0,0.0,0.0,0.0,0.0,0.0,0.0,0.0,0.0,0.0,0.0,0.0,0.0,0.0,0.0,0.0,0.0,0.0,0.0,0.0,0.0,0.0,0.0,0.0,0.0,0.0,0.0,0.0,0.0,0.0,0.0,0.0,0.0,0.0,0.0,0.0,0.0,0.0,0.0,0.0,0.0,0.0,0.0,0.0,0.0,0.0,0.0,0.0,0.0,0.0,0.0,0.0,0.0,0.0,0.0,0.0,-0.7253,0.7139,0.7139,0.7139,0.7139,0.7139,0.7577,0.8193,0.8978,0.9749,1.095,1.2242,1.2766,1.3379,1.4088,1.4088,1.4088,1.4088,1.4088,1.4088,1.4088,1.4088,1.4088,1.4088,1.4088,1.4088,1.4088,1.4088,1.4088,1.4088,1.4088,1.4088,1.4088,1.4088,1.3444,1.1997,1.1017,1.053,1.0086,0.9392,0.8698,0.7845,0.7298,0.717,0.7275,0.719,0.7139,0.7139,0.7139,0.7139,0.7139,0.7324,0.7406,0.7383,0.7483,0.5298,0.0,0.0,0.0,0.0,0.0,0.0,0.0,0.0,0.0,0.0,0.0,0.0,0.0,0.0,0.0,0.0,0.0,0.0,0.0,0.0,0.0,0.0,0.0,0.0,0.0,0.0,0.0,0.0,0.0,0.0,0.0,0.0,0.0,0.0,0.0,0.0,0.0,0.0,0.0,0.0,0.0,0.0,0.0,0.0,0.0,0.0,0.0,0.0,0.0,0.0,0.0,0.0,0.0,0.0,0.0,0.0,0.0,0.0,0.0,-0.6416,0.7139,0.7139,0.7139,0.7139,0.7139,0.7139,0.758,0.8364,0.8719,0.9753,1.1128,1.1552,1.2419,1.3476,1.3939,1.4108,1.4088,1.4088,1.4088,1.4088,1.4088,1.4088,1.4088,1.4088,1.4088,1.4088,1.4088,1.4088,1.4088,1.4088,1.4102,1.4128,1.4128,1.2948,1.0888,0.9971,0.934,0.8966,0.8682,0.8095,0.7379,0.7292,0.7336,0.7414,0.7343,0.7198,0.7105,0.7105,0.7195,0.7302,0.758,0.766,0.7636,0.7694,0.6238,0.2965,0.0,0.0,0.0,0.0,0.0,0.0,0.0,0.0,0.0,0.0,0.0,0.0,-0.1817,-0.222,0.0,0.0,0.0,0.0,0.0,0.0,0.0,0.0,0.0,0.0,0.0,0.0,0.0,0.0,0.0,0.0,0.0,0.0,0.0,0.0,0.0,0.0,0.0,0.0,0.0,0.0,0.0,0.0,0.0,0.0,0.0,0.0,0.0,0.0,0.0,0.0,0.0,0.0,0.0,0.0,0.0,0.0,0.0,0.0,-0.5808,0.7139,0.7139,0.7139,0.7139,0.7139,0.7139,0.7139,0.7401,0.8364,0.889,0.9497,1.0183,1.1295,1.2425,1.3632,1.4083,1.4095,1.4088,1.4088,1.4088,1.4088,1.4088,1.4088,1.4088,1.4088,1.4088,1.4088,1.4088,1.4088,1.4088,1.4128,1.411,1.3835,1.2484,1.0443,0.881,0.82,0.8635,0.8129,0.766,0.7594,0.7563,0.757,0.7597,0.7587,0.749,0.7208,0.7198,0.7363,0.7573,0.7785,0.7974,0.7921,0.7684,0.7685,0.6667,0.2928,0.0,0.0,0.0,0.0,0.0,0.0,0.0,0.0,0.0,0.0,0.0,-0.4446,-0.5761,-0.1618,0.0,0.0,0.0,0.0,0.0,0.0,0.0,0.0,0.0,0.0,0.0,0.0,0.0,0.0,0.0,0.0,0.0,0.0,0.0,0.0,0.0,0.0,0.0,0.0,0.0,0.0,0.0,0.0,0.0,0.0,0.0,0.0,0.0,0.0,0.0,0.0,0.0,0.0,0.0,0.0,0.0,0.0,-0.5192,-0.6469,0.7139,0.7139,0.7139,0.7139,0.7139,0.7139,0.7139,0.7139,0.7577,0.8285,0.9165,0.9414,1.0346,1.198,1.3455,1.4083,1.4095,1.4088,1.4088,1.4088,1.4088,1.4088,1.4088,1.4088,1.4088,1.4088,1.4088,1.4088,1.4082,1.4082,1.4128,1.3835,1.2516,1.0641,0.8746,0.7904,0.7811,0.7973,0.7754,0.7597,0.7597,0.76,0.7648,0.7733,0.765,0.7697,0.7707,0.7719,0.7799,0.7904,0.7988,0.8021,0.7674,0.6221,0.6152,0.7196,0.2929,0.0,0.0,0.0,0.0,0.0,0.0,0.0,0.0,0.0,-0.1716,-0.4549,-0.7098,-0.6989,-0.5879,-0.5464,-0.378,0.0,0.0,0.0,0.0,0.0,0.0,0.0,0.0,0.0,0.0,0.0,0.0,0.0,0.0,0.0,0.0,0.0,0.0,0.0,0.0,0.0,0.0,0.0,0.0,0.0,0.0,0.0,0.0,0.0,0.0,0.0,0.0,-0.4711,-0.4597,-0.3921,-0.2685,-0.189,0.0,0.0,0.0,-0.6749,-0.7764,0.7139,0.7139,0.7139,0.7139,0.7139,0.7139,0.7139,0.7139,0.7139,0.7669,0.8464,0.8372,0.886,1.0317,1.2312,1.3566,1.4044,1.4102,1.4088,1.4088,1.4088,1.4088,1.4088,1.4088,1.3822,1.347,1.3464,1.3209,1.2784,1.2869,1.3212,1.3576,1.1777,0.9614,0.7786,0.7714,0.775,0.7668,0.7736,0.7763,0.7763,0.7763,0.7807,0.7882,0.7798,0.7858,0.7952,0.7979,0.7976,0.799,0.7966,0.7967,0.7865,0.6453,0.5448,0.4241,0.0,0.0,0.0,0.0,0.0,0.0,0.0,0.0,0.0,0.0,-0.4549,-0.5962,-0.739,-0.7999,-0.7908,-0.7929,-0.5523,0.0,0.0,0.0,0.0,0.0,0.0,0.0,0.0,0.0,0.0,0.0,0.0,0.0,0.0,0.0,0.0,0.0,0.0,0.0,0.0,0.0,0.0,0.0,0.0,0.0,0.0,0.0,0.0,0.0,0.0,0.0,0.0,-0.5833,-0.6058,-0.5714,-0.4808,-0.4319,-0.4046,-0.5634,-0.7298,-0.7389,-0.7975,0.7139,0.7139,0.7139,0.7139,0.7139,0.7139,0.7139,0.7139,0.7139,0.7143,0.7231,0.7316,0.7291,0.7876,1.0371,1.2439,1.3854,1.3854,1.3919,1.401,1.3919,1.3822,1.3822,1.3561,1.3033,1.2334,1.2242,1.1729,1.1047,1.1047,1.1684,1.3205,1.1551,0.9574,0.8077,0.7858,0.787,0.7831,0.795,0.8007,0.8007,0.8018,0.8018,0.8024,0.7925,0.7942,0.7962,0.7633,0.7637,0.7962,0.7949,0.7653,0.7475,0.7701,0.5665,0.0,0.0,0.0,0.0,0.0,0.0,0.0,0.0,-0.2423,-0.6382,-0.6894,-0.6374,-0.5438,-0.6856,-0.7982,-0.8006,-0.7998,-0.5471,0.0,0.0,0.0,0.0,0.0,0.0,0.0,0.0,0.0,0.0,0.0,0.0,0.0,0.0,0.0,0.0,0.0,0.0,0.0,0.0,0.0,0.0,0.0,0.0,0.0,0.0,0.0,-0.5949,-0.6626,-0.7049,-0.5806,-0.5121,-0.6591,-0.7357,-0.6976,-0.6944,-0.6875,-0.7231,-0.8236,-0.834,-0.8104,-0.8004,0.7139,0.7139,0.7139,0.7139,0.7139,0.7139,0.7139,0.7139,0.7139,0.7139,0.7139,0.7139,0.7115,0.7344,0.8873,1.1223,1.3102,1.3095,1.3332,1.39,1.3137,1.2772,1.2595,1.1906,1.1386,1.1042,1.1037,1.0869,1.0611,1.0438,1.085,1.1494,1.0828,0.9629,0.8188,0.7907,0.7973,0.795,0.8007,0.8035,0.8038,0.8038,0.8038,0.8038,0.7955,0.7969,0.7779,0.6039,0.6139,0.7872,0.7975,0.6034,0.3412,0.5653,0.526,0.0,0.0,0.0,0.0,0.0,0.0,0.0,-0.3332,-0.6486,-0.7717,-0.8026,-0.7601,-0.7071,-0.7695,-0.8002,-0.7999,-0.7935,-0.5315,0.0,0.0,0.0,0.0,0.0,0.0,0.0,0.0,0.0,0.0,0.0,0.0,0.0,0.0,0.0,0.0,0.0,0.0,0.0,0.0,0.0,0.0,0.0,0.0,0.0,0.0,0.0,-0.7695,-0.8069,-0.8131,-0.7636,-0.7027,-0.791,-0.8148,-0.8065,-0.8471,-0.8488,-0.8381,-0.8387,-0.8309,-0.8096,-0.8029,0.7139,0.7139,0.7139,0.7139,0.7139,0.7139,0.7139,0.7139,0.7139,0.7139,0.7139,0.7139,0.7126,0.7281,0.844,0.9602,1.1034,1.1499,1.2015,1.2307,1.1322,1.1128,1.1295,1.0783,1.0351,0.9927,0.9836,0.9575,0.9139,0.9139,0.9165,0.913,0.9101,0.8619,0.7756,0.7775,0.7903,0.7899,0.7946,0.7967,0.8031,0.8038,0.8045,0.7952,0.7965,0.7979,0.7691,0.5443,0.5236,0.7366,0.7775,0.6037,0.2406,0.3323,0.3232,0.0,0.0,0.0,0.0,0.0,0.0,0.0,-0.4956,-0.7503,-0.8012,-0.8009,-0.8002,-0.7885,-0.8002,-0.7999,-0.7785,-0.7068,-0.4349,0.0,-0.1962,-0.2314,-0.0431,0.0,0.0,0.0,0.0,0.0,0.0,0.0,0.0,0.0,0.0,0.0,0.0,0.0,0.0,0.0,0.0,0.0,0.0,0.0,-0.6717,-0.7598,-0.8128,-0.8304,-0.8429,-0.8709,-0.8547,-0.836,-0.8545,-0.8604,-0.8513,-0.8553,-0.8567,-0.8435,-0.8323,-0.8241,-0.8177,-0.8143,-0.8072,0.7139,0.7139,0.7139,0.7139,0.7143,0.7146,0.7149,0.7146,0.7146,0.7146,0.7146,0.7143,0.7139,0.7143,0.8013,0.8169,0.7526,0.9643,1.026,1.0274,0.9666,0.9579,0.9918,0.9918,0.9401,0.8798,0.8711,0.8189,0.7749,0.7404,0.7228,0.7429,0.7355,0.7245,0.7217,0.7413,0.7651,0.7801,0.7838,0.7913,0.8011,0.8038,0.7949,0.7969,0.7979,0.7999,0.7196,0.5354,0.4736,0.7892,0.7992,0.6762,0.4323,0.1915,0.0,0.0,0.0,0.0,0.0,0.0,0.0,0.0,-0.4243,-0.7607,-0.7695,-0.8002,-0.7999,-0.7985,-0.7989,-0.7995,-0.7782,-0.5934,-0.4216,-0.2717,-0.545,-0.5124,-0.2302,-0.0848,-0.0638,0.0,0.0,0.0,0.0,0.0,0.0,0.0,0.0,0.0,0.0,0.0,0.0,0.0,0.0,0.0,0.0,0.0,-0.5032,-0.7284,-0.7902,-0.819,-0.8269,-0.8404,-0.8404,-0.8486,-0.8479,-0.8445,-0.8381,-0.8353,-0.8446,-0.8402,-0.8204,-0.8244,-0.8192,-0.8085,-0.8038,0.7139,0.7139,0.7139,0.7149,0.7078,0.7078,0.7074,0.6989,0.7071,0.6962,0.7071,0.7146,0.7139,0.7139,0.7401,0.7305,0.7295,0.8615,0.9235,0.9235,0.9065,0.8364,0.8097,0.8009,0.7837,0.7577,0.7492,0.7404,0.7139,0.7139,0.7139,0.7153,0.7094,0.7068,0.7171,0.7207,0.746,0.7756,0.7804,0.7862,0.7984,0.8021,0.7942,0.7972,0.7691,0.7818,0.7006,0.3429,0.3324,0.6681,0.7915,0.7604,0.6271,0.2523,0.0,0.0,0.0,0.0,0.0,0.0,0.0,0.0,0.0,-0.3525,-0.7711,-0.7915,-0.8016,-0.8019,-0.8032,-0.8029,-0.7905,-0.7582,-0.6545,-0.6237,-0.6856,-0.7598,-0.6532,-0.61,-0.4181,-0.1898,-0.2011,-0.2445,-0.0534,0.0,0.0,0.0,0.0,0.0,0.0,0.0,0.0,0.0,0.0,-0.2423,-0.3791,-0.4208,-0.5557,-0.7333,-0.782,-0.8107,-0.8183,-0.82,-0.8343,-0.834,-0.8319,-0.8279,-0.8238,-0.8184,-0.816,-0.8123,-0.821,-0.8082,-0.8058,-0.8041,-0.8333,0.7035,0.7135,0.7139,0.7142,0.6887,0.5915,0.5478,0.548,0.5475,0.6129,0.6981,0.7149,0.7088,0.7149,0.7143,0.7139,0.7228,0.7665,0.8017,0.8017,0.8017,0.7669,0.7316,0.7139,0.7139,0.7139,0.7139,0.7139,0.7139,0.7139,0.7139,0.7139,0.7139,0.7088,0.7155,0.7082,0.7285,0.7546,0.7611,0.7678,0.7811,0.7913,0.7915,0.716,0.5763,0.4248,0.3743,0.1716,0.1714,0.4041,0.6592,0.7932,0.7101,0.0,0.0,0.0,0.0,0.0,0.0,0.0,0.0,0.0,0.0,0.0,-0.444,-0.6276,-0.8016,-0.8019,-0.8026,-0.8029,-0.8002,-0.7979,-0.7965,-0.7962,-0.7962,-0.7962,-0.7975,-0.7948,-0.719,-0.4646,-0.5169,-0.5099,-0.4174,-0.261,0.0,0.0,0.0,0.0,0.0,0.0,0.0,0.0,0.0,-0.4778,-0.6657,-0.7261,-0.7004,-0.7808,-0.7877,-0.8056,-0.8032,-0.8174,-0.8228,-0.8211,-0.8191,-0.8147,-0.8106,-0.8045,-0.8038,-0.8058,-0.8065,-0.8045,-0.8237,-0.8733,-0.9122,0.6386,0.6562,0.6576,0.6753,0.6753,0.5053,0.3871,0.3023,0.3017,0.3914,0.5783,0.6313,0.6461,0.7021,0.7115,0.7122,0.7149,0.7149,0.733,0.733,0.733,0.7245,0.7153,0.7153,0.7149,0.7146,0.7143,0.7139,0.7139,0.7139,0.7139,0.7139,0.7139,0.7149,0.7146,0.7149,0.7244,0.74,0.7424,0.7492,0.7621,0.7753,0.7784,0.7177,0.3304,0.0,0.0,0.0,0.0,0.0,0.4356,0.6292,0.567,0.0,0.0,0.0,0.0,0.0,0.0,0.0,0.0,0.0,0.0,0.0,-0.1712,-0.4849,-0.75,-0.8009,-0.8009,-0.8002,-0.7975,-0.7955,-0.8045,-0.8041,-0.8038,-0.8038,-0.8045,-0.7965,-0.7691,-0.7695,-0.7018,-0.6751,-0.6452,-0.5526,-0.3472,-0.2141,-0.3536,-0.3917,-0.201,0.0,0.0,0.0,0.0,-0.5843,-0.7496,-0.8014,-0.7955,-0.8026,-0.7975,-0.7962,-0.8041,-0.8085,-0.813,-0.8092,-0.8065,-0.8045,-0.8045,-0.8041,-0.8038,-0.8038,-0.8038,-0.8134,-0.873,-0.9624,-0.9908,0.4163,0.4209,0.4174,0.5301,0.685,0.6592,0.403,0.0925,0.0,0.0,0.1515,0.3288,0.5217,0.6535,0.7101,0.7068,0.6763,0.6505,0.6615,0.6802,0.6808,0.6815,0.6723,0.6631,0.6811,0.7078,0.7153,0.7146,0.7139,0.7139,0.7139,0.7139,0.7139,0.7139,0.7139,0.7146,0.7207,0.7322,0.7353,0.7428,0.7539,0.7628,0.7311,0.6915,0.2353,0.0,0.0,0.0,0.0,0.0,0.0,0.0,0.0,0.0,0.0,0.0,0.0,0.0,0.0,0.0,0.0,0.0,-0.343,-0.3633,-0.2724,-0.4647,-0.75,-0.8009,-0.7992,-0.7979,-0.7975,-0.7952,-0.8041,-0.8038,-0.8038,-0.8038,-0.8041,-0.7949,-0.7955,-0.7955,-0.7959,-0.7965,-0.7485,-0.7296,-0.6078,-0.4962,-0.5651,-0.6342,-0.5436,-0.3618,0.0,0.0,0.0,-0.7598,-0.7999,-0.8009,-0.7992,-0.7982,-0.8052,-0.8052,-0.8038,-0.8038,-0.8038,-0.8038,-0.8038,-0.8041,-0.8041,-0.8038,-0.8038,-0.8038,-0.8134,-0.8333,-0.9221,-1.0105,-1.0783,0.3718,0.1765,0.1697,0.2352,0.3332,0.3415,0.2193,0.0,0.0,0.0,0.0,0.1319,0.3087,0.4763,0.5299,0.5331,0.5114,0.3854,0.422,0.4939,0.5252,0.5282,0.528,0.528,0.528,0.5636,0.6352,0.7068,0.7139,0.7139,0.7139,0.7139,0.7139,0.7139,0.7139,0.7143,0.7187,0.7265,0.7188,0.7218,0.7312,0.7379,0.6517,0.3529,0.0,0.0,0.0,0.0,0.0,0.0,0.0,0.0,0.0,0.0,0.0,0.0,0.0,0.0,0.0,-0.2121,0.0,0.0,-0.5658,-0.555,-0.5044,-0.657,-0.7905,-0.7995,-0.7975,-0.7955,-0.7955,-0.8045,-0.8038,-0.8038,-0.8038,-0.8038,-0.8038,-0.8038,-0.8038,-0.8038,-0.8045,-0.7952,-0.7952,-0.7862,-0.7962,-0.7962,-0.7962,-0.7972,-0.7979,-0.6545,-0.4516,-0.5834,-0.7982,-0.7975,-0.7969,-0.7962,-0.7962,-0.7949,-0.8038,-0.8038,-0.8038,-0.8038,-0.8038,-0.8038,-0.8038,-0.8038,-0.8038,-0.8038,-0.8038,-0.8038,-0.8237,-0.8627,-0.9608,-1.0583,-1.1453,0.2431,-0.0628,-0.0627,-0.0392,0.0,0.0,0.0,0.0,0.0,0.0,0.0,0.0,0.1142,0.2493,0.2849,0.2856,0.2687,0.0855,0.1461,0.2507,0.29,0.2839,0.2929,0.3481,0.3846,0.4383,0.6103,0.7091,0.7068,0.7149,0.7146,0.7143,0.7139,0.7146,0.7149,0.7149,0.7071,0.6989,0.6539,0.6545,0.6962,0.6872,0.4829,0.0,0.0,0.0,0.0,0.0,0.0,0.0,0.0,0.0,0.0,0.0,0.0,-0.1204,-0.0704,-0.0504,-0.2623,-0.4949,-0.7089,-0.7089,-0.5847,-0.6348,-0.7062,-0.7478,-0.7985,-0.7972,-0.7955,-0.8041,-0.8041,-0.8038,-0.8038,-0.8038,-0.8038,-0.8038,-0.8038,-0.8038,-0.8038,-0.8038,-0.8038,-0.8041,-0.8045,-0.8045,-0.7949,-0.7949,-0.7952,-0.7952,-0.7962,-0.7962,-0.6939,-0.725,-0.7969,-0.7965,-0.7959,-0.7952,-0.7949,-0.8041,-0.8038,-0.8038,-0.8038,-0.8038,-0.8038,-0.8038,-0.8038,-0.8038,-0.8038,-0.8038,-0.8038,-0.8038,-0.8237,-0.8817,-0.9972,-1.1439,-1.2711,-0.2267,-0.2734,-0.2734,-0.172,0.0,0.0,0.0,0.0,0.0,0.0,0.0,0.0,0.0,0.0,0.0,0.0,0.0336,-0.0168,-0.0506,0.0,0.0345,0.061,0.0875,0.2767,0.3031,0.3298,0.5468,0.693,0.6907,0.6897,0.7071,0.7149,0.7146,0.7149,0.7078,0.7078,0.7088,0.6732,0.5097,0.4924,0.6397,0.6613,0.3987,0.0,0.0,0.0,0.0,0.0,0.0,0.0,0.0,-0.2211,-0.4724,-0.2046,-0.3234,-0.4046,-0.3677,-0.2006,-0.5744,-0.7381,-0.7995,-0.7995,-0.7363,-0.7672,-0.7875,-0.7975,-0.7972,-0.7975,-0.7955,-0.8041,-0.8038,-0.8038,-0.8038,-0.8038,-0.8038,-0.8038,-0.8038,-0.8038,-0.8038,-0.8038,-0.8038,-0.8038,-0.8041,-0.8038,-0.8038,-0.8038,-0.8038,-0.8041,-0.8045,-0.7949,-0.7949,-0.7955,-0.7959,-0.7952,-0.7952,-0.8045,-0.8041,-0.8038,-0.8038,-0.8038,-0.8038,-0.8038,-0.8038,-0.8038,-0.8038,-0.8038,-0.8038,-0.8038,-0.8038,-0.8233,-0.8627,-0.9387,-1.0422,-1.1991,-1.3674,-0.4932,-0.4937,-0.4859,-0.4389,-0.329,-0.1096,0.0,0.0,0.0,0.0,0.0,0.0,0.0,0.0,0.0,0.0,0.0,-0.2299,-0.3551,-0.2982,-0.2273,-0.1192,0.0,0.1033,0.1561,0.1849,0.2651,0.3733,0.4814,0.6367,0.7091,0.7081,0.7081,0.7084,0.6637,0.7002,0.7104,0.6112,0.3857,0.2242,0.2784,0.0,0.0,0.0,0.0,0.0,0.0,0.0,0.0,0.0,-0.208,-0.4778,-0.6227,-0.5379,-0.5485,-0.7056,-0.6066,-0.5854,-0.7556,-0.7975,-0.7982,-0.7975,-0.7965,-0.7955,-0.7962,-0.7959,-0.7955,-0.7955,-0.8045,-0.8038,-0.8038,-0.8038,-0.8038,-0.8038,-0.8038,-0.8038,-0.8038,-0.8038,-0.8038,-0.8038,-0.8038,-0.8038,-0.8038,-0.8038,-0.8038,-0.8038,-0.8038,-0.8038,-0.8041,-0.8041,-0.8041,-0.8041,-0.8041,-0.8041,-0.8041,-0.8038,-0.8041,-0.8038,-0.8038,-0.8038,-0.8038,-0.8038,-0.8038,-0.8038,-0.8038,-0.8038,-0.8038,-0.8038,-0.8038,-0.8528,-0.9118,-1.0066,-1.1011,-1.248,-1.407,-0.6211,-0.6179,-0.6251,-0.6288,-0.6051,-0.2895,0.0,0.0,0.0,0.0,-0.0784,0.0,0.0,0.0,0.0,0.0,0.0,-0.4412,-0.5901,-0.5693,-0.4685,-0.3238,-0.2168,-0.1422,-0.0763,-0.0776,0.0348,0.1314,0.2744,0.4198,0.5384,0.6923,0.7098,0.6189,0.5377,0.4926,0.4663,0.4405,0.1796,0.0,0.0,0.0,0.0,0.0,0.0,0.0,0.0,0.0,0.0,0.0,-0.4831,-0.6656,-0.6945,-0.678,-0.6695,-0.7587,-0.6905,-0.7115,-0.7723,-0.7892,-0.7949,-0.7959,-0.7952,-0.8045,-0.8041,-0.8038,-0.8038,-0.8041,-0.8038,-0.8038,-0.8038,-0.8038,-0.8038,-0.8038,-0.8038,-0.8038,-0.8038,-0.8038,-0.8038,-0.8038,-0.8038,-0.8038,-0.8038,-0.8038,-0.8038,-0.8038,-0.8038,-0.8038,-0.8038,-0.8038,-0.8038,-0.8038,-0.8038,-0.8038,-0.8038,-0.8038,-0.8038,-0.8038,-0.8038,-0.8038,-0.8038,-0.8038,-0.8038,-0.8038,-0.8038,-0.8038,-0.8038,-0.8038,-0.8035,-0.8609,-0.9276,-1.0649,-1.1813,-1.3278,-1.4358,-0.5827,-0.5857,-0.6142,-0.6254,-0.6264,-0.6038,-0.4613,-0.296,-0.2888,-0.2891,-0.2893,-0.2812,-0.1955,0.0,0.0,0.0,0.0,0.0,-0.5861,-0.6301,-0.6048,-0.5531,-0.4656,-0.3628,-0.2838,-0.2611,-0.1786,-0.0688,0.0349,0.1146,0.3646,0.6376,0.5819,0.3844,0.0,0.0,0.0,0.0,-0.0359,0.0,0.0,0.0,0.0,0.0,0.0,0.0,0.0,0.0,-0.2161,-0.551,-0.6542,-0.7108,-0.7134,-0.7363,-0.7576,-0.7326,-0.7991,-0.819,-0.827,-0.808,-0.8021,-0.8038,-0.8041,-0.8038,-0.8038,-0.8038,-0.8038,-0.8038,-0.8038,-0.8038,-0.8038,-0.8038,-0.8038,-0.8038,-0.8038,-0.8038,-0.8038,-0.8038,-0.8038,-0.8038,-0.8038,-0.8038,-0.8038,-0.8038,-0.8038,-0.8038,-0.8038,-0.8038,-0.8038,-0.8038,-0.8038,-0.8038,-0.8038,-0.8038,-0.8038,-0.8038,-0.8038,-0.8038,-0.8038,-0.8038,-0.8038,-0.8038,-0.8038,-0.8038,-0.8038,-0.8038,-0.8137,-0.8333,-0.8616,-0.8773,-0.9539,-1.1016,-1.2582,-1.4142,-1.4937,-0.5789,-0.5813,-0.5932,-0.5983,-0.5993,-0.6249,-0.5825,-0.5146,-0.506,-0.5096,-0.5012,-0.5018,-0.4623,-0.3365,0.0,0.0,0.0,0.0,-0.5805,-0.6288,-0.6254,-0.628,-0.5832,-0.5548,-0.502,-0.4846,-0.407,-0.2938,-0.1953,-0.1118,0.0515,0.2334,0.0,0.1968,0.0,0.0,0.0,0.0,-0.2335,-0.3145,0.0,0.0,0.0,0.0,0.0,0.0,0.0,0.0,-0.5116,-0.6557,-0.7005,-0.7177,-0.7347,-0.7945,-0.7867,-0.7699,-0.8741,-0.9557,-0.9095,-0.8589,-0.7923,-0.8028,-0.8038,-0.8038,-0.8035,-0.8038,-0.8038,-0.8038,-0.8038,-0.8038,-0.8038,-0.8038,-0.8038,-0.8038,-0.8244,-0.8546,-0.8237,-0.8333,-0.8038,-0.8038,-0.8038,-0.8038,-0.8038,-0.8038,-0.8038,-0.8038,-0.8038,-0.8038,-0.8038,-0.8038,-0.8038,-0.8038,-0.8038,-0.8038,-0.8038,-0.8038,-0.8038,-0.8038,-0.8038,-0.8134,-0.8233,-0.8038,-0.8038,-0.8038,-0.8038,-0.8137,-0.8333,-0.8821,-0.9197,-0.9367,-1.0329,-1.1691,-1.3352,-1.4912,-1.5419,-0.5883,-0.5667,-0.5674,-0.5722,-0.581,-0.6075,-0.6127,-0.6148,-0.6088,-0.6179,-0.6217,-0.6257,-0.6288,-0.5329,0.0,0.0,0.0,-0.4927,-0.5954,-0.6271,-0.6271,-0.6264,-0.6271,-0.6295,-0.6189,-0.6672,-0.6743,-0.5903,-0.4782,-0.2825,-0.1087,0.0,0.0,0.0,0.0,0.0,0.0,-0.2695,-0.2873,-0.5034,0.0,0.0,0.0,0.0,0.0,0.0,0.0,-0.5112,-0.6373,-0.6999,-0.7166,-0.7337,-0.7771,-0.8201,-0.8452,-0.902,-0.9888,-1.1264,-1.105,-0.9338,-0.8176,-0.8499,-0.8055,-0.8082,-0.8021,-0.8035,-0.8038,-0.8038,-0.8038,-0.8038,-0.8035,-0.8038,-0.8428,-0.873,-1.1104,-1.1519,-0.9644,-0.9023,-0.8531,-0.8137,-0.8038,-0.8038,-0.8038,-0.8038,-0.8038,-0.8038,-0.8038,-0.8038,-0.8038,-0.8038,-0.8038,-0.8038,-0.8038,-0.8038,-0.8038,-0.863,-0.9126,-0.8531,-0.8531,-0.8627,-0.8627,-0.8432,-0.863,-0.9031,-0.8931,-0.8432,-0.8722,-0.9406,-0.9788,-1.007,-1.1619,-1.3358,-1.4046,-1.552,-1.5622,-0.616,-0.5435,-0.5452,-0.5542,-0.5762,-0.58,-0.5806,-0.5885,-0.5847,-0.5922,-0.6047,-0.6166,-0.6244,-0.617,-0.5289,-0.514,-0.5162,-0.5876,-0.6271,-0.6264,-0.649,-0.6412,-0.649,-0.6651,-0.7277,-0.7769,-0.7947,-0.7949,-0.7782,-0.6118,-0.3781,-0.165,0.0,0.0,0.0,0.0,0.0,-0.5573,-0.2676,-0.3833,-0.5805,-0.6346,-0.4374,-0.2411,-0.2141,-0.3568,-0.5555,-0.6278,-0.7088,-0.7068,-0.7143,-0.7577,-0.8544,-0.8059,-0.8661,-1.0188,-0.9986,-1.1375,-1.3225,-1.0076,-0.9194,-0.9013,-0.8386,-0.7949,-0.7974,-0.8011,-0.8001,-0.797,-0.8001,-0.8024,-0.8031,-0.8031,-0.8715,-1.0036,-1.2428,-1.3046,-1.1138,-0.9197,-0.8506,-0.812,-0.8031,-0.8038,-0.8038,-0.8038,-0.8038,-0.8038,-0.8038,-0.8038,-0.8038,-0.8038,-0.8038,-0.8733,-0.8832,-0.9126,-0.9422,-1.0015,-1.0212,-0.9418,-0.9114,-0.9402,-0.9497,-0.9399,-0.9702,-1.0113,-1.0015,-0.9608,-0.9702,-1.0092,-1.0956,-1.2012,-1.3776,-1.5235,-1.573,-1.5825,-1.5825,-0.6527,-0.6203,-0.562,-0.5416,-0.5521,-0.562,-0.5661,-0.5677,-0.5755,-0.583,-0.5874,-0.5942,-0.6101,-0.6238,-0.6284,-0.6318,-0.6251,-0.6268,-0.6261,-0.6338,-0.6868,-0.7249,-0.7399,-0.7783,-0.8389,-0.8713,-0.8952,-0.8981,-0.8856,-0.7981,-0.6609,-0.4612,-0.3336,0.0,0.0,0.0,0.0,-0.5617,-0.5551,-0.6288,-0.8987,-0.9131,-0.7906,-0.47,-0.4251,-0.5061,-0.6979,-0.7245,-0.7071,-0.7139,-0.7214,-0.7906,-0.8956,-0.874,-0.9761,-1.1021,-1.1278,-1.2863,-1.3848,-1.2342,-1.1125,-0.9956,-0.8581,-0.8044,-0.774,-0.775,-0.7794,-0.806,-0.8174,-0.8119,-0.8011,-0.7987,-0.8674,-1.031,-1.2056,-1.2639,-1.1482,-0.9469,-0.8273,-0.8089,-0.8004,-0.8024,-0.8031,-0.8137,-0.8141,-0.8233,-0.8333,-0.8336,-0.8439,-0.8237,-0.8237,-0.9529,-1.0122,-1.0511,-1.09,-1.1287,-1.1492,-1.11,-1.0676,-1.0445,-1.0449,-1.0872,-1.076,-1.1165,-1.097,-1.0779,-1.1063,-1.1536,-1.2796,-1.4154,-1.5235,-1.5832,-1.5825,-1.5825,-1.5825,-0.7177,-0.6789,-0.6141,-0.5686,-0.5442,-0.5467,-0.5515,-0.5538,-0.5661,-0.5728,-0.5739,-0.5779,-0.5857,-0.6086,-0.6268,-0.6325,-0.6308,-0.6252,-0.63,-0.6461,-0.7318,-0.7625,-0.8084,-0.8841,-0.9291,-0.9669,-0.9895,-0.9906,-1.0368,-0.9175,-0.7646,-0.6369,-0.6215,-0.3463,0.0,0.0,-0.1603,-0.4489,-0.5445,-0.7172,-0.9283,-1.0209,-1.0444,-0.8426,-0.7135,-0.6387,-0.7246,-0.7379,-0.7136,-0.7295,-0.791,-0.8595,-0.9552,-1.0125,-1.1048,-1.2054,-1.2954,-1.4004,-1.4037,-1.3972,-1.2429,-1.0801,-0.9328,-0.8509,-0.84,-0.8836,-0.869,-0.8744,-0.8573,-0.8864,-0.9065,-0.8949,-0.9158,-1.0771,-1.2662,-1.334,-1.2619,-1.0701,-1.0138,-0.9759,-0.9072,-0.8799,-0.8319,-0.8333,-0.8439,-0.8531,-0.8722,-0.8829,-0.9034,-0.9031,-0.9118,-1.0199,-1.1511,-1.2217,-1.2283,-1.2339,-1.2554,-1.2683,-1.2538,-1.2195,-1.2764,-1.3311,-1.2754,-1.2114,-1.1843,-1.1848,-1.2216,-1.2978,-1.3753,-1.4638,-1.5432,-1.5825,-1.5825,-1.5825,-1.5825,-0.8117,-0.7163,-0.6776,-0.6121,-0.5484,-0.5432,-0.5372,-0.5379,-0.5518,-0.5583,-0.5589,-0.5779,-0.5973,-0.5926,-0.6158,-0.6154,-0.6412,-0.6388,-0.6396,-0.6616,-0.7331,-0.7664,-0.8304,-0.9069,-1.0045,-1.064,-1.0864,-1.1174,-1.1855,-1.0351,-0.8466,-0.6718,-0.6288,-0.4258,0.0,0.0,-0.2233,-0.3886,-0.5553,-0.7233,-0.9019,-1.1269,-1.1495,-1.0403,-0.9336,-0.8632,-0.8543,-0.7823,-0.7458,-0.8028,-0.9414,-1.0279,-1.0682,-1.0696,-1.219,-1.3353,-1.4004,-1.4088,-1.4088,-1.4108,-1.3672,-1.2152,-1.1367,-1.0391,-0.9762,-0.9866,-0.9806,-0.9561,-0.9503,-1.037,-1.0858,-1.0193,-0.9527,-1.1877,-1.4441,-1.4549,-1.4023,-1.3245,-1.3011,-1.2334,-1.1341,-1.0556,-0.9272,-0.8992,-0.9316,-0.8985,-0.9477,-1.09,-1.1007,-1.0614,-1.0792,-1.1239,-1.2565,-1.3928,-1.399,-1.3703,-1.3692,-1.3823,-1.4598,-1.4567,-1.5178,-1.5229,-1.4545,-1.3794,-1.2931,-1.292,-1.3578,-1.3855,-1.4142,-1.5026,-1.573,-1.5825,-1.5825,-1.5825,-1.5825,-0.8351,-0.7982,-0.6854,-0.589,-0.5277,-0.5315,-0.5428,-0.5435,-0.548,-0.5426,-0.5497,-0.6127,-0.637,-0.6668,-0.596,-0.5832,-0.629,-0.6993,-0.6958,-0.717,-0.7273,-0.8041,-0.8934,-0.9798,-1.0858,-1.1471,-1.1848,-1.1848,-1.1929,-1.0795,-0.8761,-0.6718,-0.6402,-0.5146,-0.4633,-0.437,-0.3916,-0.4092,-0.5642,-0.7354,-0.918,-1.1476,-1.1854,-1.1484,-1.0933,-1.0258,-0.9485,-0.8243,-0.7959,-0.9095,-1.1578,-1.2673,-1.1556,-1.2451,-1.3724,-1.3899,-1.4088,-1.4088,-1.4088,-1.4088,-1.3906,-1.3555,-1.3047,-1.1922,-1.1051,-1.0681,-1.082,-1.0612,-1.0476,-1.1227,-1.1344,-1.0813,-1.0944,-1.2794,-1.482,-1.5078,-1.4584,-1.4584,-1.4361,-1.4052,-1.3058,-1.1905,-1.0617,-1.0458,-1.0779,-1.0032,-1.0316,-1.1843,-1.2883,-1.2591,-1.236,-1.2802,-1.3505,-1.4774,-1.514,-1.4949,-1.4949,-1.5051,-1.5547,-1.5838,-1.5681,-1.5612,-1.5783,-1.528,-1.4388,-1.4472,-1.5038,-1.5127,-1.493,-1.5229,-1.5825,-1.5825,-1.5825,-1.5825,-1.5825,-0.8474,-0.7882,-0.682,-0.5864,-0.5202,-0.5233,-0.5301,-0.5418,-0.5428,-0.5428,-0.5425,-0.5885,-0.6461,-0.6814,-0.6554,-0.6196,-0.5603,-0.639,-0.6572,-0.644,-0.7223,-0.8309,-0.9385,-1.0506,-1.1525,-1.2098,-1.2298,-1.2231,-1.1909,-1.0795,-0.8922,-0.7773,-0.6949,-0.6405,-0.6041,-0.5824,-0.5808,-0.6045,-0.6909,-0.8426,-0.9983,-1.1563,-1.1997,-1.2293,-1.1917,-1.1341,-1.083,-0.9423,-0.9616,-1.0191,-1.2531,-1.2876,-1.2098,-1.2965,-1.3908,-1.4011,-1.4132,-1.4068,-1.4088,-1.4088,-1.4088,-1.4088,-1.4088,-1.3404,-1.2717,-1.2255,-1.1956,-1.157,-1.1685,-1.1734,-1.1577,-1.1595,-1.2608,-1.3658,-1.4436,-1.5224,-1.5337,-1.5458,-1.5378,-1.5207,-1.438,-1.3329,-1.2678,-1.2517,-1.2242,-1.1793,-1.1763,-1.2662,-1.4022,-1.4576,-1.4334,-1.437,-1.4873,-1.5612,-1.5852,-1.5825,-1.5629,-1.5439,-1.5635,-1.5832,-1.5825,-1.5832,-1.5845,-1.5845,-1.5635,-1.5724,-1.5622,-1.5724,-1.5629,-1.5825,-1.5825,-1.5825,-1.5825,-1.5825,-1.5825,-0.8494,-0.716,-0.6575,-0.5799,-0.5161,-0.5114,-0.5189,-0.5325,-0.5321,-0.5352,-0.5422,-0.5557,-0.6145,-0.6898,-0.7654,-0.747,-0.7011,-0.7089,-0.6996,-0.5734,-0.7223,-0.8369,-0.931,-1.0611,-1.0893,-1.1674,-1.1965,-1.1616,-1.1519,-1.0748,-0.9933,-0.914,-0.7675,-0.6795,-0.6349,-0.6902,-0.72,-0.7799,-0.8551,-0.9716,-1.0674,-1.1793,-1.2813,-1.3302,-1.3026,-1.2607,-1.2487,-1.2183,-1.1842,-1.1505,-1.1496,-1.2043,-1.2432,-1.2781,-1.3587,-1.3981,-1.413,-1.4135,-1.4099,-1.4126,-1.4082,-1.4088,-1.4088,-1.3913,-1.3561,-1.3385,-1.2924,-1.2765,-1.2801,-1.3016,-1.2946,-1.2901,-1.353,-1.3919,-1.4326,-1.4883,-1.4977,-1.511,-1.5068,-1.5088,-1.5259,-1.4241,-1.3896,-1.3626,-1.3785,-1.3535,-1.357,-1.4046,-1.453,-1.5619,-1.5675,-1.5412,-1.5655,-1.577,-1.5845,-1.5825,-1.5825,-1.573,-1.5825,-1.5825,-1.5825,-1.5825,-1.5825,-1.5825,-1.5825,-1.5825,-1.573,-1.5825,-1.5825,-1.5825,-1.5825,-1.5825,-1.5818,-1.5785,-1.5825,-0.7889,-0.617,-0.5423,-0.5061,-0.4958,-0.4969,-0.4989,-0.5036,-0.5145,-0.525,-0.5474,-0.6071,-0.658,-0.7093,-0.8826,-0.9054,-0.9179,-0.8504,-0.841,-0.7396,-0.761,-0.8012,-0.8457,-0.8917,-0.9537,-1.0254,-1.0643,-1.0858,-1.0706,-1.0609,-0.9845,-0.7667,-0.7254,-0.7487,-0.6468,-0.733,-0.856,-0.9013,-0.983,-1.0421,-1.1019,-1.2586,-1.3863,-1.4049,-1.3805,-1.4057,-1.382,-1.2994,-1.2446,-1.2013,-1.2075,-1.2447,-1.2876,-1.3107,-1.35,-1.4003,-1.3954,-1.3988,-1.4069,-1.4068,-1.4058,-1.4028,-1.4041,-1.4075,-1.4088,-1.4088,-1.3997,-1.3822,-1.3841,-1.4064,-1.4182,-1.4117,-1.415,-1.419,-1.4209,-1.4375,-1.4623,-1.4579,-1.4635,-1.503,-1.5499,-1.5275,-1.4845,-1.491,-1.5167,-1.5226,-1.5192,-1.5252,-1.5188,-1.5785,-1.5833,-1.5705,-1.5717,-1.5832,-1.5825,-1.5825,-1.5825,-1.5927,-1.6021,-1.5927,-1.5913,-1.6285,-1.6655,-1.6008,-1.5825,-1.6089,-1.6177,-1.5906,-1.5913,-1.6055,-1.5819,-1.5831,-1.5738,-1.5745,-1.5752,-0.7765,-0.615,-0.505,-0.4677,-0.4802,-0.4819,-0.4853,-0.4928,-0.5003,-0.515,-0.5385,-0.5933,-0.6445,-0.7066,-0.8798,-1.0161,-1.0456,-1.0515,-0.9219,-0.8129,-0.765,-0.7681,-0.7711,-0.779,-0.9002,-0.9846,-1.0441,-1.0704,-1.0327,-1.0272,-0.952,-0.787,-0.8285,-0.7694,-0.6719,-0.8129,-0.9326,-0.9367,-1.0329,-1.0938,-1.1385,-1.2952,-1.4209,-1.4386,-1.4814,-1.5221,-1.5824,-1.498,-1.3848,-1.2912,-1.2249,-1.2395,-1.2606,-1.2738,-1.2902,-1.3165,-1.3247,-1.3447,-1.3689,-1.3886,-1.3926,-1.3843,-1.381,-1.3736,-1.3848,-1.3854,-1.3975,-1.3814,-1.3984,-1.4128,-1.4128,-1.4142,-1.4142,-1.413,-1.417,-1.4216,-1.4329,-1.4303,-1.4388,-1.4743,-1.5014,-1.4993,-1.4591,-1.4501,-1.4838,-1.5053,-1.5308,-1.544,-1.551,-1.5565,-1.5638,-1.5851,-1.5919,-1.5866,-1.5825,-1.5825,-1.5825,-1.6021,-1.6425,-1.7102,-1.7531,-1.7554,-1.7475,-1.713,-1.6929,-1.6886,-1.6886,-1.66,-1.6657,-1.687,-1.631,-1.5847,-1.5803,-1.592,-1.5602,-0.7937,-0.648,-0.5175,-0.465,-0.465,-0.466,-0.4731,-0.484,-0.488,-0.5015,-0.5251,-0.531,-0.5986,-0.6789,-0.7812,-0.9192,-1.0136,-1.0514,-0.9514,-0.8371,-0.7987,-0.7645,-0.7458,-0.759,-0.8409,-0.9672,-1.0776,-1.0683,-1.0442,-1.0704,-1.052,-0.9319,-0.8122,-0.6869,-0.7155,-0.8139,-0.9269,-0.9633,-1.0358,-1.1459,-1.2358,-1.331,-1.4314,-1.4964,-1.5547,-1.6444,-1.7486,-1.7413,-1.5771,-1.4442,-1.2997,-1.2539,-1.2412,-1.2477,-1.2398,-1.2586,-1.2622,-1.2759,-1.3087,-1.3712,-1.3639,-1.3439,-1.3385,-1.3393,-1.3446,-1.3599,-1.3801,-1.3908,-1.4079,-1.4075,-1.4075,-1.4426,-1.4426,-1.4328,-1.4341,-1.4159,-1.4075,-1.4102,-1.4282,-1.4476,-1.4536,-1.4522,-1.4493,-1.4326,-1.4467,-1.4774,-1.491,-1.504,-1.5197,-1.515,-1.5126,-1.565,-1.6113,-1.5996,-1.5912,-1.6227,-1.635,-1.6827,-1.7394,-1.8375,-1.8894,-1.8364,-1.8218,-1.8667,-1.8403,-1.8115,-1.775,-1.7439,-1.7514,-1.7596,-1.7932,-1.7582,-1.7158,-1.6952,-1.5596,-0.7943,-0.6534,-0.5655,-0.5026,-0.4563,-0.4563,-0.4524,-0.4568,-0.4687,-0.4735,-0.4782,-0.4968,-0.5348,-0.5832,-0.7362,-0.893,-1.0358,-1.0575,-0.9494,-0.8233,-0.8011,-0.747,-0.7047,-0.7034,-0.7211,-0.8744,-1.0719,-1.161,-1.1242,-1.1643,-1.1451,-1.0226,-1.0623,-0.9421,-0.7918,-0.8739,-0.9253,-0.9699,-1.0831,-1.2031,-1.2652,-1.3665,-1.4736,-1.5711,-1.6706,-1.7364,-1.7949,-1.7996,-1.7571,-1.6519,-1.4633,-1.3266,-1.2625,-1.2399,-1.233,-1.2335,-1.2292,-1.2363,-1.2789,-1.3423,-1.3365,-1.3151,-1.3066,-1.2936,-1.3134,-1.348,-1.3682,-1.3899,-1.4014,-1.4008,-1.4216,-1.5249,-1.5506,-1.5296,-1.5199,-1.4539,-1.4171,-1.4176,-1.4142,-1.4208,-1.4242,-1.4275,-1.4289,-1.4196,-1.4169,-1.4402,-1.4401,-1.4542,-1.4872,-1.4754,-1.4691,-1.539,-1.6113,-1.6099,-1.6002,-1.7049,-1.7407,-1.7872,-1.8298,-1.9046,-1.9205,-1.8472,-1.8551,-1.9451,-1.9547,-1.9242,-1.8775,-1.836,-1.8183,-1.8382,-1.9574,-1.9739,-1.9117,-1.8218,-1.6962]}]]